GFSSGP_850_thetae_000.txt.gz
Theta_e
329 316 319 323 333 334 337 337 335 335 334 327 327 327 328 328 329 336 335 331 335 335 330 331 336 336 334 332 332 330 322 324 326 324 328 328 326 324 325 326 323 325 326 325 317 324 328 326 326
327 315 321 326 332 337 336 334 336 335 327 327 326 327 327 326 329 329 332 324 334 337 336 327 335 333 333 332 326 325 319 324 323 328 328 329 329 326 321 326 323 319 324 322 312 322 326 324 325
320 319 322 327 332 334 336 335 336 328 326 326 327 326 327 326 326 332 333 322 333 337 337 335 329 334 333 330 329 320 320 326 328 330 328 329 328 327 324 323 320 317 318 315 311 321 325 321 325
320 320 320 328 330 332 334 335 333 330 326 325 326 327 327 326 326 331 325 323 333 335 336 335 335 332 331 330 330 321 320 326 327 328 329 326 327 326 324 319 319 315 313 311 309 311 312 323 315
322 319 323 325 328 329 331 334 331 331 330 326 325 328 329 326 324 324 320 328 334 334 334 335 333 333 333 330 329 320 323 326 327 328 326 326 326 325 326 321 320 318 316 313 308 307 308 310 310
322 320 322 325 325 327 328 333 332 331 331 326 326 326 331 329 322 325 324 328 333 333 334 334 332 334 332 330 325 320 321 326 327 325 321 324 325 326 324 324 325 324 320 317 311 307 307 308 310
323 321 321 321 322 326 329 332 332 331 331 327 327 328 330 326 330 321 323 332 333 333 333 332 329 328 326 325 316 318 324 326 325 321 319 318 319 323 324 324 325 325 324 319 312 309 307 308 309
323 322 321 321 323 326 330 331 331 329 329 326 326 327 328 329 326 321 324 331 331 332 331 332 330 323 313 310 312 318 327 329 325 324 317 314 318 322 323 321 325 325 324 320 314 308 308 308 309
323 322 321 324 325 327 329 329 329 328 326 325 325 326 330 329 323 324 324 331 331 330 329 329 331 330 326 322 316 310 315 319 316 313 311 313 314 319 324 319 317 319 319 316 313 308 307 308 309
324 324 322 322 324 327 328 329 327 326 327 327 325 325 328 325 323 323 323 326 328 328 328 328 329 329 329 327 325 319 312 312 312 311 312 314 315 326 326 321 319 315 313 312 311 307 306 308 310
325 325 324 321 326 325 326 326 328 327 327 329 327 326 326 324 324 325 325 328 323 327 327 325 327 329 326 321 321 320 314 317 314 317 320 320 320 325 323 319 315 316 311 311 310 307 306 309 310
325 324 323 322 324 324 324 326 326 328 327 327 327 327 327 326 325 326 326 328 328 322 318 325 327 327 326 322 317 319 319 321 319 322 323 322 322 321 317 315 315 316 313 315 311 311 307 309 310
324 323 323 323 323 325 324 324 325 327 328 327 326 325 327 328 328 329 329 328 328 327 325 321 319 328 324 326 319 318 319 321 320 322 322 321 322 321 320 318 319 318 315 314 317 315 312 314 312
323 324 323 324 324 325 323 324 325 326 327 327 326 325 325 327 329 330 330 329 329 327 327 324 321 318 328 327 323 320 320 321 322 321 321 321 320 320 321 320 319 318 317 315 315 315 313 311 313
322 322 323 323 324 323 322 323 323 324 326 326 327 326 324 325 325 326 328 329 328 328 327 326 325 322 319 326 325 325 323 323 323 324 324 324 324 324 323 322 321 320 319 317 316 315 317 317 316
322 322 323 323 324 323 322 323 322 324 325 325 326 326 326 325 325 325 325 325 327 329 328 328 327 325 322 318 322 326 328 327 323 322 323 325 326 326 326 326 326 325 322 321 319 318 317 317 316
322 320 322 322 324 323 322 323 325 325 325 324 325 325 325 325 325 325 324 324 325 326 328 329 329 327 325 322 320 322 325 325 323 322 321 321 322 323 324 325 326 327 326 324 323 322 321 320 319
323 320 321 321 324 323 322 321 321 323 323 323 324 323 322 321 320 320 321 322 323 323 324 326 328 330 329 327 325 326 326 321 322 321 320 321 321 322 323 324 325 328 328 328 326 324 323 322 321
323 322 321 322 322 322 321 320 323 321 320 322 320 320 319 319 319 319 318 318 320 322 323 325 326 327 328 329 329 328 325 324 323 321 320 321 321 322 323 324 325 327 328 329 328 327 325 325 324
322 322 322 324 323 323 321 323 321 320 319 319 319 320 321 320 319 319 319 318 318 318 319 322 323 325 326 327 327 328 328 326 326 324 323 323 324 324 326 326 326 327 328 329 329 329 327 326 325
322 322 323 324 323 322 323 323 320 320 321 320 320 321 321 320 320 320 319 317 317 318 318 318 320 322 325 327 327 327 328 330 330 329 331 331 331 330 330 330 330 330 329 329 329 330 329 327 326
323 322 323 323 323 325 322 324 321 320 321 319 321 322 321 320 319 319 319 318 317 317 318 318 318 319 323 325 327 328 329 329 329 330 330 330 330 328 328 329 329 330 330 330 330 330 330 329 328
324 322 322 321 320 321 323 322 319 319 321 320 320 322 321 320 319 319 319 319 318 317 317 317 318 318 319 322 323 325 327 328 328 329 330 330 329 329 329 328 329 329 329 330 331 331 332 330 329
320 320 320 320 319 323 321 322 320 320 320 320 321 322 321 320 319 318 318 319 319 319 319 318 318 317 317 317 319 320 321 323 324 324 327 327 327 328 329 329 329 329 329 330 331 331 332 331 330
318 320 325 325 325 325 320 321 319 320 320 320 320 321 321 320 319 318 318 318 319 319 318 318 318 317 317 317 317 316 317 320 323 325 327 328 328 329 329 330 330 330 330 329 330 331 331 331 331
318 322 326 332 329 324 319 323 323 317 320 320 321 321 321 319 318 318 318 318 318 318 318 317 317 317 316 316 317 316 316 315 315 315 316 319 323 325 327 328 330 331 331 331 330 330 331 331 332
322 324 320 324 324 324 324 325 321 317 316 317 320 321 320 319 318 317 318 317 318 317 317 317 316 316 316 316 315 315 315 315 315 315 315 315 314 314 314 319 323 325 327 328 330 330 330 330 330
315 315 320 321 325 326 324 324 321 317 316 316 318 321 320 319 318 317 317 317 317 317 316 316 316 316 316 315 314 315 315 315 315 315 315 315 314 314 314 314 314 314 316 319 322 325 327 328 328
316 318 317 317 319 322 323 322 319 319 317 316 318 321 320 318 317 317 317 317 316 316 316 316 315 315 314 314 314 313 314 315 315 315 315 315 314 314 314 314 314 314 313 313 313 315 319 323 325
318 319 318 320 322 319 316 317 317 316 317 320 321 321 318 317 317 317 317 316 316 316 316 315 314 314 313 312 311 311 311 312 312 311 310 308 307 307 307 307 309 311 312 314 314 314 314 315 316

GFSSGP_850_thetae_003.txt.gz
Theta_e
326 318 319 322 328 327 331 334 332 334 329 326 326 326 325 326 327 325 332 331 333 333 330 325 332 336 337 335 333 331 329 319 326 328 329 330 327 325 326 326 325 326 328 328 315 327 328 328 328
325 316 321 323 325 331 331 329 334 331 328 326 326 325 324 324 327 326 329 330 328 327 330 324 334 335 335 334 333 324 323 320 322 329 331 331 329 328 325 328 323 322 327 320 313 324 326 323 326
321 318 320 321 325 329 331 333 332 331 325 326 326 325 326 324 327 328 327 324 327 332 333 332 330 335 333 333 328 324 318 324 328 330 327 330 329 328 325 322 319 316 316 313 312 317 325 322 323
321 320 319 323 325 326 328 330 332 329 326 325 325 325 326 326 325 328 327 318 326 335 333 332 332 330 333 331 326 326 321 324 328 329 330 327 328 328 325 319 317 314 312 309 308 312 310 316 319
321 320 317 319 321 322 324 332 332 328 328 326 325 326 327 325 324 323 320 320 327 331 334 333 334 334 332 331 328 327 320 325 324 329 327 328 328 327 326 321 318 316 313 310 308 308 309 309 310
321 319 315 318 319 319 321 330 331 330 329 325 325 327 328 328 320 321 318 321 330 329 332 333 334 333 332 332 326 325 319 328 328 327 322 324 325 319 323 321 319 318 316 314 311 308 307 308 309
321 317 317 317 317 318 320 327 331 328 329 326 326 326 330 328 325 320 319 325 331 330 332 332 328 329 332 332 327 321 319 327 325 327 317 315 317 317 316 321 320 324 322 321 315 311 308 307 308
323 317 318 316 318 319 322 328 328 328 325 325 325 326 328 327 327 320 322 326 330 329 329 328 325 320 325 317 314 311 314 322 318 318 312 312 312 313 317 319 324 325 324 323 319 313 309 308 308
323 319 316 318 321 321 326 325 328 326 327 326 325 328 328 328 327 322 324 327 326 326 324 324 325 324 322 312 310 309 310 313 313 313 312 312 312 312 314 319 317 316 319 319 317 313 308 308 308
321 319 320 317 320 319 324 324 324 327 326 326 326 326 328 328 324 322 322 324 324 323 322 323 324 325 323 318 318 317 312 312 312 312 313 312 311 312 318 317 316 314 313 313 315 313 309 306 308
323 322 322 323 323 322 323 323 324 325 325 326 326 325 326 327 323 324 322 322 322 320 321 322 323 325 325 322 318 317 317 312 313 312 313 315 316 316 316 316 314 314 315 313 312 312 309 306 307
324 324 324 324 323 322 323 324 322 324 326 327 326 326 326 325 324 323 323 321 323 322 320 321 322 324 326 325 318 316 317 315 317 317 317 318 319 318 317 317 315 314 315 313 312 311 310 307 307
323 323 324 325 322 322 324 323 321 323 325 327 325 326 326 326 326 325 324 323 324 324 325 320 320 321 324 322 320 318 316 318 318 319 319 320 320 320 320 320 319 318 317 315 313 312 311 309 308
323 322 321 323 323 322 323 322 321 323 324 326 326 324 325 325 325 326 327 327 326 326 326 326 323 320 323 324 320 319 320 318 320 321 321 321 321 321 321 321 322 322 321 319 317 315 313 312 310
324 320 319 321 323 321 322 320 320 322 323 325 326 325 324 325 324 324 324 324 325 326 327 327 325 324 321 318 320 320 321 321 320 321 322 323 323 323 324 324 324 323 323 322 320 319 317 315 314
321 320 321 320 321 322 321 321 319 323 321 325 325 325 325 324 324 324 324 324 324 326 327 328 327 325 324 321 318 320 324 323 320 320 320 321 323 324 324 324 323 324 325 324 324 322 321 319 317
319 320 319 319 319 320 320 321 320 323 323 323 324 324 321 319 320 320 322 323 324 325 324 326 328 327 327 325 323 321 319 320 320 321 320 319 320 321 322 323 323 325 326 326 326 325 324 323 321
321 319 317 317 321 320 320 319 318 322 320 320 319 319 319 319 319 319 319 319 321 323 325 327 328 328 329 329 327 325 325 322 320 320 319 320 321 322 324 324 324 326 326 327 326 326 326 325 324
318 319 318 319 321 321 320 318 317 319 318 317 318 320 320 320 319 319 318 318 318 319 322 324 327 330 330 329 329 328 327 326 326 325 324 325 327 328 328 328 327 326 327 327 327 327 328 327 325
317 319 318 320 321 319 319 320 319 317 316 319 321 321 321 320 319 318 318 318 318 319 319 319 321 324 327 331 330 329 328 328 329 329 329 330 330 330 330 330 329 329 329 329 329 328 328 328 327
320 321 322 322 320 320 321 320 318 316 318 320 321 321 321 320 320 320 318 318 318 318 318 320 319 320 323 326 329 330 330 330 328 327 328 329 330 331 331 331 331 331 331 331 330 330 329 329 329
320 320 322 322 319 321 319 321 317 317 318 317 320 320 320 320 319 319 319 319 318 317 317 318 318 319 321 324 326 328 329 329 329 329 329 329 330 331 331 330 330 330 330 331 331 331 330 329 328
323 321 321 320 319 318 320 320 317 317 318 317 318 320 319 319 319 319 319 318 318 318 318 318 318 318 318 319 321 323 324 325 325 326 327 327 328 328 328 328 329 330 330 330 330 330 328 329 330
319 319 319 318 317 321 318 319 318 319 318 317 317 320 319 319 318 318 318 318 318 318 317 317 317 317 317 317 317 316 316 317 317 318 321 324 326 327 328 329 329 330 330 330 330 330 330 329 329
317 317 322 323 321 322 318 318 317 317 318 318 317 320 320 319 318 317 317 318 318 317 317 317 316 316 315 316 316 315 315 315 315 315 315 314 314 314 316 322 326 326 326 327 329 329 329 329 329
315 317 323 330 326 324 318 319 319 316 319 321 321 320 319 318 318 317 317 317 317 317 316 316 316 316 315 315 315 315 315 315 315 316 316 316 315 315 314 313 313 314 317 319 322 324 326 327 328
319 321 318 321 321 321 321 321 318 314 315 318 319 320 319 319 318 317 317 317 317 316 316 315 315 315 315 314 314 314 314 313 314 315 315 316 315 314 313 312 312 312 312 312 312 314 317 320 322
315 315 320 318 323 324 321 322 319 315 314 314 317 318 319 318 318 317 317 316 316 316 316 315 314 314 314 312 311 311 311 311 312 313 313 312 310 308 307 307 306 306 306 309 310 312 312 313 313
317 316 315 315 316 320 320 319 315 316 313 314 316 319 319 318 318 317 317 316 316 316 315 315 314 314 310 308 308 310 310 311 311 311 311 310 308 307 306 305 305 305 304 304 306 309 311 312 313
317 318 316 317 321 316 314 317 315 316 313 317 319 320 318 318 317 317 316 316 315 315 315 314 314 312 307 308 310 310 310 309 309 309 308 307 306 306 305 304 305 305 305 305 305 307 308 314 314

GFSSGP_850_thetae_006.txt.gz
Theta_e
326 318 317 322 325 325 330 332 329 333 329 326 326 325 325 325 325 321 328 328 327 330 330 327 326 334 338 336 335 332 330 325 317 330 329 330 327 325 324 325 327 327 326 326 321 328 327 328 329
323 317 321 324 324 330 329 327 333 330 331 326 325 325 324 325 327 325 326 326 326 327 327 327 327 334 336 335 333 332 326 321 318 324 330 330 329 328 325 326 321 325 327 318 313 324 325 323 328
321 319 320 319 323 327 329 330 330 331 326 325 324 325 325 324 324 326 325 322 321 324 329 326 330 335 333 333 331 327 320 317 325 329 329 330 329 328 325 320 319 317 314 312 312 316 319 318 324
321 319 318 320 324 324 327 324 326 330 328 325 324 325 325 325 325 326 325 319 319 325 329 329 327 330 330 332 331 324 320 318 327 330 329 330 328 327 324 319 316 313 311 311 309 313 312 311 312
321 318 314 317 318 320 320 322 325 329 328 326 324 325 327 325 324 324 321 318 320 324 328 329 331 332 331 331 330 325 323 320 323 329 329 327 329 327 322 320 319 315 314 311 308 308 309 309 309
321 317 313 316 317 316 316 320 322 329 330 326 323 325 327 328 323 321 318 319 325 325 326 330 331 332 331 330 329 324 321 317 319 326 327 326 327 325 320 319 318 318 318 315 311 309 307 308 308
319 315 317 316 316 316 318 325 324 327 327 324 324 327 329 329 321 322 318 324 327 327 328 329 331 330 329 329 329 325 319 315 324 327 318 318 322 319 316 318 322 325 322 320 317 313 309 307 307
322 316 318 315 316 318 319 322 326 325 325 324 325 325 328 329 324 321 321 326 326 327 328 329 329 325 322 325 324 316 310 311 321 318 313 312 312 312 314 319 319 317 324 321 321 317 312 309 307
322 318 317 316 318 319 320 320 324 326 325 324 325 327 328 327 326 322 322 326 326 326 327 327 324 324 321 319 313 310 308 310 313 313 314 312 312 312 312 314 317 315 313 314 315 315 313 310 308
320 319 320 317 318 320 321 321 323 324 324 325 325 325 327 327 326 323 322 324 325 325 324 323 323 323 324 320 315 313 311 311 312 313 313 313 313 312 311 315 315 312 311 311 312 311 311 310 307
321 321 320 322 323 323 321 321 323 322 323 325 325 326 327 328 328 323 322 322 324 325 324 322 322 323 324 322 318 316 316 315 312 312 312 313 314 315 315 316 315 314 313 313 312 311 311 311 308
324 322 322 323 324 323 320 322 322 323 323 324 324 325 326 327 327 324 323 323 323 324 324 324 323 323 323 323 321 317 316 317 314 316 315 316 317 317 318 318 319 318 317 315 315 312 312 311 309
323 323 325 325 324 322 321 320 321 322 324 324 325 325 326 326 326 325 324 324 324 324 325 324 324 322 322 322 321 319 317 317 317 317 318 319 319 320 320 320 321 321 320 320 318 316 314 312 311
324 322 321 321 321 321 320 321 321 323 324 323 323 325 325 325 325 325 326 325 325 325 324 325 326 325 322 321 321 321 320 318 317 319 320 321 321 321 321 322 322 323 322 322 321 320 319 317 314
321 321 319 319 321 320 321 319 319 323 322 322 321 324 324 325 325 325 326 326 326 327 327 327 327 327 326 323 320 319 321 320 320 319 319 321 322 322 322 323 323 323 323 323 322 322 321 320 318
319 319 320 318 319 320 320 320 319 322 321 321 322 322 322 323 323 324 324 325 326 325 326 327 327 328 327 325 323 321 319 321 319 320 321 321 321 323 323 323 323 323 324 324 324 324 323 323 322
318 320 318 318 318 319 318 320 318 321 321 321 321 319 319 319 319 320 320 321 322 323 324 324 326 327 327 327 327 325 323 322 320 320 321 324 326 326 326 325 324 324 324 325 325 325 324 324 324
320 319 317 317 318 317 317 318 317 320 319 318 317 318 319 319 319 318 318 318 318 320 321 323 325 329 329 328 328 328 327 326 325 324 323 322 324 327 329 329 329 329 328 327 326 326 326 326 325
318 318 317 315 316 318 318 318 318 317 315 314 317 319 319 319 318 317 317 318 318 318 319 321 323 326 329 329 329 329 328 328 327 327 327 328 330 331 331 331 331 331 331 330 330 329 328 328 327
317 317 316 316 319 320 319 318 317 314 314 317 318 319 320 319 318 317 317 318 318 319 319 319 319 321 322 326 329 329 328 328 328 329 330 331 330 330 331 331 331 331 331 330 330 330 330 330 329
318 316 317 320 319 318 320 319 317 316 317 318 319 320 320 320 319 318 317 317 317 317 317 318 319 319 320 323 326 328 329 329 329 331 331 330 330 330 330 331 331 331 330 330 330 330 330 329 328
318 316 319 321 319 320 318 321 316 315 317 316 317 319 319 319 319 318 318 318 317 317 317 317 317 319 320 322 323 325 328 328 327 326 325 326 326 326 327 327 327 328 328 329 330 330 330 330 328
319 319 320 319 317 317 318 319 316 315 317 316 315 318 318 319 318 318 318 317 317 317 317 317 317 317 317 317 317 318 318 317 317 317 318 321 323 325 325 325 326 328 328 327 328 329 330 330 329
318 318 315 314 315 319 317 319 318 316 317 316 315 318 318 318 318 318 318 317 317 317 316 316 315 315 315 315 315 315 315 315 315 315 315 315 315 314 314 314 317 318 319 320 322 324 325 326 328
315 316 320 321 320 321 316 317 318 315 315 317 315 317 318 317 317 317 317 317 317 316 316 315 315 315 315 314 314 314 314 314 315 315 315 315 315 315 314 314 313 313 313 313 313 314 316 319 321
315 316 320 326 323 323 317 318 317 313 316 318 319 318 318 318 317 317 317 317 317 316 316 315 315 315 314 313 313 312 312 312 313 314 315 314 313 312 310 309 308 307 307 307 308 311 312 312 313
316 319 317 320 318 320 320 318 316 314 315 316 317 318 318 318 318 317 317 316 316 316 315 315 315 314 314 311 308 308 309 309 310 310 311 311 310 309 308 307 306 306 305 305 304 304 305 307 309
316 314 319 317 324 323 319 319 319 317 316 315 315 316 318 318 317 317 316 316 316 315 315 314 314 314 312 307 307 308 309 309 309 309 308 308 308 307 307 306 305 304 304 304 304 304 304 305 305
315 315 314 315 316 320 320 318 313 313 314 316 315 318 319 318 317 317 316 316 315 315 314 314 314 313 310 306 307 308 308 309 309 308 308 308 307 306 305 303 302 302 303 303 303 305 305 306 308
315 316 314 316 318 314 313 317 312 313 311 314 317 319 318 318 317 316 316 315 315 315 314 313 312 310 306 306 307 307 306 306 307 307 306 305 303 302 300 300 300 300 300 301 303 303 305 306 305

GFSSGP_850_thetae_009.txt.gz
Theta_e
325 321 317 321 323 323 328 331 328 330 331 325 324 323 324 324 323 321 325 325 325 324 326 326 326 331 336 336 335 334 331 328 322 326 328 329 327 328 325 328 327 328 326 326 328 327 328 326 328
324 320 319 324 324 327 326 326 331 329 331 327 324 325 324 324 326 324 325 324 324 323 324 325 324 333 336 335 335 333 330 324 321 323 329 329 329 327 328 326 323 327 327 326 316 326 327 324 329
324 320 320 319 321 327 327 327 328 327 328 324 323 323 324 325 325 325 325 323 322 321 325 324 325 332 336 333 333 330 326 318 319 326 330 330 329 328 327 323 320 319 319 315 314 321 320 321 322
323 319 317 318 323 323 325 323 321 321 328 325 323 323 325 325 325 324 323 321 320 322 326 327 329 332 333 332 330 329 322 317 319 328 326 331 330 328 328 323 318 316 314 312 310 313 313 312 319
322 317 313 316 317 318 318 319 321 322 328 327 323 324 326 326 325 323 322 318 320 323 327 328 329 328 330 329 330 328 321 318 318 330 329 329 328 328 326 321 320 318 315 313 310 308 309 312 309
321 315 313 314 315 315 314 318 321 322 327 326 323 324 327 327 324 322 320 319 323 325 326 328 329 330 331 330 328 327 321 318 316 322 325 329 329 328 327 323 321 319 317 316 313 311 309 308 308
319 315 316 315 315 315 317 320 322 322 326 327 324 324 327 328 324 322 320 321 325 326 326 328 329 330 331 329 329 328 326 319 315 321 324 323 326 325 322 320 319 320 318 317 316 314 312 310 307
321 316 318 315 314 316 317 321 322 323 323 323 323 324 326 328 325 323 322 322 326 327 326 327 328 328 327 323 324 324 321 315 311 319 315 312 315 318 315 313 315 315 313 314 316 315 314 313 310
321 318 318 317 315 316 319 319 322 323 323 324 324 325 327 328 325 324 322 324 326 327 326 326 325 326 325 321 321 320 314 310 310 312 312 312 313 312 312 311 313 314 312 312 313 314 314 314 313
319 318 321 317 316 319 321 321 321 322 322 324 325 325 326 327 325 325 323 324 325 326 325 326 325 325 325 323 320 316 313 311 311 313 313 313 313 313 312 312 314 314 313 313 312 313 313 313 312
319 320 319 321 321 322 322 321 322 321 320 323 324 324 324 327 326 326 324 323 324 325 325 325 325 324 325 324 323 318 316 315 313 312 313 313 313 314 315 315 316 317 317 316 315 314 314 312 311
322 321 321 322 323 323 320 323 320 321 321 323 323 323 324 325 327 326 326 323 323 323 325 325 324 324 323 324 324 322 318 316 316 315 314 314 315 316 317 318 319 319 319 319 318 317 317 315 313
322 323 324 325 324 322 321 318 318 320 322 322 323 323 324 325 326 326 326 325 324 324 324 325 325 324 323 323 324 323 321 318 316 317 316 318 318 319 320 320 320 320 321 321 321 320 320 319 318
324 323 323 323 323 319 319 319 319 321 323 323 322 322 323 325 325 326 327 326 326 326 326 326 325 325 326 324 323 323 324 321 318 317 318 319 320 320 321 321 322 322 322 322 322 322 322 321 321
323 320 318 319 321 318 320 319 317 323 321 321 321 321 321 324 325 326 326 326 327 326 326 327 327 327 327 327 326 324 322 321 320 319 320 319 319 320 321 322 322 323 323 323 323 323 323 323 323
318 318 320 318 318 319 320 320 318 321 320 320 320 320 321 322 322 322 322 323 323 323 324 325 327 328 328 328 327 327 325 323 321 320 320 321 323 323 324 324 325 325 325 325 325 324 324 324 324
318 320 318 317 316 318 318 318 317 319 319 320 318 319 319 319 319 319 319 319 319 320 321 322 323 326 328 328 328 327 327 326 325 324 324 323 324 326 328 328 329 330 330 330 329 329 328 327 327
322 320 317 317 316 317 317 317 317 318 318 316 316 318 318 318 318 317 318 318 318 318 318 320 322 324 326 328 328 328 328 328 327 327 327 327 328 329 330 331 331 332 331 331 331 331 330 330 329
319 317 317 315 314 315 315 316 316 316 317 313 316 318 319 317 317 317 318 318 318 318 318 319 320 321 322 325 328 328 328 328 328 328 328 329 329 331 332 332 332 331 331 331 331 331 331 330 330
318 318 318 316 316 316 317 316 315 314 313 313 316 318 319 317 317 317 318 317 317 318 318 319 319 319 320 322 326 327 328 328 328 329 330 331 331 332 332 331 330 330 330 330 330 329 330 330 330
319 318 317 317 317 316 317 318 317 315 316 316 317 318 319 318 317 317 317 317 317 317 317 317 318 319 320 322 325 327 328 329 330 329 327 327 326 326 326 326 326 327 327 327 328 328 329 328 328
328 316 317 317 318 320 316 320 316 314 316 315 316 318 319 318 318 317 317 317 317 317 316 316 317 317 317 317 319 320 321 321 319 318 318 319 321 322 321 321 321 322 323 324 325 325 326 327 328
320 316 316 317 317 316 317 318 317 314 316 315 313 316 318 318 318 317 317 317 317 316 316 315 315 315 315 315 315 315 315 315 315 315 315 315 315 314 314 314 313 313 313 314 315 316 318 322 326
317 316 314 313 314 318 316 317 318 315 316 315 314 315 318 318 317 317 317 317 316 316 315 315 315 315 315 314 314 314 314 314 314 313 313 313 313 313 312 312 311 310 309 308 308 309 311 312 313
315 316 320 321 320 320 314 316 319 315 313 315 314 315 318 318 317 317 317 317 316 316 315 315 315 315 314 313 312 312 311 311 310 310 310 309 309 309 309 309 309 308 307 306 306 305 305 305 305
314 317 319 323 321 319 313 316 317 313 312 317 318 317 317 317 317 317 317 316 316 316 315 315 315 314 314 311 308 308 308 308 309 309 308 308 308 308 308 307 307 306 305 305 304 304 304 304 304
315 317 315 320 317 319 318 316 315 314 313 314 315 316 317 317 317 316 316 316 316 315 315 315 315 314 313 310 307 307 308 308 308 308 308 308 307 307 307 306 305 304 303 302 302 302 302 303 304
315 313 318 315 324 323 318 317 319 318 316 314 313 315 317 317 317 317 316 316 315 315 315 314 314 314 312 308 306 307 307 307 307 307 307 306 306 304 303 301 300 299 298 298 299 299 300 301 304
313 313 312 314 315 319 319 318 313 315 314 315 314 317 318 316 317 316 316 316 315 315 314 314 314 312 310 306 306 307 307 306 306 305 304 302 300 298 295 294 293 293 293 293 295 297 298 304 304
314 314 312 315 317 312 312 316 311 312 311 315 316 317 317 317 317 316 316 315 315 314 314 313 311 310 307 306 306 306 306 305 303 301 298 295 293 292 292 292 292 291 291 291 292 292 296 298 295

GFSSGP_850_thetae_012.txt.gz
Theta_e
325 324 318 320 321 322 327 328 327 328 329 326 323 322 323 324 322 322 324 325 325 324 326 326 330 334 333 333 334 333 332 329 325 320 325 329 328 326 325 328 327 327 327 324 325 325 327 327 326
325 323 318 323 322 325 324 324 329 328 328 326 324 324 323 323 326 324 325 323 324 323 324 324 327 329 334 335 334 334 331 328 321 319 327 330 329 327 328 323 324 326 327 325 316 326 326 327 327
325 321 318 319 320 325 325 325 326 323 322 325 322 323 323 324 325 324 324 322 321 320 324 324 324 333 336 334 332 331 329 323 318 319 327 331 328 328 327 324 320 319 320 313 314 323 325 320 322
325 319 316 316 322 322 324 322 319 318 325 326 322 322 325 326 325 324 323 321 320 321 324 325 324 333 337 333 331 329 327 320 316 322 328 329 330 329 327 325 320 317 315 313 312 313 314 314 315
324 317 312 314 316 316 316 317 317 318 322 326 322 322 325 327 326 324 323 320 321 323 324 326 328 332 329 331 329 328 325 320 316 328 329 329 330 328 328 322 321 317 315 314 312 311 310 310 312
321 315 314 313 313 313 313 317 318 320 322 327 322 322 326 327 326 324 322 321 323 324 325 327 328 331 331 330 329 327 324 320 316 323 329 329 326 329 328 323 317 316 317 316 318 315 313 310 308
319 315 317 314 315 314 315 320 319 320 320 324 322 323 326 327 327 323 322 321 324 325 326 327 328 330 335 332 330 328 325 322 318 315 317 320 323 321 319 321 318 316 318 326 327 324 320 317 313
321 316 318 315 315 315 316 321 321 321 321 323 322 322 325 327 328 324 323 322 324 326 326 327 328 329 330 328 327 327 325 323 318 313 320 315 315 315 314 313 313 314 318 326 323 323 320 317 316
320 317 319 319 315 315 318 319 322 323 321 322 324 324 325 325 328 325 324 324 324 325 326 327 327 328 328 326 322 324 324 321 318 312 314 314 314 313 313 312 311 313 315 315 317 325 317 316 314
319 318 320 317 314 316 319 320 322 321 320 321 323 324 324 324 326 326 325 324 324 325 326 326 327 328 327 324 323 321 319 317 314 313 313 314 314 314 313 313 313 314 315 317 316 317 316 316 315
318 320 318 320 321 320 321 322 323 320 318 321 321 322 323 323 324 326 325 325 323 324 325 326 326 327 326 324 324 322 319 318 316 313 313 313 313 314 314 315 316 316 318 319 319 319 318 318 317
321 320 320 321 323 322 321 322 320 320 321 322 322 322 322 322 324 326 326 326 325 324 324 325 326 326 325 325 324 324 323 319 317 317 316 315 315 316 316 317 318 319 319 320 321 321 321 321 320
321 322 323 324 324 323 322 319 318 319 322 321 322 322 322 322 324 325 327 327 327 325 325 325 325 326 326 326 325 324 323 322 319 318 317 317 317 318 319 319 320 321 322 322 322 322 322 322 322
323 323 324 324 324 322 319 319 319 321 321 321 322 321 321 321 323 324 326 327 326 326 326 327 327 326 326 326 326 326 325 324 323 321 319 318 318 319 320 321 321 322 322 323 323 323 323 323 323
324 322 319 318 320 319 320 318 317 322 321 320 321 320 320 320 322 323 324 325 325 325 325 325 326 327 327 327 327 327 327 326 324 322 322 321 321 322 322 323 324 325 327 327 327 327 327 327 327
319 317 320 319 318 318 318 319 316 319 319 320 320 318 318 320 321 321 321 321 321 321 321 322 323 325 327 327 327 327 328 327 326 325 325 325 326 326 327 327 328 329 330 330 330 330 330 330 330
317 321 318 318 316 316 317 317 315 318 318 318 317 317 318 319 319 319 319 319 318 318 318 318 319 321 323 327 328 328 328 327 327 327 327 327 328 329 329 330 330 331 331 331 331 331 330 329 329
321 320 319 318 317 315 315 315 316 317 317 317 316 317 317 317 317 318 318 318 318 318 318 319 320 321 323 325 327 328 328 328 328 328 329 329 330 330 331 331 331 332 332 331 331 330 329 329 329
319 318 320 316 314 315 314 313 314 315 316 315 314 316 317 317 317 318 318 318 318 318 318 318 318 319 319 321 324 326 327 328 328 329 329 329 330 330 331 331 331 330 329 329 328 328 328 328 328
319 319 318 317 315 314 315 315 314 313 314 315 314 316 317 316 317 317 317 317 317 317 317 317 318 318 319 321 324 326 327 328 328 329 328 328 327 326 326 325 325 325 325 325 326 326 326 327 327
320 320 321 321 315 315 314 316 315 314 314 314 315 317 317 316 316 316 316 316 317 317 317 316 316 316 316 317 320 324 327 326 324 320 319 318 319 320 320 319 319 318 317 317 318 317 317 320 323
326 318 318 318 317 319 315 319 315 313 314 313 315 317 317 317 316 316 316 316 316 316 315 315 315 315 315 315 315 315 316 315 315 315 315 315 314 314 314 314 313 312 311 310 309 309 309 310 312
327 318 318 318 316 315 316 317 315 313 315 314 312 316 318 317 317 317 316 316 315 315 315 315 315 315 314 314 314 314 314 314 314 313 313 311 310 310 310 309 309 309 308 308 307 306 306 305 304
318 316 315 312 313 318 316 317 316 314 313 314 313 315 317 317 317 316 316 316 315 315 315 315 315 314 314 313 312 311 310 310 309 309 308 308 308 308 308 307 307 307 306 306 305 305 305 304 304
317 318 321 321 320 320 314 315 316 314 312 313 313 315 317 317 317 316 316 316 315 315 315 315 315 314 313 311 309 308 308 308 308 308 308 308 308 308 308 307 306 305 304 303 302 301 301 301 302
318 315 318 323 320 318 312 316 315 314 312 313 316 317 317 317 316 316 316 316 315 315 315 315 315 314 313 312 309 307 307 307 307 307 307 307 306 306 305 304 302 300 299 297 296 296 296 297 298
314 318 315 317 315 318 318 314 314 314 312 312 313 315 316 316 316 316 316 316 315 315 315 315 314 314 313 311 307 307 307 307 307 307 307 306 304 302 299 296 294 294 293 293 293 292 292 293 296
313 313 318 315 324 323 318 315 318 315 316 313 311 313 316 316 316 316 316 315 315 315 314 314 314 313 311 308 307 307 307 308 308 307 304 301 298 295 293 293 293 293 292 292 292 292 291 291 294
313 314 312 314 315 319 319 317 311 312 312 313 311 314 315 316 316 316 316 315 315 314 314 313 313 311 308 306 307 308 308 307 303 300 297 294 293 292 292 292 292 292 292 292 291 291 290 289 290
311 312 312 317 316 311 312 315 311 309 309 312 313 314 315 316 316 316 315 315 314 314 313 312 310 308 306 307 307 307 305 303 299 295 293 292 292 292 292 292 292 292 291 291 290 290 289 289 289

GFSSGP_850_thetae_015.txt.gz
Theta_e
324 325 319 320 326 326 328 330 327 329 330 327 326 322 324 323 324 329 324 324 324 321 323 325 332 338 335 338 334 333 332 330 326 320 325 328 328 327 326 328 328 327 326 324 322 326 327 328 326
324 324 318 323 326 328 327 325 329 327 323 322 323 323 323 325 325 325 325 323 323 320 321 323 330 334 332 333 333 333 332 329 324 318 327 329 329 328 326 324 323 325 327 319 312 325 324 327 326
325 324 318 322 323 327 327 326 326 321 322 321 323 322 322 324 325 325 324 322 321 320 322 322 325 329 333 335 333 330 330 326 320 316 328 330 329 328 328 325 318 316 318 316 314 315 324 325 323
325 320 316 319 322 324 325 324 319 318 324 325 322 322 323 325 325 324 323 322 321 322 323 323 323 331 335 335 333 330 328 323 315 319 328 331 331 329 326 318 317 317 316 314 312 312 313 316 319
325 317 316 316 317 317 318 317 317 320 320 323 324 324 324 326 326 325 323 321 322 323 324 324 325 334 337 331 329 328 326 321 316 325 327 328 331 330 326 321 319 318 317 315 314 313 311 311 314
323 316 320 321 315 314 314 316 317 319 320 323 321 321 324 326 326 325 323 321 323 325 325 325 326 334 328 329 328 327 325 323 319 317 330 329 331 328 328 324 322 318 317 319 320 321 318 315 312
321 320 322 317 318 317 315 319 319 319 319 322 322 323 324 327 327 325 323 321 323 325 325 325 326 329 333 333 331 329 327 325 322 317 318 326 326 321 324 322 321 320 320 327 327 327 326 324 323
320 318 318 317 319 319 315 319 321 321 321 322 321 323 324 324 325 327 323 322 323 326 326 326 326 327 328 329 328 328 327 326 325 321 316 319 319 316 318 319 319 321 316 319 326 326 326 325 324
319 321 322 321 317 320 316 321 322 323 321 321 322 323 325 323 323 326 325 323 323 325 327 326 326 326 326 327 326 325 325 324 322 319 315 317 317 317 316 315 314 314 314 316 319 323 324 325 324
319 322 322 319 316 317 318 320 322 322 320 321 321 322 321 322 322 324 326 325 324 325 326 327 327 326 325 325 324 323 322 321 319 316 314 314 315 315 314 314 315 315 315 317 318 319 319 319 318
318 322 319 320 320 319 319 321 322 320 322 321 321 321 322 322 322 322 324 326 325 324 324 325 327 326 325 325 325 324 324 320 318 317 315 313 314 314 314 315 316 317 318 319 319 320 321 321 321
321 319 320 321 322 322 321 322 321 321 322 322 322 321 321 322 322 322 324 326 326 327 325 324 325 326 326 326 325 324 324 324 320 318 318 317 317 316 316 317 318 319 320 321 322 322 322 323 323
320 321 321 322 323 322 322 321 321 321 325 324 321 321 321 321 321 321 324 325 327 327 327 326 326 326 326 327 326 325 325 324 324 322 319 318 318 319 319 320 321 321 322 323 323 324 324 324 324
322 323 323 323 324 322 320 321 320 324 323 323 322 321 321 321 321 321 324 325 326 326 326 326 326 326 327 326 326 327 327 326 325 324 324 324 323 322 322 322 323 324 326 326 327 328 328 329 328
323 323 320 320 321 320 319 320 318 322 319 319 320 320 319 318 319 321 322 323 324 324 324 323 323 325 326 327 327 327 327 328 327 326 327 327 327 327 327 326 327 328 329 330 330 330 330 330 330
322 319 326 321 317 318 318 325 319 318 316 318 318 318 317 318 319 320 321 321 321 320 319 319 319 321 324 326 327 327 328 328 328 328 329 329 329 329 329 329 329 330 330 331 331 331 330 329 328
318 326 320 322 318 319 318 320 317 317 318 317 317 317 318 318 318 318 318 318 318 318 318 318 320 320 321 325 327 328 328 328 328 329 329 329 329 329 329 329 330 330 330 331 330 330 329 329 327
323 322 318 321 318 315 316 317 316 315 316 317 317 316 317 317 317 318 318 318 318 318 318 318 319 320 323 325 326 327 327 328 328 328 328 328 329 329 329 330 330 330 329 327 326 326 326 326 326
317 320 324 320 315 315 316 315 317 316 315 314 313 315 316 317 317 317 318 318 318 318 318 318 318 319 321 321 324 325 326 327 328 328 329 328 328 327 326 324 323 323 322 322 321 321 321 322 321
319 321 319 318 315 315 317 318 317 315 315 315 314 315 316 316 316 316 316 316 317 316 316 316 316 316 317 318 322 325 327 327 325 323 322 320 319 318 317 316 315 314 313 313 312 310 310 310 310
320 320 319 323 317 315 315 318 316 314 313 312 313 316 316 316 316 315 316 316 316 315 315 315 315 315 315 315 317 320 320 318 315 314 314 314 314 314 314 313 312 310 309 308 308 307 306 305 306
326 319 320 320 323 325 315 323 317 316 314 313 313 315 316 316 316 316 316 315 315 315 315 315 315 315 314 314 314 314 314 314 314 314 313 311 309 308 308 308 308 307 307 307 307 306 306 305 304
325 321 322 321 320 315 316 319 319 312 315 315 313 315 316 316 316 316 315 315 315 315 315 315 315 314 313 313 312 312 311 310 309 308 308 308 308 308 308 308 307 306 305 304 302 302 301 300 300
314 316 316 314 316 320 317 319 320 317 315 313 312 315 316 316 316 316 315 315 315 315 315 314 314 313 312 311 310 309 308 308 308 308 309 309 309 310 309 308 306 303 301 298 296 295 294 294 294
318 324 326 323 322 323 313 316 319 314 313 314 314 314 316 316 316 315 315 315 315 315 314 314 314 313 312 312 310 308 308 308 308 308 309 309 310 309 307 303 300 297 295 294 294 294 293 293 293
323 323 323 325 323 320 312 319 318 312 313 313 314 316 316 316 316 315 315 315 315 314 314 314 314 313 313 311 309 307 307 308 308 309 309 307 305 302 298 296 294 294 294 294 293 293 293 292 291
319 323 316 317 314 319 319 317 316 314 313 311 312 314 316 316 316 315 315 315 314 314 314 313 313 313 312 310 308 307 308 309 309 308 306 303 299 297 295 294 293 293 293 293 292 292 292 292 291
318 316 323 316 324 324 320 316 321 316 313 313 311 312 315 316 316 315 315 314 314 314 313 312 312 312 310 308 307 308 309 308 307 305 302 299 296 293 292 292 292 292 292 292 292 292 292 291 290
315 317 314 316 316 322 320 319 312 313 311 312 312 313 316 315 315 315 314 314 313 313 312 312 311 309 308 307 307 308 307 306 304 301 298 294 292 291 291 291 291 291 292 292 291 291 290 290 289
313 315 314 319 317 311 314 319 310 309 308 309 312 314 315 315 315 315 314 314 313 312 312 311 310 307 306 307 308 307 305 303 299 296 293 292 291 290 290 291 291 291 291 291 290 290 289 288 288

GFSSGP_850_thetae_018.txt.gz
Theta_e
323 323 324 322 327 329 327 329 331 331 332 328 326 327 328 327 329 332 325 324 323 321 323 326 341 340 337 336 336 334 332 331 328 324 321 328 329 328 327 329 328 327 327 321 323 325 329 328 328
324 324 321 325 324 326 326 330 333 330 326 324 326 326 327 330 327 329 328 324 322 321 322 329 330 339 336 336 335 332 331 331 328 321 322 329 330 329 327 324 323 324 322 317 316 323 326 325 326
324 324 322 324 325 324 327 330 328 324 325 324 328 324 326 328 326 328 324 323 322 321 322 326 328 337 334 334 334 332 329 328 323 318 326 330 331 329 328 327 323 318 316 316 314 316 324 320 325
325 322 320 323 321 325 327 328 322 325 327 326 327 329 325 325 327 325 324 323 322 323 323 321 323 329 333 335 335 333 329 326 319 316 328 330 332 330 329 323 319 319 318 316 313 312 315 325 321
324 321 326 324 324 320 321 321 321 324 325 326 326 331 328 325 326 325 324 322 323 324 324 323 323 332 335 335 333 330 326 323 317 322 327 329 331 332 330 327 325 322 318 318 315 315 314 311 312
325 322 326 328 327 324 323 319 322 324 324 326 326 325 328 327 327 326 324 322 324 326 325 326 325 333 337 331 328 328 325 322 319 318 328 330 330 332 330 328 327 324 321 321 326 324 324 322 321
326 326 327 327 326 326 321 320 322 323 325 326 323 327 327 328 324 327 325 322 323 326 326 327 328 332 331 330 334 329 326 324 323 318 320 328 328 326 324 326 325 323 324 324 324 326 326 326 326
324 325 326 325 327 327 321 320 324 323 324 323 322 327 328 327 322 326 326 323 322 326 327 329 332 335 338 338 333 334 329 326 325 322 317 317 320 323 317 318 318 315 316 315 316 321 326 325 325
321 326 326 326 325 326 320 325 325 324 323 323 323 324 325 322 322 322 327 325 323 324 326 327 329 333 337 338 336 328 325 323 322 321 317 314 324 328 320 317 316 315 315 315 316 317 319 319 320
325 327 326 325 325 325 324 324 325 325 325 324 323 323 322 322 324 326 329 331 326 324 325 326 327 328 334 335 335 333 334 332 332 331 329 327 327 327 317 316 316 316 317 318 319 319 320 321 325
325 327 326 324 323 322 324 325 325 326 327 325 323 323 323 322 322 323 325 327 330 328 325 324 325 327 330 334 334 336 334 332 331 326 324 323 318 320 318 317 317 318 319 320 321 322 323 324 325
326 325 325 325 323 324 325 325 326 326 326 326 325 325 322 321 322 322 323 325 328 326 327 326 325 325 327 331 330 334 330 326 327 323 320 320 320 320 320 320 320 320 322 323 323 324 325 326 326
326 325 324 324 323 324 324 325 327 326 326 326 325 323 321 321 321 321 321 323 326 327 327 327 326 325 326 327 329 329 330 327 327 325 324 324 323 322 322 323 324 323 325 326 327 327 328 328 328
325 325 325 325 325 325 325 326 324 325 325 325 323 322 321 320 320 321 321 323 325 326 326 326 326 326 326 327 327 329 329 329 328 327 327 327 327 327 327 327 327 327 328 328 329 330 330 330 329
326 327 326 326 325 326 324 326 326 324 321 319 320 320 318 319 319 319 320 322 324 324 324 323 322 322 325 327 329 329 329 329 329 328 328 328 328 328 328 329 329 329 329 329 330 330 329 329 329
327 327 330 326 326 325 323 328 326 322 320 321 319 318 319 318 318 319 320 320 320 320 320 319 318 319 320 326 328 329 329 329 329 329 329 329 329 329 329 329 329 329 330 330 330 327 328 328 328
327 330 329 327 325 326 324 326 324 319 320 320 321 319 319 319 318 318 318 318 318 318 318 319 320 320 320 325 328 328 328 329 329 329 329 329 329 329 329 329 330 330 329 328 326 325 324 323 324
328 328 326 327 326 322 325 325 323 322 320 321 321 319 320 319 318 318 318 318 318 319 319 319 320 323 323 325 327 328 328 328 328 328 328 329 329 328 327 326 324 322 321 320 318 318 319 320 320
325 325 326 326 325 322 325 326 324 323 323 321 320 319 319 319 317 318 318 319 319 318 318 319 320 322 323 326 327 327 327 327 327 326 325 323 321 319 317 315 314 313 313 312 311 311 310 312 313
325 325 326 325 321 321 325 326 326 325 323 321 321 319 319 318 317 317 317 317 316 316 315 316 316 316 319 322 325 326 325 324 321 318 315 314 314 313 312 310 309 308 308 308 308 307 307 309 309
326 325 325 326 322 324 323 327 326 321 318 316 316 319 319 318 317 316 316 315 315 315 315 315 315 315 315 317 318 318 317 315 314 314 313 311 309 308 308 309 309 309 308 306 305 304 304 306 306
328 324 325 326 329 331 323 330 327 324 322 318 317 318 318 318 317 316 316 315 315 315 315 315 315 314 314 314 314 314 314 312 310 309 308 308 309 310 310 309 308 306 303 301 299 298 297 301 303
324 325 325 327 328 325 328 327 327 320 322 320 319 319 318 317 317 316 316 315 315 315 315 314 314 314 313 312 311 310 309 308 308 308 309 309 310 310 309 306 304 301 298 296 295 294 294 298 299
323 324 322 320 321 330 327 325 327 323 321 319 318 319 318 317 316 316 315 315 315 314 314 314 314 313 311 311 310 309 308 308 308 309 310 310 308 306 305 303 300 297 295 294 294 294 294 294 293
324 326 331 331 330 329 319 322 326 321 319 319 319 319 317 317 316 315 315 315 314 314 314 314 313 313 312 312 310 309 309 309 310 310 309 308 307 305 303 300 296 294 294 294 293 293 293 293 293
324 327 329 330 330 328 317 325 323 318 317 316 318 319 318 317 317 316 315 315 314 314 314 313 313 313 311 311 310 309 309 310 309 309 308 306 304 301 298 295 293 293 293 293 293 293 292 293 293
324 327 321 322 320 324 324 323 321 318 318 316 316 318 318 317 317 316 315 314 314 314 313 313 313 312 310 309 308 308 309 309 309 307 305 303 301 296 294 293 292 292 292 292 292 292 292 292 292
324 323 326 323 327 327 325 324 325 321 319 317 317 318 318 317 316 315 314 314 313 313 313 312 311 310 308 307 308 308 309 308 306 304 302 299 295 293 292 292 292 292 292 292 291 291 291 290 291
322 323 322 321 323 327 326 325 320 319 318 317 318 318 318 317 316 315 313 313 313 313 312 311 310 308 307 307 308 308 307 305 303 301 298 294 293 291 291 291 291 291 291 291 290 290 289 290 290
323 324 326 327 324 321 322 324 316 317 315 315 317 317 317 317 316 314 313 313 313 312 311 310 308 307 306 308 307 306 305 303 301 297 295 292 291 290 290 290 290 291 290 290 289 288 289 289 290

GFSSGP_850_thetae_021.txt.gz
Theta_e
323 326 323 325 326 326 327 328 332 335 334 329 329 330 332 330 332 333 332 334 326 335 335 325 337 342 340 336 336 335 332 330 329 325 322 327 328 328 326 327 328 327 328 323 323 325 328 329 328
323 324 324 324 323 326 325 327 331 332 330 327 328 329 330 331 329 333 335 330 326 334 336 336 340 340 338 336 336 334 331 329 328 323 319 328 330 330 328 327 324 324 325 320 319 324 327 328 327
324 323 324 327 325 323 327 329 330 329 328 328 330 328 329 330 329 331 331 326 327 334 335 341 331 339 338 336 335 333 330 329 326 318 324 329 331 331 329 328 323 321 319 317 316 316 324 325 322
325 325 324 327 328 324 325 329 327 326 329 328 330 331 328 329 331 333 331 330 335 335 336 326 324 337 337 333 334 334 332 327 322 314 328 329 331 331 330 329 327 323 320 317 315 312 312 314 313
326 324 326 329 329 325 321 324 323 326 327 328 329 332 331 330 331 332 334 332 335 336 337 323 322 331 333 337 335 332 331 324 317 318 328 329 331 334 331 329 327 325 321 317 317 315 317 316 314
326 325 327 327 329 328 326 322 323 326 328 327 328 328 331 330 333 333 334 334 335 336 337 332 323 330 335 336 334 331 329 323 318 316 324 328 330 331 332 330 328 325 320 321 315 323 324 325 323
326 327 328 327 327 329 328 321 323 325 326 328 326 328 330 329 329 330 335 334 335 337 337 336 326 328 334 333 334 332 329 324 322 316 316 328 327 330 330 323 322 317 317 319 315 318 326 324 324
326 327 328 327 327 327 327 322 321 325 326 325 325 329 330 329 327 328 335 335 335 336 337 337 337 335 338 333 332 334 332 327 324 321 318 315 315 318 319 316 315 314 314 314 315 316 317 320 320
325 327 328 327 327 326 325 325 325 326 325 325 325 326 326 324 328 331 333 334 335 336 337 337 337 338 340 340 340 333 327 328 324 319 319 315 317 330 329 327 316 315 316 317 317 318 319 320 320
327 327 327 326 326 326 326 326 327 327 327 327 327 325 325 325 324 325 328 331 334 335 336 337 337 338 339 339 338 336 337 334 332 333 332 331 328 329 326 318 315 316 317 318 320 321 321 322 324
328 328 327 326 326 325 325 326 326 327 328 327 327 326 326 326 324 324 325 327 330 333 334 335 337 338 338 339 338 338 337 336 334 333 332 330 327 326 327 327 325 321 323 322 324 324 326 327 328
328 326 326 326 326 325 326 325 326 327 327 327 327 327 327 326 323 324 324 325 329 331 332 333 334 337 337 338 338 338 337 336 335 333 332 331 330 329 328 328 328 327 327 328 328 328 328 329 329
328 327 326 325 325 325 325 325 326 326 327 327 327 327 327 326 324 323 323 327 329 331 332 332 333 335 336 337 338 338 337 336 335 334 333 332 331 330 329 329 329 329 329 329 329 329 330 330 330
327 326 326 326 326 325 326 326 326 326 326 326 326 326 324 325 323 322 325 328 330 331 332 332 332 332 334 336 337 337 337 336 335 334 334 333 332 332 331 331 331 331 331 330 330 330 331 330 330
327 328 326 326 326 326 326 327 327 325 326 324 321 321 322 322 322 323 323 323 323 325 324 324 324 326 331 334 336 337 337 336 335 335 334 332 331 331 331 331 331 332 331 330 330 330 330 329 329
326 329 330 326 326 326 326 329 326 326 325 323 322 321 322 322 321 322 321 322 321 321 321 320 319 319 324 333 335 336 336 335 335 334 333 332 332 331 330 331 331 331 329 329 328 327 327 326 325
328 331 330 328 326 326 327 328 326 325 324 323 323 322 322 322 321 321 320 321 321 322 324 319 321 323 325 333 334 334 333 332 331 331 331 330 330 329 329 330 328 324 325 323 322 319 319 319 318
328 330 329 330 326 327 327 327 326 325 324 324 323 322 322 322 321 320 320 321 322 324 325 324 324 325 329 331 331 331 331 330 327 325 325 324 323 323 321 317 314 312 313 313 310 311 311 311 312
326 327 327 328 326 327 327 326 325 324 324 325 324 323 322 322 320 320 320 321 321 324 327 329 330 331 331 332 332 328 324 322 324 324 321 317 314 313 311 309 309 309 310 310 309 309 309 309 309
325 327 328 326 326 326 326 325 326 326 325 326 325 323 322 321 320 319 319 319 319 319 320 323 327 330 331 327 325 322 320 319 317 315 314 312 309 309 309 310 310 310 310 308 307 305 305 305 305
326 328 326 326 326 324 325 327 327 326 326 326 323 323 322 321 320 319 319 319 319 317 316 316 316 317 318 319 318 317 316 315 313 311 309 309 309 310 311 310 308 306 305 303 301 300 299 300 300
329 325 325 325 328 329 327 329 328 327 325 322 321 322 322 321 319 319 319 319 318 316 315 315 315 315 316 317 317 317 314 311 309 309 309 310 311 310 308 307 306 304 302 299 297 296 296 298 300
326 325 324 326 327 329 329 330 328 327 325 324 322 321 321 320 319 319 319 318 317 315 315 314 314 313 313 312 311 311 310 309 309 309 310 309 308 308 308 305 303 301 298 296 295 294 294 295 298
324 324 325 325 327 330 328 329 328 327 325 324 322 321 321 319 319 319 318 317 316 314 314 313 313 312 312 311 311 310 309 309 310 310 309 308 307 307 306 303 300 297 295 294 294 294 294 294 294
325 327 331 330 330 329 326 329 328 322 321 322 321 321 320 319 319 318 317 317 316 315 313 312 312 312 312 311 311 310 310 310 310 310 310 309 307 306 305 302 298 295 294 293 293 293 293 293 293
327 326 326 330 328 327 322 325 326 321 320 320 321 321 320 319 318 317 317 317 317 315 313 312 312 312 311 310 310 309 310 310 310 310 309 307 306 303 301 298 295 293 293 293 292 292 292 293 293
326 327 324 326 325 329 326 325 321 321 320 319 320 321 320 319 318 318 318 317 316 314 313 312 313 312 311 310 309 309 309 309 309 308 307 305 302 300 297 294 293 292 292 292 292 292 292 291 291
325 324 328 325 328 328 327 326 326 322 322 320 319 321 320 319 319 318 317 317 315 313 312 312 311 311 310 308 308 308 309 308 307 305 303 301 298 296 293 292 291 291 292 292 292 291 291 290 290
325 327 327 326 326 329 328 326 324 322 321 321 320 321 320 319 319 317 317 316 313 311 311 311 311 310 308 307 308 308 307 306 304 302 300 297 293 291 291 291 291 292 292 292 290 290 289 289 290
325 326 326 328 327 325 325 325 320 320 320 319 320 319 320 319 318 317 316 315 312 311 309 308 308 307 306 307 307 307 305 304 301 299 296 292 291 291 291 291 292 292 291 290 289 289 289 288 289

GFSSGP_850_thetae_024.txt.gz
Theta_e
321 322 324 325 328 327 327 326 326 334 333 329 328 328 328 330 330 335 334 332 335 333 326 324 338 340 339 336 336 334 330 327 328 325 319 326 328 327 326 324 326 327 327 323 321 325 328 330 330
322 322 324 325 324 324 326 323 331 331 329 328 329 329 329 330 332 333 337 331 335 333 330 324 339 342 338 336 337 335 328 328 327 322 319 328 329 329 328 326 323 320 319 318 317 323 325 328 328
324 325 324 328 328 323 324 328 327 325 327 329 330 330 328 329 331 334 335 327 333 331 336 336 336 340 338 336 335 334 330 329 324 317 324 329 330 330 329 328 324 321 319 316 314 315 322 325 326
326 324 325 325 327 328 324 324 326 324 326 329 329 329 330 330 333 334 333 332 335 334 336 334 331 337 338 334 335 333 330 328 321 314 326 329 331 332 329 330 327 323 321 316 314 312 311 314 315
326 326 326 327 327 327 323 321 324 324 326 328 328 329 331 331 332 334 334 335 336 336 336 327 322 334 336 334 335 332 331 326 318 316 327 328 330 333 331 330 327 326 322 316 312 312 314 314 313
326 326 326 327 326 326 325 325 322 322 326 328 327 326 330 330 332 330 333 334 336 336 334 324 321 328 333 335 334 331 329 324 319 316 325 328 329 329 333 330 326 320 315 313 313 313 316 318 317
327 326 327 326 325 325 328 322 321 322 325 326 326 326 329 329 325 333 335 334 336 336 334 328 323 325 331 336 331 330 325 322 320 316 315 323 326 328 330 325 315 313 312 313 314 315 316 318 319
327 326 327 326 327 327 326 324 321 322 325 325 326 326 328 327 325 326 333 335 336 337 336 334 330 327 327 327 323 324 318 322 319 317 315 314 314 317 318 316 314 314 314 315 316 317 318 318 319
328 328 329 327 327 327 325 325 325 325 326 326 326 325 326 325 326 328 331 334 335 336 337 337 337 336 335 337 338 337 330 317 316 315 315 318 315 325 329 326 319 315 316 317 318 319 320 320 321
328 329 328 325 325 325 326 325 326 327 327 326 327 327 326 325 325 325 326 330 333 335 336 337 337 338 340 340 339 336 330 333 329 330 330 330 328 329 329 327 318 317 317 319 320 321 322 323 323
329 329 327 325 325 326 326 325 325 326 327 327 327 328 328 327 327 325 324 325 328 332 335 335 337 338 338 339 338 338 337 336 335 334 333 331 329 325 326 326 325 324 321 321 322 322 323 325 326
329 327 327 326 326 327 325 325 325 325 326 327 327 327 327 327 327 325 324 324 326 331 333 335 335 337 337 339 339 338 337 336 335 334 332 332 330 329 327 328 328 328 328 326 327 328 328 329 329
328 327 327 326 325 326 326 325 325 325 325 325 326 327 327 327 327 325 323 323 327 330 332 332 333 335 337 338 338 337 337 336 335 334 334 332 331 329 329 329 329 328 329 330 330 330 330 330 330
327 328 328 327 326 325 325 325 325 325 325 325 326 326 325 325 325 324 323 325 329 330 332 332 332 333 335 336 337 338 337 337 336 334 334 333 331 331 330 329 331 331 331 331 330 330 329 329 329
322 325 328 327 326 325 326 325 325 326 326 325 325 325 322 322 323 323 323 326 326 329 331 332 332 332 332 334 336 337 337 336 335 335 334 333 332 331 331 331 331 330 330 329 328 328 328 327 325
324 324 328 327 327 325 325 327 326 326 326 325 325 323 321 322 322 322 322 322 322 324 323 324 323 323 329 333 336 337 336 335 334 333 332 332 331 330 330 329 330 328 328 326 325 323 321 317 316
324 327 326 328 326 325 325 326 325 326 325 325 324 323 321 323 322 322 321 322 323 324 325 321 320 320 324 333 335 335 335 334 332 331 330 330 329 328 330 329 324 319 319 316 313 310 310 310 310
325 327 326 328 328 326 326 325 325 326 325 324 323 323 322 323 322 321 321 322 324 326 326 323 324 325 330 334 335 333 332 331 330 330 328 326 322 321 318 313 310 310 310 310 310 310 309 308 306
321 323 326 325 326 326 326 325 325 325 325 324 324 324 323 323 321 320 321 323 327 329 329 327 327 328 330 331 331 331 330 327 325 323 319 315 312 310 309 311 311 311 309 307 307 305 304 304 302
320 324 326 326 325 326 325 326 325 323 323 324 324 324 323 322 320 320 321 321 324 329 330 331 332 332 332 331 329 325 323 321 317 314 312 309 310 310 311 311 309 308 307 307 305 301 300 298 298
318 323 325 324 325 325 324 325 323 322 323 324 325 325 323 322 320 320 319 319 320 323 324 329 330 329 329 326 323 320 316 314 312 309 309 310 311 311 310 309 309 308 306 304 300 298 296 296 296
319 319 324 325 327 329 323 326 323 323 323 323 325 325 322 320 320 319 319 319 318 318 318 318 318 318 318 317 316 315 314 310 309 309 310 311 311 310 310 309 307 305 303 301 298 296 295 295 294
318 320 323 325 327 328 329 329 326 324 324 324 318 322 321 320 319 319 319 319 318 317 316 316 316 317 318 318 315 311 310 309 310 310 310 309 309 310 309 307 305 303 301 298 296 295 294 294 293
314 319 322 326 327 330 326 329 326 325 323 320 318 321 321 320 319 319 319 318 317 316 315 314 313 313 312 312 311 310 310 310 310 309 309 308 308 308 307 306 304 301 298 296 294 294 293 293 293
316 321 324 330 332 331 325 326 326 320 320 321 319 321 321 319 319 319 318 318 316 314 313 312 311 311 311 311 310 310 310 310 310 310 310 309 308 307 306 304 300 297 295 294 293 293 293 293 293
319 317 327 331 329 324 323 327 324 319 319 321 321 321 320 319 319 318 318 317 316 314 312 312 312 311 311 311 310 310 310 310 310 310 309 308 307 305 303 300 296 294 293 293 293 293 293 292 292
318 317 321 326 321 325 323 323 318 318 318 318 320 320 320 319 319 318 317 317 316 314 312 312 311 311 310 310 310 310 310 310 310 309 308 306 304 301 298 295 293 293 292 292 292 292 292 291 290
322 322 327 325 327 330 325 324 322 319 318 317 319 319 319 319 318 318 317 317 315 313 313 311 311 311 310 309 309 309 309 309 308 307 306 303 300 296 294 293 292 292 292 292 292 292 291 290 289
324 327 325 325 326 329 325 323 319 318 318 317 317 320 319 319 318 318 317 316 314 313 312 311 311 310 309 308 308 308 308 307 306 305 303 301 297 293 292 292 291 292 292 292 292 291 290 289 288
324 325 325 325 328 325 322 321 318 317 317 317 317 320 320 319 318 318 317 316 314 312 310 310 309 308 308 308 308 308 307 305 304 303 301 297 294 292 291 291 292 292 292 292 290 289 288 287 288

GFSSGP_850_thetae_027.txt.gz
Theta_e
321 321 323 324 320 320 324 325 322 330 329 327 328 327 326 327 328 333 336 336 329 329 325 326 340 338 336 337 335 333 330 325 325 321 317 326 326 326 326 324 323 326 323 318 319 324 325 330 330
321 321 324 324 320 319 320 322 324 323 326 328 329 329 327 328 332 335 336 331 333 329 325 326 338 339 337 335 335 333 329 325 323 319 318 328 329 328 327 324 318 317 317 315 313 319 322 323 328
322 322 325 322 323 323 319 323 323 324 326 328 329 329 328 330 335 335 335 330 332 329 330 325 339 339 338 335 335 332 330 325 319 315 324 328 330 330 327 328 325 319 317 314 312 312 316 319 321
325 324 325 321 322 323 323 318 323 323 325 327 328 327 331 331 332 334 330 331 332 331 331 329 330 336 336 336 335 334 328 326 316 312 327 329 331 331 329 328 324 319 315 312 311 311 310 310 312
326 326 322 323 323 322 321 320 323 322 324 327 327 327 330 332 332 333 331 335 334 333 334 330 324 333 336 334 334 333 328 324 316 315 322 325 329 332 330 329 323 321 314 312 311 312 312 313 314
327 324 322 323 322 322 321 323 321 321 322 324 326 326 329 333 333 335 333 335 335 334 334 327 321 328 333 332 334 332 329 323 317 314 319 323 327 329 331 330 326 316 313 312 313 314 315 316 316
326 322 323 323 323 323 324 321 319 320 323 324 325 325 328 328 327 334 333 335 335 335 331 328 322 324 329 333 333 329 328 322 319 315 314 316 320 324 327 327 316 314 313 314 315 316 317 317 318
329 321 325 322 324 324 324 322 320 321 323 325 325 324 327 327 325 329 334 335 334 335 333 332 326 325 327 329 325 324 324 320 319 316 314 313 314 316 317 317 316 316 315 316 317 318 318 319 319
330 325 327 326 324 324 324 323 324 324 325 325 325 326 325 325 325 326 328 331 333 335 333 334 334 331 330 329 331 337 333 322 317 316 316 322 317 324 327 323 320 317 316 317 318 319 320 321 323
327 326 328 324 322 322 323 323 325 326 326 326 326 326 325 325 325 326 326 327 330 332 332 333 335 335 334 338 338 338 334 331 328 330 328 327 327 326 328 326 322 321 321 321 321 323 323 324 325
328 330 326 325 325 325 323 324 324 324 324 326 326 326 327 327 327 326 325 324 325 328 333 333 334 336 335 335 339 337 336 334 333 332 332 331 329 328 326 325 325 326 325 324 324 325 326 327 328
327 328 328 326 326 326 324 325 324 324 324 325 325 326 326 327 327 327 326 324 325 328 331 333 334 335 337 338 338 336 337 336 335 334 333 332 331 329 328 328 327 327 327 328 329 329 329 329 329
324 324 327 327 327 326 325 324 324 324 325 325 324 325 326 326 326 327 326 323 323 327 332 333 334 334 337 337 338 338 337 337 336 334 333 332 330 330 328 329 329 329 330 330 329 329 329 328 328
320 323 324 327 327 325 324 323 324 325 325 325 325 325 325 326 325 326 326 324 324 326 332 332 332 332 336 336 338 338 337 336 335 334 333 333 332 330 330 330 329 330 330 329 329 329 328 328 328
320 322 320 321 326 326 326 324 323 325 325 325 325 325 325 325 322 324 325 324 324 330 331 331 332 332 334 336 336 337 336 336 334 334 332 332 332 330 330 330 329 329 328 328 328 328 327 323 315
320 321 323 321 323 325 325 327 323 325 325 325 325 325 325 322 322 322 323 323 324 328 331 332 332 332 332 334 336 337 335 336 334 333 332 331 330 329 329 328 328 327 327 326 323 316 311 311 311
319 322 323 323 323 325 325 326 323 324 325 324 324 324 324 321 321 321 321 321 321 322 324 326 326 327 331 332 337 335 335 334 333 332 330 329 328 328 327 326 325 320 314 311 311 311 310 308 307
318 320 321 323 322 323 326 326 321 324 324 323 324 324 322 322 322 321 321 320 321 323 324 323 321 320 328 332 336 334 334 333 331 330 328 328 326 325 320 312 310 311 311 310 308 308 307 304 303
315 317 319 321 322 324 324 325 324 323 324 321 324 322 320 322 321 321 320 321 325 326 325 325 325 326 329 333 335 334 334 332 330 329 325 317 312 309 310 311 310 309 309 308 307 306 304 303 301
316 317 318 320 322 323 325 325 324 323 322 323 323 324 321 321 321 320 320 324 328 329 329 328 329 331 332 333 334 333 331 328 324 317 311 309 310 311 310 310 309 308 308 306 304 302 300 299 296
316 317 317 319 321 321 323 326 324 322 322 323 323 325 321 321 320 320 321 324 329 330 331 331 331 331 330 330 330 326 323 317 313 309 309 310 311 310 310 310 309 308 306 304 301 298 296 296 296
316 314 315 317 322 325 324 331 322 322 321 318 320 321 321 320 320 320 320 321 326 330 330 331 331 331 330 327 322 318 314 312 309 310 311 310 311 311 310 310 309 307 304 300 298 296 295 294 294
314 314 315 317 320 324 325 328 323 320 321 321 320 319 319 320 320 319 319 319 321 321 325 327 325 324 321 317 315 313 310 310 310 310 310 311 310 310 309 308 306 303 300 298 296 295 294 293 293
313 313 315 317 320 325 324 328 324 323 322 320 318 319 318 319 319 319 319 318 318 318 318 318 317 317 317 317 314 310 310 310 311 310 309 309 309 308 308 306 303 300 297 295 294 293 293 293 293
313 314 316 318 321 323 322 326 326 320 316 319 316 317 317 319 319 319 319 318 317 317 317 316 316 316 315 312 310 310 310 310 310 310 309 308 308 308 306 302 299 296 294 293 293 293 293 293 293
313 313 314 317 321 321 325 327 322 323 316 318 318 317 318 318 319 319 318 317 316 314 314 313 312 311 311 310 310 310 310 310 310 309 309 308 307 305 302 298 296 294 293 293 293 293 293 292 292
313 314 312 319 319 325 325 320 317 316 315 317 317 317 317 318 319 319 318 317 315 313 312 311 311 310 310 310 310 310 310 309 309 308 308 307 305 302 299 296 294 293 292 292 292 292 292 291 290
315 314 315 317 322 329 323 319 318 317 316 317 317 316 317 317 318 318 317 316 314 312 312 311 310 310 310 309 309 309 309 309 308 307 307 306 303 299 296 294 292 292 292 292 292 291 290 289 289
316 318 316 318 318 326 324 322 315 316 316 318 317 316 317 317 318 318 317 316 314 312 312 311 310 310 309 308 308 308 309 308 307 307 306 304 300 296 293 292 292 292 292 292 291 290 289 288 288
318 319 318 317 324 323 319 318 314 314 314 316 316 317 317 318 318 317 317 316 314 313 312 311 309 308 308 307 308 308 307 306 306 306 303 299 296 293 291 291 291 292 292 290 289 288 288 287 287

GFSSGP_850_thetae_030.txt.gz
Theta_e
322 321 322 324 320 319 322 324 320 324 327 327 327 327 326 326 327 329 335 336 332 332 328 327 337 337 336 336 334 330 328 321 320 317 315 320 322 324 323 324 321 323 316 315 320 325 325 330 329
323 321 323 323 320 319 319 320 325 323 324 326 327 326 326 330 333 333 334 331 331 328 323 328 337 337 336 335 335 332 327 321 319 317 317 328 329 327 325 320 317 316 315 313 312 318 321 324 324
323 323 323 319 319 321 319 320 322 324 326 327 328 328 328 330 335 334 335 330 331 328 324 328 337 338 337 336 335 331 329 321 317 314 321 328 330 329 325 325 321 317 316 313 312 312 315 317 320
325 325 322 321 321 321 322 320 320 322 324 327 327 327 330 331 333 333 330 328 331 329 326 326 338 338 340 336 335 332 332 324 315 313 326 328 330 330 329 324 321 320 316 313 312 312 311 311 312
326 325 321 322 321 320 320 321 320 321 323 324 325 326 330 332 331 331 329 331 333 331 333 330 333 336 338 336 335 333 330 324 315 314 323 329 330 331 330 328 323 317 312 312 312 312 313 314 315
327 322 321 322 320 320 319 323 319 320 321 324 324 327 329 332 334 333 333 334 335 333 334 334 329 333 337 335 332 333 329 324 318 315 321 324 328 331 331 330 326 315 313 313 314 315 316 316 318
325 320 322 321 321 321 322 325 318 319 322 324 324 326 328 328 328 332 334 335 335 335 334 332 324 328 335 333 331 333 327 324 319 316 316 318 323 326 327 325 317 314 314 315 316 317 317 318 318
328 321 324 321 324 324 323 323 320 321 321 324 325 325 327 329 327 332 332 333 335 334 335 331 324 324 327 329 331 328 324 323 321 318 315 314 315 317 318 319 318 317 316 316 317 318 319 320 321
329 325 325 325 323 323 323 322 324 322 323 324 325 325 325 327 328 334 333 334 334 333 332 331 330 325 326 328 327 329 332 329 321 318 318 320 317 320 325 323 322 319 319 319 320 321 322 323 324
327 327 327 322 322 322 322 322 323 325 325 325 326 325 325 325 327 330 329 329 329 330 331 331 331 332 332 333 333 336 335 329 326 327 326 327 326 325 324 324 323 323 324 323 323 323 324 325 326
327 329 325 325 325 325 323 323 325 323 323 325 326 325 325 325 326 326 326 327 325 325 330 332 332 332 333 333 336 337 335 333 332 331 331 330 328 327 325 324 324 325 325 326 326 328 328 329 328
323 326 327 327 327 326 324 325 323 323 323 325 325 325 325 325 325 326 326 326 324 324 328 331 333 333 333 335 336 337 336 336 334 333 332 332 330 329 328 327 327 327 328 329 329 329 329 328 328
319 321 324 326 327 327 326 324 323 323 324 324 324 324 325 325 325 326 326 326 324 324 327 330 333 333 333 335 336 338 337 336 336 334 333 332 331 330 329 328 328 329 329 329 328 328 327 327 327
318 318 320 323 323 325 325 325 324 324 324 324 325 324 324 323 325 325 325 326 326 323 324 331 333 334 334 336 337 338 337 336 335 334 332 332 332 331 330 330 330 328 329 328 328 327 327 327 325
318 319 318 319 319 321 325 326 326 325 324 324 325 325 324 324 324 325 325 324 326 324 323 330 334 334 336 337 337 338 336 335 335 333 333 331 331 331 331 330 328 328 327 327 327 326 326 324 314
319 318 321 319 319 321 324 328 324 326 324 323 324 325 324 325 325 325 323 324 324 324 324 330 334 334 334 336 337 337 335 334 334 334 332 331 330 328 328 328 326 326 325 325 324 313 311 311 310
317 318 319 321 319 322 323 326 324 326 323 323 324 325 325 324 323 322 322 322 323 324 329 331 332 332 332 334 336 337 335 334 334 332 332 330 328 328 326 325 325 321 313 311 310 309 309 308 307
317 316 317 319 320 320 322 324 323 324 322 322 324 325 324 323 322 322 321 321 321 321 323 326 328 330 331 332 335 337 334 333 333 332 330 329 328 326 324 314 310 310 310 309 308 308 306 304 303
314 314 315 316 317 319 321 322 321 322 323 320 321 323 323 323 321 321 321 321 320 321 322 323 323 323 324 331 334 336 333 332 331 330 329 328 321 311 310 310 310 309 309 308 307 305 303 301 300
315 316 316 314 315 318 320 321 321 321 322 322 322 322 323 320 320 321 321 320 321 322 324 324 323 321 326 330 335 335 333 332 330 329 323 311 310 310 310 310 310 309 309 307 304 302 300 298 296
313 316 315 315 315 314 315 319 321 321 322 322 322 323 322 321 321 321 321 321 324 325 325 327 328 331 332 333 334 333 332 331 327 316 310 310 310 311 310 310 310 309 306 303 301 298 297 296 294
314 313 315 314 315 316 319 324 321 321 322 321 322 321 321 320 321 321 321 324 327 327 328 328 330 331 332 332 332 332 330 324 313 309 310 311 310 310 310 310 309 306 302 300 297 295 294 294 293
313 312 313 315 315 316 315 319 321 321 322 322 320 320 321 321 321 321 321 325 328 328 329 330 330 330 330 328 324 323 317 311 310 310 310 310 310 310 310 308 305 301 299 297 295 294 293 293 293
313 313 314 314 316 320 315 318 319 322 321 320 320 318 319 318 320 321 322 325 329 329 330 329 330 329 327 321 316 314 311 310 311 310 310 310 310 309 308 305 301 298 296 295 293 293 292 293 293
311 313 315 316 316 315 313 318 317 319 319 319 319 318 318 318 319 320 321 323 324 326 328 327 327 323 317 315 313 310 310 310 310 310 310 310 309 308 305 302 299 296 294 293 292 292 293 293 292
312 312 315 313 311 312 320 322 320 318 318 319 318 318 316 317 318 319 319 320 320 319 320 319 317 317 316 315 311 309 310 309 309 310 309 308 308 306 302 299 296 294 293 292 292 292 292 292 291
311 313 311 313 315 318 319 320 319 318 315 314 315 315 316 317 318 318 318 318 318 317 317 317 317 316 314 311 310 309 309 309 310 309 308 308 306 304 300 297 295 293 292 292 292 292 291 290 290
311 310 312 313 311 318 322 320 316 317 315 314 315 315 316 316 317 318 317 317 316 316 315 314 313 312 310 309 309 309 309 309 309 308 307 306 304 301 297 295 292 292 292 292 292 291 290 289 288
312 311 312 311 313 319 326 324 317 318 316 315 315 316 316 316 317 318 317 316 314 313 312 310 310 310 309 309 309 309 308 308 307 307 306 304 301 297 294 292 292 292 292 291 290 289 288 288 287
310 311 312 313 312 315 318 318 314 313 316 316 315 315 316 316 317 318 317 315 313 312 311 310 309 308 308 307 308 307 307 306 306 306 304 301 297 293 292 291 291 292 291 290 289 288 287 287 287

GFSSGP_850_thetae_033.txt.gz
Theta_e
322 321 321 323 320 317 320 322 320 322 326 326 326 325 326 326 326 328 334 336 331 332 330 329 338 338 337 336 334 328 324 320 318 316 314 317 316 316 316 322 322 319 314 314 323 325 331 332 331
323 322 321 322 320 320 317 319 324 322 323 326 326 325 325 331 333 332 333 332 331 329 325 326 336 337 337 336 334 332 325 320 318 316 321 327 328 327 318 317 316 316 316 314 313 321 323 327 328
325 322 322 318 317 321 318 318 319 321 323 326 326 328 328 332 333 331 334 328 330 327 323 327 335 337 338 335 334 333 329 322 317 315 323 329 329 328 324 322 319 319 316 313 312 312 316 319 320
324 324 321 320 321 320 319 320 320 319 323 325 326 328 330 330 333 334 332 328 329 327 322 328 335 337 337 336 335 332 331 326 317 314 324 329 330 330 329 323 320 318 314 312 311 311 311 310 311
325 324 320 321 321 319 318 320 320 318 321 322 324 326 330 331 330 331 329 327 331 329 325 326 335 337 339 337 335 332 332 326 317 314 325 328 330 331 330 327 324 318 312 312 313 313 313 314 314
326 321 320 321 319 319 318 321 321 318 319 323 323 327 329 331 331 330 329 331 333 332 331 329 332 336 339 339 334 332 331 327 318 315 323 326 329 332 331 329 327 316 314 314 315 316 316 317 318
324 318 321 320 319 320 319 322 320 319 319 323 324 325 328 331 329 332 332 333 334 334 334 333 330 334 338 336 333 331 331 327 320 316 318 320 325 330 329 327 318 315 315 316 317 317 318 318 319
328 319 323 319 322 322 322 323 322 318 320 324 324 325 326 328 327 333 333 334 334 334 334 333 329 325 331 334 332 332 331 325 321 318 315 315 318 321 321 317 317 317 317 317 317 319 319 321 323
327 323 324 323 322 322 321 322 323 324 321 323 324 325 325 326 327 332 333 334 334 334 334 334 331 324 325 330 331 331 328 328 323 319 317 319 315 315 324 323 322 321 322 322 322 323 323 324 325
326 327 326 321 320 320 322 322 322 323 323 324 324 325 325 326 326 329 329 329 329 330 331 332 331 330 325 328 330 329 335 333 326 322 325 324 324 325 325 324 324 324 325 325 325 326 326 327 328
325 328 324 325 324 324 322 322 324 323 322 324 325 325 324 325 327 327 327 327 326 325 329 330 332 332 331 330 331 333 336 331 330 329 329 328 327 327 325 325 325 326 326 326 327 329 328 328 328
320 322 325 326 326 326 324 324 323 322 322 323 323 324 324 325 325 326 326 326 327 326 326 328 331 333 333 334 335 337 335 334 333 332 331 331 330 329 327 327 326 327 328 329 328 328 327 327 327
317 319 321 322 325 325 326 325 323 324 325 325 325 324 324 324 324 325 325 325 325 325 323 325 331 333 334 335 336 337 336 336 335 333 333 331 331 330 329 328 328 328 328 328 327 327 327 326 326
317 316 317 318 319 321 322 323 324 324 325 325 325 324 324 325 324 323 324 325 324 326 324 323 327 332 334 335 335 337 337 336 334 333 332 331 330 329 330 330 330 330 327 327 326 326 326 325 325
318 318 317 317 318 318 321 321 322 324 325 326 325 324 324 324 324 324 324 325 325 324 325 324 324 332 334 334 336 337 337 335 334 333 331 330 330 330 330 328 327 326 326 325 325 325 324 323 316
318 316 319 316 317 318 321 322 322 324 325 325 326 325 324 324 324 324 324 324 324 323 324 325 324 332 334 335 336 337 336 335 333 333 332 331 330 329 328 327 326 325 325 324 322 313 310 310 310
315 317 317 317 317 319 320 322 319 321 325 323 324 324 324 324 324 324 324 324 323 323 324 324 326 333 335 336 337 338 335 334 334 334 333 332 330 328 326 325 325 321 312 310 310 309 309 308 307
314 316 315 316 318 317 318 320 319 320 322 322 322 324 324 324 324 325 324 322 322 323 324 328 330 333 335 335 336 337 336 334 334 334 332 331 329 328 326 322 311 310 310 309 308 308 306 304 303
313 313 313 314 314 314 315 317 318 318 319 320 321 323 324 323 324 324 322 321 321 321 321 325 330 333 334 333 336 337 335 333 333 332 330 328 328 325 311 310 310 310 310 310 308 304 302 301 301
313 314 314 313 313 313 313 314 314 312 314 318 320 321 322 324 324 322 321 321 321 320 321 322 323 326 329 331 333 335 334 332 331 329 329 328 318 310 310 310 310 311 309 307 303 302 300 298 297
311 312 312 313 313 313 313 313 311 313 316 318 320 321 321 321 324 322 321 321 321 320 321 322 323 323 323 328 332 334 333 331 330 328 328 316 310 310 310 311 311 309 305 302 301 299 297 296 295
312 311 312 313 315 313 314 315 313 314 315 317 319 321 321 322 323 322 321 321 321 322 323 324 324 322 326 331 332 334 334 332 330 327 315 310 310 310 311 311 309 305 302 300 298 297 295 294 293
312 311 312 314 313 312 313 312 311 314 315 317 317 320 321 322 322 322 321 321 322 324 325 327 329 331 332 333 333 333 332 331 326 313 310 310 310 310 310 309 306 303 300 298 296 295 294 293 293
311 312 313 314 313 314 312 313 312 311 315 317 317 319 321 322 322 321 321 322 324 326 327 329 331 331 332 331 331 330 329 324 313 310 310 310 310 310 309 307 304 301 298 296 295 293 293 292 292
310 313 315 315 317 314 311 313 313 310 314 316 317 318 320 321 319 320 320 325 326 328 329 329 330 330 329 327 324 322 318 311 310 310 310 310 309 309 307 305 301 298 296 294 293 292 292 292 291
311 311 314 315 315 312 312 314 313 311 311 312 313 316 318 316 318 319 321 324 326 327 329 329 329 329 326 320 315 312 310 310 310 310 310 309 309 308 306 302 298 295 293 292 292 292 292 291 290
311 313 310 312 314 316 314 312 310 312 313 313 314 316 316 316 317 318 322 324 326 327 327 327 327 326 318 314 312 309 309 309 309 309 309 308 308 306 302 298 295 293 292 292 292 292 291 290 289
310 309 312 313 312 314 312 315 313 311 311 310 312 312 314 315 316 317 321 323 324 325 325 323 322 318 315 313 309 309 308 308 308 308 308 308 306 302 298 295 293 292 291 292 292 290 290 289 289
312 312 311 309 310 312 312 314 314 313 311 310 312 313 315 315 315 316 318 320 320 320 319 318 316 315 313 309 308 308 308 308 307 307 307 306 303 299 295 293 292 292 292 292 290 290 289 288 287
311 311 311 311 308 310 315 314 312 310 310 312 314 314 315 314 313 315 318 317 317 316 316 315 314 312 310 308 307 307 307 307 307 307 306 303 300 295 293 292 292 292 292 290 289 289 288 287 287

GFSSGP_850_thetae_036.txt.gz
Theta_e
321 322 321 322 319 315 318 318 319 320 324 324 323 324 324 325 327 328 332 331 329 332 328 333 339 340 337 335 332 327 322 319 318 316 316 317 321 324 319 317 323 316 314 315 326 329 333 332 332
321 322 321 321 318 320 318 317 322 321 322 323 324 327 325 330 332 332 333 331 328 330 326 328 339 339 338 336 334 329 325 320 318 316 316 325 324 318 316 316 316 316 315 313 318 324 330 331 331
322 323 321 316 316 319 319 316 320 320 323 322 325 327 327 330 333 331 332 328 328 328 324 326 334 336 337 336 334 332 328 324 318 316 326 329 328 326 320 319 318 317 314 312 312 314 319 321 321
325 324 320 319 320 319 318 318 319 318 322 323 325 328 329 330 332 333 333 328 327 327 323 326 333 336 339 338 334 332 330 326 318 315 326 329 329 329 328 321 320 315 312 311 311 311 311 311 311
325 323 319 320 319 318 317 319 320 318 318 320 323 325 329 330 330 331 330 327 329 327 324 327 333 336 336 338 335 333 331 326 319 313 324 329 330 331 328 326 324 316 313 313 314 314 315 315 314
325 320 319 320 319 318 317 320 320 318 318 320 323 326 328 331 331 330 329 329 331 330 325 327 332 335 337 339 335 333 331 327 321 314 323 328 330 331 331 329 326 316 315 315 316 316 317 317 318
322 318 320 319 318 318 318 320 319 319 318 319 323 325 327 330 331 330 331 332 333 333 332 330 329 332 336 339 337 333 331 329 321 315 320 324 328 331 329 328 322 316 316 316 317 318 318 319 321
327 317 322 318 321 320 320 322 322 317 318 322 323 323 326 328 326 330 332 332 334 334 334 334 332 329 331 336 336 332 332 329 322 318 316 319 324 327 329 321 318 320 319 318 319 321 321 323 324
326 323 323 322 320 320 320 320 321 323 322 322 323 324 325 326 326 328 331 332 333 334 334 334 333 330 327 331 334 333 332 329 325 321 317 317 316 317 321 323 324 323 323 323 323 324 324 325 325
325 324 324 320 318 320 320 320 321 323 322 323 323 325 324 325 326 327 329 329 329 330 331 332 333 332 327 327 330 331 330 332 329 322 321 321 319 321 325 325 324 324 325 325 326 327 327 327 328
324 326 323 324 324 325 322 322 323 322 322 323 323 323 326 326 326 327 327 327 326 327 329 329 332 332 330 326 328 330 330 334 329 326 326 326 326 325 325 324 324 325 326 326 327 328 328 328 327
320 320 323 324 325 326 324 325 323 323 323 324 323 324 323 324 327 327 327 326 327 327 328 329 329 332 333 331 330 331 334 334 332 330 329 329 328 328 327 326 326 326 327 328 327 327 326 326 325
317 318 320 320 320 321 323 323 324 324 326 326 325 325 324 324 323 324 325 324 325 325 325 326 327 330 333 334 334 335 336 335 334 332 332 331 330 329 328 328 327 328 328 326 326 326 325 325 325
316 316 316 317 317 318 319 320 321 323 324 325 325 325 324 324 324 324 324 324 324 325 325 325 324 326 332 334 335 335 337 336 334 333 332 331 329 328 328 328 329 328 327 325 324 324 324 324 323
317 317 315 315 317 316 318 319 319 320 321 323 323 324 324 324 324 324 324 324 324 323 325 324 324 323 329 334 335 336 337 336 334 333 332 330 329 329 329 327 326 325 324 323 324 323 323 316 311
317 315 317 314 315 316 318 319 317 320 319 321 321 323 323 322 324 324 324 324 324 324 324 325 324 324 326 334 335 336 337 336 335 333 332 331 331 330 328 327 325 325 324 323 319 311 310 310 309
314 314 315 316 315 316 317 319 319 320 319 320 322 323 323 323 324 324 324 324 324 324 324 323 323 324 326 334 335 336 337 335 335 334 332 332 331 329 328 326 325 324 314 310 310 309 309 308 307
311 313 313 315 315 313 314 315 315 316 317 317 319 321 323 323 324 324 324 324 324 323 323 322 323 325 328 335 335 336 337 335 335 334 333 333 331 329 328 326 320 310 310 309 309 308 306 303 303
312 313 312 312 312 312 313 313 313 313 315 316 317 319 319 321 324 324 324 324 324 322 322 322 322 325 330 335 335 336 337 335 334 334 333 332 328 327 326 312 310 310 310 310 307 303 302 302 301
311 313 313 311 311 312 312 313 312 312 312 314 315 317 319 321 322 324 324 323 323 321 321 321 321 327 331 334 335 336 336 334 334 333 331 328 327 326 311 310 310 311 311 307 304 302 300 299 298
310 311 311 310 310 310 311 311 308 309 310 311 312 313 316 319 321 322 323 324 322 321 321 320 320 324 330 333 334 335 335 333 332 330 326 325 320 311 310 310 311 311 308 305 302 300 299 298 296
311 309 310 311 311 311 310 313 310 310 309 308 310 314 316 318 320 321 321 322 322 321 321 320 321 322 324 330 333 334 335 332 329 326 324 325 311 310 310 311 311 309 306 302 300 298 297 295 294
310 310 310 311 312 311 311 311 308 309 309 310 311 314 316 317 318 320 322 322 323 321 321 322 323 324 323 327 331 333 333 329 328 324 322 314 309 310 310 310 310 307 304 300 298 296 295 293 293
310 311 311 312 314 316 311 311 311 309 308 309 311 314 317 319 320 320 321 322 322 321 323 324 324 323 323 327 331 330 332 329 327 321 313 309 310 310 310 309 308 305 301 298 297 295 293 293 293
309 312 312 312 314 312 309 311 311 308 308 309 309 313 316 318 319 320 321 321 321 322 324 326 327 327 329 329 329 329 329 329 326 316 309 310 310 309 309 308 305 302 299 296 294 293 293 293 292
309 310 309 309 312 311 310 312 310 309 309 310 310 312 314 317 318 320 320 321 321 322 325 327 329 330 329 328 328 327 325 320 311 309 309 309 309 308 308 306 303 300 296 294 293 293 293 292 291
311 311 309 311 309 311 313 310 309 308 308 308 310 311 310 311 316 318 318 320 322 323 326 328 329 330 329 327 324 319 313 309 309 309 309 308 308 308 306 303 300 296 294 293 293 293 292 290 290
311 310 313 312 313 312 310 309 310 309 309 308 308 309 313 315 315 316 317 320 324 326 327 328 328 328 326 320 315 310 308 308 308 308 308 307 308 306 303 300 297 294 293 292 292 291 290 290 289
312 311 312 311 311 308 308 308 308 311 312 313 310 308 310 313 316 316 317 321 325 326 327 327 327 326 320 313 310 308 308 307 307 307 307 307 306 303 301 298 294 292 292 292 291 290 290 289 288
310 311 311 313 309 309 307 309 311 310 311 312 311 311 312 314 315 315 316 321 323 325 325 325 322 321 314 311 308 307 307 307 306 307 307 306 304 302 298 294 292 292 292 291 290 290 289 288 288

GFSSGP_850_thetae_039.txt.gz
Theta_e
321 321 321 321 325 321 322 320 320 323 324 323 322 324 326 325 330 334 332 332 330 329 329 340 342 338 338 336 327 324 320 319 318 317 318 319 328 330 325 319 322 316 314 325 327 332 334 335 332
321 321 321 320 323 324 323 318 322 322 322 321 323 325 325 330 331 332 333 331 329 331 327 333 338 339 336 334 330 324 320 317 315 314 314 315 316 316 314 315 315 315 313 313 324 331 332 332 330
321 322 321 321 321 323 323 318 322 320 321 321 324 325 326 330 332 332 330 331 327 330 328 331 339 338 335 332 329 328 325 321 315 315 325 328 323 318 318 317 317 314 312 312 313 322 328 330 329
322 323 319 322 323 321 320 319 318 320 322 322 323 328 328 330 332 331 332 327 328 326 327 329 337 337 335 333 332 329 328 323 316 315 328 328 328 328 327 319 317 313 312 311 311 312 314 315 314
324 322 321 322 321 319 318 318 319 320 319 320 321 325 328 330 331 331 331 328 327 326 325 329 336 337 339 336 333 332 329 324 318 314 324 329 330 330 327 326 323 315 314 314 314 315 315 316 315
324 320 322 324 321 319 318 319 320 319 319 319 321 324 327 330 330 330 329 327 328 327 323 330 336 337 335 337 334 332 330 325 319 314 324 328 330 331 329 329 325 316 315 316 316 317 317 318 318
323 321 323 320 319 319 319 320 319 319 319 320 322 325 326 329 331 329 328 330 331 330 325 327 332 335 337 338 337 332 330 328 321 314 320 327 330 330 330 327 323 317 317 317 317 318 319 320 322
326 321 322 320 322 322 320 320 321 319 318 319 322 325 326 329 330 329 330 332 333 333 332 330 330 333 335 340 338 334 331 329 323 317 317 321 327 330 330 327 318 319 320 319 320 321 323 323 324
325 326 326 323 321 321 320 320 321 321 322 322 322 323 324 326 328 329 330 331 332 333 334 334 334 333 333 334 336 335 332 330 325 320 316 317 320 324 326 321 322 321 323 323 323 324 324 325 326
325 327 325 321 319 321 320 320 321 322 321 322 323 323 324 324 327 326 327 328 330 331 333 334 334 334 333 332 334 335 332 330 329 322 318 319 316 316 323 324 324 323 324 325 325 327 327 327 327
324 326 322 323 323 325 324 323 323 322 324 323 323 323 323 325 327 329 329 327 327 327 330 332 333 334 333 330 329 333 332 331 331 324 321 322 323 324 325 324 324 324 325 326 327 328 328 326 326
321 320 322 323 323 323 324 324 325 323 323 323 323 323 324 324 324 330 330 327 327 327 328 329 330 332 333 332 328 329 331 333 331 328 324 327 326 327 326 325 325 325 326 328 327 326 326 325 324
318 318 319 320 318 318 320 322 324 324 324 324 325 325 324 325 324 323 325 327 326 325 325 325 328 329 331 333 331 330 331 334 333 331 329 330 329 329 328 328 328 327 328 326 325 325 325 324 324
315 316 316 317 317 317 319 319 320 320 319 321 322 323 324 324 324 324 324 324 324 324 324 324 324 324 328 331 333 333 334 335 334 332 331 330 329 328 328 327 327 327 327 325 324 324 323 323 322
316 317 316 316 316 317 317 318 317 318 319 320 321 322 322 322 323 324 324 324 324 324 323 323 324 324 324 326 333 334 336 336 334 332 331 330 329 328 328 327 326 325 324 323 322 323 322 313 310
316 315 317 315 315 316 317 317 317 316 317 318 318 319 318 317 321 323 323 324 324 324 324 323 323 324 324 323 331 335 336 336 334 333 331 331 330 330 329 327 326 325 324 324 319 311 310 309 308
312 314 315 315 314 316 317 318 317 318 317 317 317 318 319 319 317 319 322 323 324 324 324 324 323 323 324 323 329 335 336 337 336 334 333 332 330 331 329 327 326 325 322 310 310 309 309 307 304
312 313 313 315 313 312 313 315 314 314 314 316 315 316 317 319 322 322 319 321 324 323 324 324 323 323 323 324 330 335 336 337 337 335 335 332 332 330 328 327 326 318 310 310 310 309 305 303 303
311 312 313 312 311 312 312 313 313 312 312 312 313 314 315 317 319 321 324 324 324 323 324 323 322 322 323 324 330 335 335 336 336 335 333 332 332 329 327 326 316 310 310 311 309 306 303 302 302
310 311 312 310 310 311 311 312 311 311 311 311 311 312 313 314 316 319 321 324 324 324 323 322 322 323 323 325 329 335 335 335 335 333 332 330 329 327 325 316 310 310 311 309 307 304 302 301 300
310 312 311 310 310 310 310 311 310 309 309 309 310 311 311 312 313 316 318 321 323 324 323 322 322 322 322 325 331 334 335 334 332 331 330 327 326 324 316 310 311 311 311 309 306 303 301 299 297
311 309 310 311 311 311 309 312 310 309 309 309 308 309 310 311 311 312 316 319 321 323 322 321 321 321 323 328 332 334 335 333 331 331 329 324 319 317 310 310 311 311 310 307 304 302 299 297 295
310 309 310 310 312 311 311 312 312 308 309 309 309 310 310 310 311 311 313 317 320 322 322 321 321 321 322 328 332 334 334 332 331 327 325 320 316 311 310 310 311 310 308 305 302 299 296 295 294
309 309 311 312 313 314 312 312 312 311 310 310 309 309 310 312 314 315 313 316 319 321 321 321 321 322 323 325 330 332 333 332 328 324 320 318 311 309 310 310 310 308 306 303 299 296 295 294 294
310 313 312 311 313 311 309 312 312 309 308 308 308 308 310 312 312 315 318 317 319 320 321 321 322 323 323 324 328 331 332 331 326 322 319 315 309 309 310 310 309 307 304 300 296 295 294 293 293
311 311 311 308 310 310 309 313 311 308 309 309 309 309 310 310 312 316 317 319 319 321 321 322 323 324 323 324 327 329 329 325 322 317 310 308 309 309 309 309 307 304 301 297 294 294 293 293 292
310 311 310 309 309 310 310 309 309 309 309 308 308 309 309 311 313 311 318 318 319 320 322 322 323 325 324 326 328 326 324 321 315 309 307 308 309 309 309 307 305 301 297 294 293 293 293 291 291
309 309 311 311 313 313 310 310 310 309 308 309 311 313 312 308 310 312 313 318 319 321 323 325 326 327 327 325 324 324 320 312 308 307 308 308 309 309 307 304 301 297 294 293 293 293 292 291 290
310 310 312 312 313 313 312 310 306 308 309 312 312 313 313 309 309 313 314 317 318 322 324 326 327 328 326 324 322 318 311 307 307 307 308 308 308 307 305 301 297 294 293 293 292 291 291 290 289
309 311 310 312 313 312 312 311 310 310 311 312 313 313 314 313 310 314 315 317 318 322 325 326 326 326 324 320 315 310 307 306 307 307 307 307 306 305 301 298 294 293 293 292 291 291 290 289 288

GFSSGP_850_thetae_042.txt.gz
Theta_e
321 321 321 323 327 326 327 323 324 327 327 327 325 327 331 329 335 336 331 332 331 331 341 342 342 340 335 333 327 327 325 322 321 321 326 329 332 331 329 322 319 314 314 327 333 337 338 338 336
322 321 322 323 326 328 327 324 323 326 325 324 325 326 328 333 332 336 335 330 331 338 342 343 341 339 337 332 325 321 318 317 316 316 317 320 326 322 316 316 316 316 314 318 331 333 334 334 332
322 321 324 325 326 327 326 325 324 325 324 324 328 327 329 332 333 335 334 330 328 332 342 343 341 340 337 332 327 324 321 317 314 314 319 317 316 318 316 317 316 314 312 312 325 331 331 331 331
326 323 322 325 325 325 325 324 325 325 324 324 325 330 330 330 334 334 330 332 331 342 341 329 339 339 336 333 329 326 323 318 314 321 326 325 322 326 320 320 315 312 312 312 312 317 323 324 321
324 324 325 325 325 324 324 323 323 325 324 324 323 329 330 332 331 332 332 329 340 342 341 329 339 338 335 333 332 329 326 321 314 320 326 329 330 328 327 327 319 314 314 314 313 312 313 313 313
324 323 324 325 324 324 323 322 323 323 323 323 323 324 328 330 330 331 330 328 334 331 336 336 339 337 339 335 333 331 328 323 315 318 325 329 330 330 329 328 323 315 316 316 317 317 317 318 319
323 324 323 323 323 323 323 322 323 323 323 323 324 326 328 330 333 330 329 329 329 332 330 337 338 337 336 337 336 332 330 326 318 317 326 329 330 331 331 328 324 316 316 317 317 318 319 320 322
323 324 322 324 323 323 322 321 322 322 323 320 323 324 327 329 332 330 329 332 332 331 330 337 340 339 339 339 338 335 331 329 322 315 320 328 329 331 329 328 320 318 319 318 320 320 322 323 323
325 323 323 323 323 323 322 322 322 321 322 324 323 324 325 324 331 332 336 337 337 334 333 336 340 340 342 342 339 338 333 331 325 319 317 320 329 330 330 326 319 320 322 322 323 323 324 325 326
324 325 323 322 323 322 322 322 323 323 323 324 324 323 325 324 330 335 337 337 338 335 335 335 339 341 340 338 338 337 336 332 331 324 318 328 327 326 324 321 323 322 324 324 325 325 326 327 329
323 325 323 324 322 324 325 324 324 323 324 324 325 325 324 326 329 332 333 334 336 338 339 334 338 334 338 338 338 336 336 336 334 330 325 328 320 316 323 325 324 324 325 327 326 327 328 326 325
322 322 322 323 324 325 325 324 325 323 323 324 324 323 324 325 326 328 332 332 333 335 336 331 334 331 334 334 335 337 336 334 334 329 323 325 326 325 328 327 325 325 326 328 328 327 325 325 324
320 320 319 319 320 320 320 321 323 323 323 324 324 325 325 325 326 326 325 329 332 332 334 332 330 330 330 333 333 333 335 334 334 330 324 329 329 330 329 327 328 327 327 327 325 325 325 324 324
318 318 318 318 318 318 319 319 319 319 319 319 320 322 323 324 325 326 325 324 325 329 329 329 325 327 327 329 332 332 335 336 335 332 329 330 329 329 328 327 327 326 327 326 325 324 323 323 322
318 319 318 318 317 318 318 319 319 318 318 319 319 320 320 321 323 325 325 325 325 324 324 323 323 324 324 325 330 333 337 337 335 333 331 331 329 328 328 328 327 326 325 324 323 323 323 314 309
317 317 319 318 317 317 317 319 318 318 318 319 318 319 319 320 320 322 325 325 325 324 324 323 323 323 323 324 328 335 337 337 336 333 331 330 329 329 329 328 327 326 325 324 323 314 310 309 308
315 317 317 317 316 317 318 320 318 319 318 318 318 319 320 320 320 320 321 322 324 324 324 324 324 323 323 324 335 338 338 337 336 334 332 331 330 330 329 329 327 326 325 321 310 310 310 308 305
317 316 315 316 315 315 316 317 317 316 316 317 318 319 319 319 320 321 321 321 322 322 322 324 324 324 324 323 334 336 338 337 335 334 333 332 332 331 331 328 326 326 319 310 310 311 310 306 303
314 315 315 314 313 313 314 314 314 313 313 313 314 315 315 317 318 319 320 321 322 320 320 324 324 324 323 323 333 335 333 335 336 336 334 334 333 331 330 326 326 320 310 310 312 311 308 304 302
314 314 315 313 312 312 313 313 313 313 313 313 313 313 312 313 314 316 318 320 322 322 323 323 324 324 323 324 327 331 333 334 336 336 333 334 332 331 329 324 320 310 310 312 311 310 307 303 301
313 314 314 313 312 312 313 315 316 313 312 312 312 311 312 312 312 313 314 317 321 322 323 324 324 324 323 325 329 328 332 334 335 334 333 331 331 329 326 319 310 310 311 312 311 308 304 301 299
314 312 312 312 313 315 312 317 315 315 315 314 313 312 312 312 312 312 313 314 319 321 323 324 323 323 322 323 325 327 331 335 334 332 331 329 328 326 319 311 310 311 311 311 309 306 302 299 296
312 311 311 312 312 312 313 313 314 313 313 313 313 312 312 312 312 313 313 313 315 319 321 322 322 321 322 322 324 329 332 333 332 330 328 327 325 316 313 310 310 310 311 310 307 304 299 296 295
311 311 312 312 313 315 313 314 314 313 312 312 313 312 312 312 312 312 312 313 314 318 318 320 321 321 321 322 326 330 331 333 332 329 326 325 317 313 309 309 310 310 309 308 305 301 297 295 295
311 313 315 315 315 314 311 313 313 312 312 312 312 311 312 312 312 313 314 315 316 317 317 320 321 321 321 323 327 330 332 332 331 329 326 323 317 309 309 309 309 309 308 305 301 297 295 294 294
312 312 314 314 313 311 311 313 313 312 312 312 311 310 312 313 313 312 314 317 317 318 317 320 321 321 322 323 326 329 330 331 330 327 323 315 310 308 309 309 309 307 305 301 297 295 294 294 293
311 313 311 313 312 312 310 311 312 312 311 311 311 312 313 313 313 313 313 316 318 320 317 320 321 322 322 323 325 327 329 329 328 321 314 312 307 308 308 308 306 304 301 298 295 294 293 292 292
311 310 311 313 312 314 313 313 313 312 311 311 311 313 312 313 315 313 312 315 319 321 319 321 321 322 322 322 324 326 328 325 318 315 310 307 307 308 307 306 304 300 297 295 294 293 293 292 291
310 311 311 311 313 314 315 315 312 310 310 310 313 312 312 314 315 312 312 316 319 320 320 319 319 320 321 322 325 326 321 316 315 308 306 307 307 307 306 304 300 297 295 294 294 293 292 291 290
310 311 310 314 314 313 314 315 311 310 311 313 312 310 312 314 314 314 315 317 318 317 316 318 319 320 321 323 323 320 318 314 308 305 306 307 306 305 303 301 297 295 294 294 293 292 292 291 289

GFSSGP_850_thetae_045.txt.gz
Theta_e
323 327 326 325 327 328 328 328 325 326 326 326 328 329 332 332 335 338 339 342 342 346 343 343 340 340 338 331 333 334 333 332 330 330 331 332 333 332 330 321 316 312 315 326 335 333 330 337 337
322 326 325 325 327 329 329 327 324 324 327 327 327 329 330 333 333 339 340 338 342 344 345 344 340 339 335 331 326 323 321 319 318 318 323 330 332 329 317 314 314 314 313 324 334 336 337 336 334
323 325 325 327 327 328 328 328 326 326 326 327 329 330 332 334 335 338 340 338 342 344 346 343 340 339 336 330 323 322 320 317 316 316 317 319 319 314 316 316 314 312 312 315 331 332 332 333 331
327 324 324 327 327 327 326 327 325 326 325 327 329 331 331 333 335 337 340 339 342 344 345 342 340 339 338 331 327 326 322 316 316 322 320 320 326 322 320 318 314 313 312 312 326 329 330 327 330
325 324 326 325 325 325 326 325 325 326 326 326 327 330 332 334 335 338 340 340 342 343 346 340 339 339 336 332 329 327 324 317 316 325 327 326 327 324 327 324 317 314 314 312 311 312 313 312 312
323 323 326 326 325 325 325 325 325 325 325 325 325 328 330 334 335 339 341 340 342 342 344 339 338 339 335 333 332 330 326 320 314 324 328 330 330 331 327 327 320 315 315 316 316 317 317 317 318
325 325 324 324 324 324 324 324 324 324 325 325 325 327 329 331 337 339 341 340 342 342 342 343 339 338 338 335 334 332 329 324 315 322 327 330 330 331 330 329 323 316 316 317 317 318 319 320 322
323 324 325 324 323 323 324 324 323 323 324 324 324 326 327 333 338 340 340 341 341 342 341 342 342 340 338 337 336 334 331 328 320 319 325 328 330 330 332 329 322 317 318 317 320 320 322 322 323
325 327 325 324 323 323 323 323 323 323 323 323 323 324 328 329 337 339 340 341 341 342 341 341 342 342 342 340 338 337 333 330 324 317 319 325 331 332 329 327 321 319 320 321 322 323 324 324 326
325 324 323 322 322 323 323 323 323 324 323 323 324 324 326 328 333 337 338 339 340 341 341 340 341 342 341 340 340 338 337 331 328 322 317 324 330 332 334 326 320 321 322 323 324 325 326 327 329
324 324 322 322 324 324 323 323 323 324 325 323 323 325 326 328 330 334 336 336 338 340 341 341 342 342 341 342 340 339 342 336 336 331 330 330 328 326 321 324 323 324 324 328 327 328 329 326 325
323 322 322 323 324 324 325 324 324 323 323 323 324 326 326 326 327 330 332 333 334 337 339 341 341 342 341 341 341 339 339 338 336 334 330 330 327 325 328 329 329 329 329 330 330 328 326 325 325
322 322 321 321 322 322 322 323 323 324 324 323 323 325 326 326 326 327 327 331 332 333 336 339 340 341 342 341 341 340 339 338 336 336 331 329 330 330 330 329 329 329 329 328 326 325 325 324 322
320 320 320 320 320 320 321 320 320 320 320 321 322 323 323 325 326 326 327 327 329 332 333 336 339 340 341 340 334 338 339 337 336 336 332 331 331 332 330 330 328 327 326 327 326 324 324 322 320
319 321 320 319 319 320 319 320 321 319 319 320 320 320 320 321 323 324 326 327 327 327 331 331 335 337 339 340 334 333 339 338 336 336 333 332 332 329 328 327 327 326 326 325 325 324 323 318 310
318 319 320 320 319 318 318 321 320 319 320 320 320 319 320 320 320 322 323 326 327 327 326 326 325 332 337 339 339 331 339 338 336 335 335 332 330 329 328 328 327 326 326 325 324 321 311 311 309
318 320 320 320 318 318 319 321 320 320 320 319 320 319 319 320 320 320 322 323 326 326 326 326 324 324 328 336 339 338 339 338 336 336 336 331 330 329 328 328 328 326 326 325 320 311 311 309 307
319 319 318 318 318 317 318 318 318 318 318 319 319 320 320 320 320 321 320 321 322 324 326 326 325 324 324 330 337 338 338 337 336 337 334 334 330 330 329 329 329 326 326 322 311 311 311 309 307
316 317 318 318 317 316 316 316 316 316 315 316 316 316 317 318 319 320 320 322 322 322 324 325 325 325 326 329 334 337 337 336 337 336 336 332 331 331 330 330 328 326 324 311 311 312 310 309 306
316 317 317 316 315 314 315 315 315 316 316 315 315 315 315 315 316 317 318 320 321 322 324 323 324 325 326 329 331 336 336 335 336 336 334 331 332 332 331 330 328 325 311 310 312 311 310 309 305
315 316 316 316 315 314 315 316 317 318 317 316 315 315 315 315 315 315 315 317 319 321 322 323 323 325 326 329 333 335 335 335 335 334 332 333 332 331 330 327 325 317 310 311 311 311 309 306 303
315 314 314 314 315 318 314 319 316 316 317 316 315 315 315 314 314 314 315 315 315 318 322 323 324 326 329 331 331 331 329 330 329 331 332 332 331 330 328 326 320 310 310 311 311 310 309 304 300
314 312 313 313 313 313 315 316 316 315 315 315 316 315 314 314 314 314 314 314 314 315 319 323 324 326 330 329 331 328 328 325 328 331 331 331 330 329 326 321 313 309 310 311 310 309 307 302 298
312 312 312 312 313 317 315 316 316 314 314 314 314 314 314 313 313 313 313 313 314 314 317 323 324 327 329 329 326 325 326 325 327 331 330 329 328 326 318 313 310 309 310 310 309 307 304 299 297
312 313 317 318 316 316 313 314 314 314 314 313 314 313 312 312 312 313 313 314 314 314 314 322 325 326 327 325 325 325 326 325 328 331 330 328 326 323 316 310 307 309 309 309 307 304 300 297 296
313 313 316 318 317 315 313 313 313 314 313 313 313 313 312 312 313 314 315 314 314 315 315 321 325 325 324 323 325 327 324 325 328 330 329 326 323 316 315 308 306 308 308 307 304 300 298 296 295
313 314 312 313 312 313 312 312 313 313 314 313 313 312 312 312 313 315 315 315 315 318 317 320 324 323 322 323 325 323 323 326 329 328 326 322 316 310 307 308 307 307 306 304 301 298 296 295 294
312 312 312 313 314 315 314 315 316 315 315 314 312 312 312 313 314 314 314 315 314 317 319 322 323 322 321 322 320 318 321 327 328 327 320 316 314 309 306 307 306 306 303 301 298 296 295 294 293
312 312 312 312 313 315 317 316 316 314 313 312 312 312 313 312 314 315 314 314 315 318 321 322 322 320 319 317 315 316 321 325 325 319 311 310 308 306 306 306 305 303 301 298 296 295 295 294 292
311 312 311 313 315 314 315 316 313 313 312 312 312 312 312 311 314 314 315 315 318 321 322 322 319 317 314 311 313 318 323 320 316 309 311 307 305 305 304 304 302 300 298 296 295 294 294 293 291

GFSSGP_850_thetae_048.txt.gz
Theta_e
322 327 327 326 328 327 328 328 327 326 326 326 328 329 328 330 336 342 341 342 341 339 333 340 337 340 338 332 332 334 335 334 333 333 333 333 332 331 328 318 314 311 313 325 333 327 324 337 335
322 324 325 326 328 328 327 327 326 324 326 327 327 327 328 332 338 337 342 343 346 339 337 339 338 337 333 326 328 329 329 326 324 324 326 332 332 330 318 312 312 312 313 329 332 332 335 336 335
322 325 325 327 326 327 326 326 325 324 326 326 327 326 329 335 337 339 341 343 346 344 340 336 333 333 331 324 320 318 317 317 316 317 327 329 328 313 314 313 312 311 311 326 332 334 333 334 333
326 327 324 324 326 325 325 325 326 325 325 326 327 329 332 335 335 339 339 342 344 346 346 337 338 335 331 324 322 321 318 315 315 317 316 318 315 317 317 313 312 311 311 314 329 328 329 327 326
325 327 325 324 324 324 324 325 325 325 325 326 327 327 334 334 336 338 336 342 343 346 346 343 338 334 332 327 325 323 319 314 320 316 318 323 322 324 323 318 314 313 311 311 320 320 321 319 313
323 324 325 326 325 323 322 323 325 325 325 325 325 326 334 335 337 340 340 342 343 345 346 345 338 335 332 329 328 325 321 315 321 322 324 329 328 326 326 323 316 315 315 315 315 315 315 316 317
324 324 324 323 323 323 323 324 323 324 324 324 325 325 332 335 338 341 340 341 342 344 344 338 336 337 332 329 328 327 324 318 316 324 328 330 330 331 328 327 318 315 316 317 317 317 318 319 321
323 324 325 323 322 323 322 323 324 324 323 324 325 324 329 338 338 341 340 341 343 342 343 340 336 337 336 331 331 329 327 323 315 321 325 329 330 331 331 330 319 316 317 317 318 319 320 322 323
322 324 325 324 323 323 322 323 323 323 323 323 324 324 328 336 339 340 340 341 342 342 341 343 340 337 337 336 333 332 329 327 320 317 321 327 329 330 331 328 319 317 318 319 321 322 322 326 328
323 326 327 324 321 322 323 323 323 323 322 322 323 323 326 327 337 339 340 341 341 342 341 341 343 340 339 339 338 336 334 329 326 319 318 325 332 332 330 330 323 320 320 322 323 324 326 328 328
322 324 323 321 321 324 324 323 323 323 323 324 323 323 325 327 330 336 338 339 340 341 341 340 342 342 340 340 339 338 337 334 328 328 319 326 330 332 331 327 320 322 323 327 327 329 328 326 326
322 322 322 322 322 324 324 324 324 323 323 323 323 323 326 326 328 331 335 336 338 339 341 340 341 341 342 340 339 339 338 338 334 333 331 330 329 326 324 326 328 326 328 329 328 328 327 325 324
320 320 321 322 321 321 323 323 323 323 323 323 323 323 325 326 326 327 329 333 334 337 338 341 341 342 341 341 338 338 337 337 336 335 331 330 328 325 328 329 328 329 329 328 328 326 325 324 322
321 321 321 321 321 321 320 320 321 320 321 321 322 323 323 324 325 326 327 328 331 332 337 338 339 341 341 342 342 339 339 337 337 335 334 329 329 329 330 329 329 329 327 326 326 326 325 322 318
320 320 320 320 320 320 320 320 319 319 320 320 320 320 321 322 323 325 326 326 327 330 332 335 338 339 341 339 339 340 340 338 337 335 334 330 331 331 331 330 328 327 326 326 325 325 324 317 311
320 320 320 318 319 319 319 319 318 319 319 319 319 320 320 320 320 321 323 325 326 327 328 332 334 337 339 341 337 333 340 339 336 335 334 331 332 332 330 328 327 326 326 326 324 323 316 311 312
317 318 319 319 318 318 318 319 318 319 320 320 320 320 320 320 320 320 320 322 323 326 327 327 331 332 336 339 339 335 331 340 336 335 334 333 332 330 329 327 327 327 326 325 324 317 311 312 312
318 317 317 317 318 317 317 317 316 317 317 318 320 320 320 320 319 320 320 320 322 323 326 327 326 326 328 337 338 337 333 337 336 336 334 333 332 330 329 328 328 327 326 325 322 311 312 312 311
316 317 317 317 316 315 314 314 314 315 315 315 316 317 318 319 320 320 320 321 320 321 323 327 326 326 326 329 336 338 335 340 336 335 335 335 332 331 329 328 328 328 326 325 312 311 313 312 311
316 316 316 315 315 314 313 314 313 314 314 314 314 315 315 316 317 317 319 320 320 321 321 322 325 326 325 324 328 336 337 337 336 335 335 335 333 332 330 329 329 329 326 321 311 312 312 311 309
315 315 315 315 314 313 313 314 314 315 314 314 315 315 315 315 315 315 316 317 318 320 321 322 322 325 325 325 327 335 337 336 336 336 335 334 333 332 330 330 330 329 326 314 311 312 312 311 309
315 314 314 314 314 315 312 315 313 313 313 314 315 316 316 315 315 315 315 315 315 316 319 321 322 323 324 325 328 333 335 335 336 334 334 334 331 330 329 329 329 328 322 311 311 311 311 310 307
314 313 313 313 312 311 313 312 313 314 313 313 312 315 315 315 315 315 314 314 314 315 316 318 320 323 323 326 329 332 334 334 332 333 334 332 328 329 326 327 327 324 314 310 310 311 311 309 305
312 312 312 312 312 314 312 313 313 313 312 311 310 314 315 314 314 314 314 314 314 314 314 315 319 322 323 327 331 333 330 331 332 333 332 331 328 326 325 325 325 317 311 310 310 310 309 307 303
312 312 313 316 314 311 313 314 313 312 312 312 311 313 313 312 312 312 313 314 313 313 314 314 315 322 324 329 332 333 331 330 328 328 329 328 327 324 323 321 315 311 310 310 309 309 307 303 300
313 313 313 315 315 315 312 312 310 311 312 313 313 313 313 312 312 311 314 314 314 315 314 313 314 324 325 330 331 332 330 328 325 324 325 327 325 323 320 316 311 309 309 309 308 307 304 301 298
313 313 312 312 311 308 310 309 309 310 310 310 312 312 312 312 312 313 314 314 313 315 314 314 314 324 326 329 330 327 325 325 325 324 326 326 324 318 315 310 308 308 308 308 306 304 301 298 297
311 311 311 309 307 310 312 311 312 313 312 311 310 311 312 312 312 313 314 314 314 314 315 316 316 324 326 328 326 325 326 326 324 325 326 322 319 314 311 310 306 308 307 305 303 300 298 296 295
312 313 311 310 310 309 312 312 312 312 311 310 309 311 311 312 312 312 314 312 314 314 317 317 319 324 325 324 324 325 326 323 322 325 322 320 313 310 308 308 307 305 304 303 300 297 296 295 295
312 311 310 307 307 309 309 313 312 310 312 312 311 312 311 312 312 312 313 312 315 316 317 318 321 322 323 323 323 324 321 320 322 322 317 310 308 306 307 305 305 302 302 300 298 296 295 295 294

GFSSGP_850_thetae_051.txt.gz
Theta_e
322 322 325 326 322 321 324 326 323 322 323 325 326 326 326 329 334 339 339 339 341 335 340 340 340 334 332 333 331 334 335 335 337 336 335 332 331 329 326 315 314 313 314 327 328 315 333 336 335
322 322 326 326 323 324 323 322 323 320 325 326 326 326 326 338 338 341 341 342 341 338 339 338 337 333 327 327 329 332 331 330 330 334 332 332 330 327 314 311 311 311 318 329 330 321 335 334 332
322 322 326 322 320 324 324 322 321 322 325 325 326 327 327 335 337 340 340 343 343 336 337 336 335 330 323 321 322 322 320 318 317 319 329 330 328 313 313 312 311 311 321 330 331 333 332 332 331
322 326 326 321 323 321 322 321 321 323 324 325 326 326 334 337 338 340 341 342 345 338 337 336 333 326 320 317 316 315 314 313 314 315 325 323 314 314 313 311 311 311 312 327 329 333 332 333 330
325 326 321 321 320 320 319 321 323 323 323 325 326 325 334 337 337 339 342 343 343 342 339 335 332 328 322 319 319 317 314 314 316 313 315 315 316 317 315 312 312 311 311 317 322 321 321 320 315
321 324 322 325 321 320 319 322 321 323 324 324 325 324 334 336 335 337 342 342 342 343 345 340 335 328 325 322 321 319 314 316 315 315 319 318 320 320 318 314 313 314 313 312 312 313 313 314 317
320 318 320 320 320 320 321 323 320 322 323 323 324 323 333 338 338 337 342 342 343 345 345 345 337 328 328 325 324 321 317 314 319 317 324 330 330 327 324 317 314 315 316 316 316 317 317 319 321
321 318 322 319 321 319 319 321 322 323 321 324 324 321 335 337 340 339 341 343 342 344 344 343 341 333 329 327 326 324 320 315 318 323 327 328 330 332 329 324 316 316 316 317 318 319 320 321 321
321 319 321 323 322 321 322 319 323 323 323 323 323 328 336 338 341 340 340 343 342 343 343 341 334 334 332 328 329 327 325 321 316 319 325 328 329 330 331 327 317 317 317 318 320 321 322 325 326
318 320 322 321 320 319 322 322 322 322 322 322 323 327 335 334 340 340 340 342 341 342 342 341 340 334 334 335 332 330 328 325 320 317 321 326 328 330 329 326 319 318 319 320 322 323 325 326 327
319 320 322 323 323 322 323 322 323 321 321 321 322 322 326 325 334 339 340 340 341 341 341 340 341 341 337 332 335 334 333 329 326 319 318 325 330 331 329 327 320 320 321 323 325 325 326 325 326
320 320 321 321 321 322 323 324 323 323 322 322 323 323 323 327 325 335 338 340 340 341 341 339 341 342 341 339 335 337 335 335 331 326 317 327 328 331 330 326 322 323 325 328 327 326 327 326 325
317 318 320 321 321 320 321 322 322 322 323 323 323 323 323 325 328 330 334 337 339 340 340 340 339 341 341 341 338 338 337 336 335 329 328 327 328 329 325 324 327 325 328 328 327 328 326 324 323
320 319 319 319 319 319 319 319 320 320 322 322 322 322 323 322 325 326 327 331 332 336 339 340 340 340 341 341 340 339 336 335 335 334 332 330 329 328 323 327 328 327 328 328 328 327 325 324 320
320 319 318 318 319 318 319 318 318 320 320 320 320 320 322 322 322 324 326 326 327 330 333 338 340 340 341 340 341 339 336 337 337 335 333 333 329 327 328 329 328 328 328 327 326 326 325 321 314
319 318 320 318 318 318 318 319 317 318 318 318 319 319 319 320 321 322 323 324 326 327 327 336 339 338 340 341 340 339 338 338 338 335 334 333 329 330 330 330 329 329 327 326 325 324 324 316 312
316 316 318 318 316 318 317 318 317 317 317 316 317 318 319 319 319 320 320 323 324 326 326 327 337 337 337 340 340 340 339 338 337 336 334 333 330 330 331 331 329 327 326 326 325 323 315 311 312
316 316 315 315 316 316 316 315 314 318 316 315 316 318 319 319 319 319 319 320 320 323 325 325 327 335 335 336 338 339 336 338 337 336 334 333 332 331 332 331 328 327 327 326 325 322 311 312 313
315 315 315 314 314 313 313 313 312 312 314 313 314 315 316 318 320 319 319 319 319 320 320 322 326 327 335 336 338 338 337 336 335 336 334 333 332 332 331 330 328 327 327 326 325 318 311 313 313
315 314 315 314 313 312 311 312 312 311 312 313 313 313 314 315 317 319 319 319 319 320 320 320 322 326 329 335 334 336 335 335 333 334 334 333 333 332 332 330 328 327 328 327 326 315 311 313 313
314 314 314 313 312 311 310 311 311 312 311 312 313 313 313 314 314 315 316 317 318 318 320 320 321 324 326 326 327 329 333 335 332 333 334 333 333 333 332 331 329 328 328 327 325 313 311 312 313
314 312 313 313 312 313 310 313 309 311 310 311 312 312 313 313 314 315 315 315 315 316 317 319 320 321 322 326 326 326 330 331 334 333 335 334 333 333 332 331 329 328 328 326 320 312 312 312 312
313 311 311 311 310 308 310 310 309 309 312 311 310 311 314 316 316 315 315 315 315 315 315 315 317 319 320 323 325 325 327 329 330 332 333 333 333 332 333 331 328 327 326 320 313 311 311 311 311
311 311 311 311 309 309 309 310 309 311 311 310 309 312 313 314 314 314 314 314 314 314 314 314 314 317 318 321 324 325 325 328 330 332 330 332 332 331 330 329 326 325 324 315 311 311 311 310 309
311 309 305 315 313 309 310 311 309 310 310 310 309 311 313 312 312 312 312 312 313 313 312 313 313 314 318 320 322 325 326 326 327 328 328 329 331 330 329 327 325 323 319 310 310 310 310 308 306
311 310 305 309 309 312 310 312 310 308 310 311 312 313 312 312 312 312 311 312 313 314 314 314 314 313 313 319 321 323 327 330 329 329 328 329 329 329 328 326 323 318 312 309 308 309 308 306 303
312 310 309 307 308 304 308 307 306 307 308 307 310 310 311 311 312 311 312 313 313 313 312 312 314 314 313 315 324 325 327 331 330 329 330 328 327 326 326 323 319 311 309 306 307 307 306 303 300
310 309 308 301 303 307 309 308 309 311 309 308 307 309 312 312 311 312 313 313 313 312 310 312 315 314 314 321 326 326 327 331 329 329 327 325 324 323 322 318 310 307 304 305 304 304 302 300 298
312 313 309 306 305 305 309 309 307 310 310 310 309 310 311 312 312 312 312 312 312 311 311 314 315 314 316 325 326 326 327 329 328 324 322 322 322 319 316 313 311 306 304 302 304 302 298 297 296
309 310 309 301 302 302 308 310 308 309 308 309 311 313 313 313 312 312 312 311 311 310 310 316 317 316 320 323 325 325 326 326 324 324 321 322 318 314 312 306 305 304 306 303 305 305 298 296 295

GFSSGP_850_thetae_054.txt.gz
Theta_e
323 322 323 325 321 319 323 324 322 323 321 325 326 326 327 330 332 333 338 338 341 340 337 338 341 340 339 337 335 335 335 333 332 333 332 331 330 326 323 316 316 319 332 325 317 319 335 336 332
323 322 324 325 321 322 322 320 322 321 323 324 325 324 326 337 340 339 339 339 340 337 336 336 338 332 329 326 329 331 330 329 333 333 332 326 326 324 315 310 310 311 326 330 316 332 335 333 332
322 322 325 320 319 322 321 320 320 322 324 324 325 325 331 335 335 337 339 340 341 337 334 336 336 332 329 325 327 327 326 324 329 332 327 325 324 313 311 311 311 313 330 331 323 334 333 333 330
320 323 325 321 323 320 320 320 319 320 323 324 326 325 335 336 336 336 339 340 341 340 334 335 336 334 324 323 323 324 320 318 319 322 322 324 314 312 311 311 311 314 326 329 332 332 332 331 331
324 324 321 321 321 319 318 319 321 319 321 324 325 325 334 339 338 337 337 338 341 336 335 335 336 330 321 319 316 315 314 314 314 315 324 320 313 313 312 311 311 311 323 326 330 331 331 330 318
322 322 321 322 320 319 317 320 319 319 321 323 324 329 334 338 338 338 340 339 341 336 335 335 333 328 321 318 317 315 315 316 315 314 315 313 316 315 313 313 312 311 313 321 320 316 314 313 315
318 316 321 320 320 320 319 321 319 319 320 322 324 322 336 339 339 337 341 343 341 340 336 334 332 329 323 321 319 316 315 316 316 315 314 316 319 319 316 314 314 315 315 314 315 315 317 319 320
320 316 320 318 320 319 318 320 321 319 319 323 324 327 334 337 341 341 342 342 343 344 343 343 340 330 327 323 323 319 315 316 317 317 319 321 324 326 322 315 315 316 316 317 317 318 320 320 321
320 318 320 321 319 319 320 321 322 322 321 322 324 326 326 335 339 341 342 342 343 345 345 344 343 338 328 326 325 323 318 315 317 319 323 327 329 331 328 321 316 316 316 318 319 320 321 322 323
318 317 320 319 319 320 320 322 322 321 321 321 325 330 335 338 340 339 341 342 343 344 344 343 341 337 332 328 327 326 323 318 317 319 323 326 328 329 330 325 316 317 318 320 321 322 324 325 324
317 319 319 321 322 322 322 321 322 321 320 319 323 337 338 338 339 339 340 340 341 342 343 342 341 337 332 331 328 328 326 324 319 317 320 324 325 328 328 326 320 318 320 321 322 323 324 325 326
319 318 320 320 321 320 320 322 322 322 322 322 322 323 330 338 340 339 339 340 340 341 340 341 340 339 338 335 333 330 329 328 326 319 318 321 324 327 326 326 320 320 321 324 325 326 326 325 324
317 318 319 320 320 319 319 320 321 322 323 323 323 322 322 322 333 338 338 338 338 338 339 339 339 339 339 339 336 333 335 334 332 327 319 320 323 326 327 327 322 322 324 326 326 326 326 326 324
318 318 318 318 318 319 318 318 319 320 322 322 322 322 321 322 323 327 335 339 339 339 339 339 339 339 339 339 339 337 335 333 333 329 325 319 323 327 327 326 324 326 326 327 327 327 327 325 324
319 320 318 318 318 318 319 319 316 319 320 320 321 321 321 320 322 322 324 325 328 334 339 340 340 339 339 339 340 339 338 336 334 333 329 328 327 327 327 322 325 327 326 327 327 327 327 325 322
318 317 320 318 318 318 318 320 317 319 319 319 319 318 318 318 318 322 323 324 325 324 327 336 337 339 339 339 339 337 338 337 336 335 335 331 330 328 328 325 327 328 328 328 327 326 325 324 320
315 317 317 317 316 317 316 318 316 318 317 317 317 318 318 318 318 318 321 323 324 324 323 324 335 336 337 338 339 336 337 337 335 337 336 333 332 331 328 328 329 328 328 328 326 325 323 321 312
317 317 315 315 313 315 315 316 314 316 315 316 317 317 316 317 319 318 318 320 323 324 324 323 323 333 336 336 336 337 335 337 336 337 336 334 332 332 329 329 329 329 328 328 325 325 323 315 311
315 315 314 313 313 312 311 311 311 312 312 312 313 314 315 317 318 318 319 319 319 320 322 321 322 322 331 334 335 335 336 337 337 335 336 335 333 332 330 330 330 330 329 326 326 325 324 311 312
316 315 314 312 312 312 310 310 310 311 311 312 313 313 313 314 316 317 318 319 319 319 319 319 320 320 321 331 333 334 332 335 332 332 334 335 333 332 331 330 331 331 329 326 326 325 324 311 312
313 313 313 314 311 310 309 310 310 309 310 311 312 312 312 313 314 314 316 317 318 318 319 319 319 319 320 322 330 333 333 332 332 331 332 333 334 333 331 331 331 331 329 327 327 326 322 311 312
314 311 312 312 311 311 309 311 309 309 308 308 310 311 312 313 314 314 314 314 314 315 317 318 318 320 320 321 326 330 333 331 330 330 330 332 332 333 331 331 331 331 329 327 327 325 317 311 312
312 310 311 310 309 308 309 310 308 308 311 311 310 309 312 313 315 315 315 314 314 315 315 315 315 316 318 320 322 329 331 331 328 328 329 329 332 332 330 329 331 331 329 327 326 323 317 311 311
310 310 309 309 306 303 308 310 309 309 310 310 308 311 312 313 314 314 314 315 314 314 314 315 315 315 315 316 319 320 325 329 329 328 327 329 329 331 330 328 330 330 329 327 325 322 314 310 310
309 306 302 303 303 307 308 309 309 308 309 309 308 310 310 311 312 312 313 313 314 314 314 314 314 314 314 314 317 320 320 323 325 327 327 327 328 329 328 327 328 328 327 325 324 315 311 309 308
309 307 304 306 310 310 308 311 310 308 307 307 309 310 311 311 311 311 311 312 312 312 312 312 312 312 312 313 313 315 321 321 324 326 326 325 326 327 327 327 327 325 325 324 319 312 308 306 306
312 308 307 305 302 302 306 305 304 307 306 306 308 310 311 312 313 312 311 313 313 312 312 313 313 313 313 312 312 313 315 322 324 324 325 327 327 327 327 325 323 321 322 321 314 309 307 304 304
309 308 308 298 300 305 307 307 307 309 310 308 307 309 312 313 313 313 313 312 312 313 312 312 312 311 310 312 314 313 313 320 324 325 324 326 326 326 325 324 322 318 318 313 308 305 303 302 300
311 310 306 304 303 303 307 308 305 308 309 308 307 310 312 313 313 312 313 313 312 312 311 312 311 310 313 314 314 313 315 323 326 325 325 326 325 325 323 322 319 312 309 306 304 303 300 298 297
309 309 306 301 300 298 307 307 307 306 307 307 309 311 313 314 312 312 312 311 311 311 310 310 310 311 316 314 314 314 324 327 327 324 325 325 325 322 320 318 311 307 305 306 302 299 300 304 298

GFSSGP_850_thetae_057.txt.gz
Theta_e
323 323 322 325 320 318 322 322 320 321 322 323 324 323 326 328 330 330 338 338 338 338 343 343 341 341 341 339 339 340 340 341 334 333 333 333 332 330 326 322 316 322 325 334 323 329 331 334 330
322 322 322 324 319 321 320 319 321 320 321 322 323 325 330 335 338 337 338 339 339 338 338 342 342 339 341 339 338 338 334 331 331 330 329 326 325 323 319 312 311 317 327 326 321 327 334 335 331
322 322 325 320 319 320 318 318 319 321 321 322 323 324 330 334 336 335 336 338 341 338 333 335 338 341 338 333 333 332 332 329 329 327 325 324 322 317 310 310 310 330 331 329 329 336 333 331 330
320 322 323 321 322 320 318 320 318 318 322 322 323 330 334 335 336 336 337 339 340 336 333 331 332 331 330 327 328 329 332 338 338 330 320 323 319 311 311 311 311 323 331 328 336 333 332 332 330
319 324 321 322 321 320 317 319 320 318 319 321 321 325 333 336 336 337 338 338 340 338 334 332 328 328 327 326 327 325 326 325 330 319 319 319 312 312 311 311 311 318 324 329 330 331 331 331 323
322 321 319 322 321 318 316 319 319 318 319 321 321 329 334 337 336 337 339 340 341 338 334 333 331 328 323 323 322 319 316 315 315 315 318 315 312 312 312 311 311 313 321 325 328 327 324 316 314
318 317 321 319 319 316 318 320 318 318 318 319 321 328 334 336 337 337 340 341 343 338 333 333 329 326 321 318 317 315 315 316 316 314 314 313 314 313 313 313 312 312 315 319 315 314 314 317 319
320 315 318 318 319 319 318 319 320 319 319 322 321 329 336 334 337 338 342 343 342 340 336 332 327 326 322 319 319 316 315 316 316 315 314 314 316 316 314 314 315 315 315 315 316 317 319 320 321
319 317 319 318 318 319 318 320 321 321 320 320 321 324 328 330 336 339 343 343 342 342 340 338 338 335 324 322 321 319 315 316 316 317 317 317 319 321 318 315 315 316 316 317 318 319 320 321 322
317 316 318 318 317 319 319 320 321 321 320 320 324 327 332 334 338 336 338 341 343 342 342 342 342 341 336 326 324 322 318 316 317 318 321 323 327 328 324 319 316 316 317 318 319 320 322 324 324
317 317 317 320 321 321 320 320 322 321 320 319 321 334 336 338 339 338 337 335 331 339 342 342 342 341 338 332 326 324 322 318 318 319 323 324 326 327 329 325 316 317 318 319 320 322 324 325 325
319 317 319 319 320 320 319 320 321 322 321 321 322 328 335 338 338 339 338 336 338 339 340 341 341 341 338 334 329 326 325 323 320 318 319 323 324 326 328 326 321 318 319 321 322 323 324 325 325
317 317 319 319 320 319 319 318 319 321 321 321 322 322 323 326 337 338 339 339 340 339 340 340 340 340 338 336 333 331 328 327 325 322 318 320 322 324 327 325 323 320 321 322 324 325 325 325 325
318 318 318 318 318 318 318 317 319 319 320 321 321 321 322 322 322 325 336 339 340 340 341 339 339 339 339 338 338 336 333 331 331 329 324 319 320 323 327 327 326 322 322 324 326 326 326 326 325
319 319 317 317 318 317 318 318 316 319 320 320 320 319 320 320 321 321 323 331 338 339 339 339 338 339 339 338 339 338 336 334 333 332 331 326 320 322 326 327 326 325 325 327 327 327 327 326 325
317 317 319 317 317 317 318 319 316 318 319 319 319 320 320 319 320 320 321 322 323 328 333 337 339 339 340 339 338 338 336 337 336 334 332 329 325 322 326 327 324 324 327 327 327 327 326 326 324
315 317 317 317 316 317 316 317 316 317 317 317 318 318 317 317 317 318 319 321 322 322 322 323 327 338 339 338 338 337 337 337 337 336 333 332 330 328 328 327 326 326 328 327 327 327 326 325 323
317 317 315 316 314 314 315 314 314 316 315 315 316 317 317 317 317 317 318 318 319 321 322 322 321 322 325 336 337 336 337 337 337 337 334 333 333 331 331 329 327 327 328 328 327 327 325 324 320
314 315 315 313 312 312 311 310 310 311 311 311 313 316 316 317 317 317 317 318 318 318 321 322 321 320 320 326 337 336 335 336 337 336 335 334 335 333 331 331 328 328 329 328 328 327 325 324 320
316 316 315 313 311 311 310 309 310 310 311 312 312 313 314 314 315 317 317 318 318 318 318 320 320 320 319 320 326 333 334 334 333 334 335 335 334 333 332 331 329 329 329 329 329 328 325 324 319
315 314 313 313 311 308 308 309 309 309 310 311 311 312 312 313 313 314 314 315 317 318 318 318 319 319 319 319 319 326 333 334 333 332 332 332 332 333 333 331 329 330 330 330 330 328 326 325 320
314 311 312 311 311 312 308 310 308 308 307 307 309 311 310 311 312 314 313 313 313 314 317 317 318 317 317 318 319 320 322 328 331 332 330 331 330 331 331 330 329 329 330 330 329 327 326 325 319
312 310 310 309 308 308 309 310 308 306 310 309 307 308 309 310 311 313 314 314 314 314 313 314 315 315 316 316 319 319 320 326 331 330 331 329 329 329 329 329 329 329 330 330 328 326 325 325 317
309 308 307 306 305 304 307 309 307 308 309 307 307 307 309 310 310 312 314 314 314 314 314 314 314 315 315 315 315 316 320 322 329 331 332 331 329 328 328 328 327 327 328 329 329 325 323 322 317
308 307 305 304 303 306 307 309 308 308 307 308 306 308 311 312 312 312 311 313 313 314 314 314 314 314 314 314 314 314 316 320 321 323 329 331 330 327 327 327 327 328 327 328 326 323 323 319 317
309 307 305 305 307 309 307 310 309 306 305 306 308 310 312 313 313 313 313 312 312 312 312 313 313 313 313 313 313 313 313 314 317 321 321 326 329 328 326 326 327 326 326 325 323 318 321 318 309
310 306 306 305 301 302 306 304 303 307 306 306 308 310 312 313 314 313 312 312 313 312 312 313 312 312 312 312 312 312 312 312 313 317 321 324 326 327 327 325 326 326 323 322 320 316 313 311 308
309 307 307 299 303 306 306 305 305 308 308 307 305 308 311 313 314 313 313 313 312 313 312 312 312 312 312 312 311 310 310 312 313 313 320 323 324 324 325 325 325 324 321 319 316 310 308 306 304
309 307 304 304 303 305 307 305 303 306 308 307 305 309 311 313 315 314 313 313 313 312 311 312 311 311 311 311 311 311 311 313 313 313 316 324 324 325 324 325 323 322 320 315 312 308 305 303 300
308 308 305 302 302 298 305 305 306 306 305 307 308 311 314 315 314 314 312 313 314 314 312 311 311 310 310 310 310 313 314 314 314 315 321 324 325 324 323 322 321 318 312 309 306 303 302 303 305

GFSSGP_850_thetae_060.txt.gz
Theta_e
322 322 322 323 319 317 320 320 318 320 321 320 321 322 323 326 330 331 337 338 334 331 340 342 344 340 337 339 339 340 339 339 340 337 337 337 336 333 331 327 322 322 324 329 329 333 330 330 329
322 323 321 323 318 319 318 318 320 319 320 320 322 326 327 331 337 336 338 335 337 333 340 341 341 339 339 341 340 340 340 340 340 334 333 332 331 327 322 315 313 319 330 326 325 330 334 332 330
322 322 323 319 317 319 317 316 317 319 320 320 321 323 325 332 336 335 336 335 336 335 334 339 340 341 341 340 340 339 339 339 339 335 330 325 322 320 311 310 311 330 326 318 323 335 336 331 330
322 322 321 320 321 319 316 318 316 317 320 321 320 321 332 334 335 335 336 337 336 337 335 339 341 338 341 339 338 339 340 339 335 334 326 322 318 311 311 311 314 332 328 330 336 336 331 331 329
320 322 320 321 321 319 317 318 319 318 319 319 320 319 329 336 335 335 337 338 337 337 334 337 339 339 336 337 333 338 337 337 337 333 322 319 312 311 311 311 312 324 327 334 334 332 331 330 328
322 320 318 322 321 319 317 320 320 318 318 319 319 323 332 337 336 336 337 339 340 336 335 335 337 332 329 329 334 337 332 331 334 323 318 317 312 311 311 311 311 317 326 328 331 330 330 328 313
318 318 320 318 320 319 317 318 317 317 318 319 320 327 330 336 335 337 338 339 340 339 335 335 332 326 325 322 324 323 319 318 318 316 317 316 313 312 312 311 311 314 319 323 324 322 316 313 317
319 316 318 318 318 319 317 318 319 319 319 320 320 321 327 333 333 338 339 340 341 340 337 334 332 327 321 318 318 316 315 315 316 315 316 314 314 313 313 313 313 313 315 315 314 314 317 319 319
318 316 317 318 318 318 317 317 319 320 320 320 320 321 327 330 336 338 340 341 342 340 336 335 332 326 323 318 318 317 316 315 316 315 314 314 317 316 314 314 315 315 315 316 316 318 320 320 321
316 316 317 316 315 317 318 319 320 321 319 320 320 326 326 331 336 334 337 338 340 339 338 335 332 334 332 322 320 319 317 315 316 316 316 316 319 321 318 315 315 316 316 317 318 320 321 321 322
317 317 316 319 319 320 319 320 321 320 320 319 320 328 333 337 339 339 339 337 337 340 340 339 339 340 339 334 326 322 321 317 316 317 318 319 324 327 326 321 316 316 317 318 319 321 322 324 323
318 316 317 318 319 320 319 319 319 320 320 321 321 322 331 337 340 337 337 337 337 336 338 340 340 341 340 338 334 326 324 321 318 318 319 322 324 326 328 326 317 317 318 319 321 322 325 325 325
317 317 318 319 319 319 319 318 318 319 320 321 321 321 322 327 337 339 339 340 339 337 338 339 339 339 339 338 336 331 327 325 323 320 319 320 322 324 325 327 322 319 319 320 321 323 324 325 324
317 318 318 318 318 317 317 317 317 318 319 319 320 320 320 321 322 328 337 339 339 337 338 338 339 339 338 338 337 335 332 330 327 325 322 319 320 322 324 327 325 323 320 321 323 325 325 325 325
318 317 316 316 317 317 317 316 315 318 318 319 319 319 320 320 320 321 321 328 337 338 338 338 338 339 338 338 337 336 336 336 332 330 328 326 321 320 322 326 326 325 321 322 324 326 326 326 326
317 317 320 317 316 317 318 317 315 317 318 318 318 318 318 319 320 320 320 320 321 330 338 339 340 339 338 338 337 337 336 336 336 333 333 332 331 325 320 325 327 327 325 325 326 327 327 326 326
317 317 318 318 316 316 316 317 315 316 315 316 317 317 317 318 318 319 319 319 320 319 322 331 336 337 338 339 339 338 336 336 336 335 334 334 332 329 321 323 327 327 324 326 326 327 327 326 325
319 317 316 317 314 314 315 313 313 315 315 314 316 316 316 316 316 316 317 317 317 318 318 320 321 323 324 329 336 336 335 336 336 334 335 334 333 332 328 324 327 327 323 326 327 327 327 326 324
314 314 315 313 312 312 311 309 309 310 310 309 312 314 316 317 317 317 317 317 317 317 317 318 319 321 321 322 325 330 334 335 334 334 335 333 334 333 332 329 329 328 326 326 327 327 327 326 324
315 315 315 313 311 311 310 309 309 310 310 311 312 313 314 314 315 316 316 316 316 317 317 318 318 318 320 320 321 321 323 331 332 333 332 332 333 332 331 331 330 329 327 327 328 328 327 326 323
316 315 314 314 310 308 307 309 308 308 309 310 311 311 311 309 310 312 312 313 313 314 316 317 318 317 318 318 319 319 321 326 333 332 332 332 331 332 331 331 330 329 329 328 328 328 328 327 325
315 312 312 311 311 313 307 312 308 307 306 306 307 307 308 308 309 310 311 313 313 313 313 314 316 317 316 317 317 318 319 320 321 324 328 331 331 330 330 331 329 328 330 329 329 329 328 327 324
312 310 309 308 308 308 309 310 308 306 309 305 303 308 311 312 312 311 311 313 313 313 313 313 314 316 317 316 316 317 318 320 322 322 328 330 330 330 329 328 328 327 329 329 329 329 328 327 325
308 307 306 304 305 303 307 308 306 307 307 307 305 309 311 313 313 312 311 312 312 313 313 313 313 313 314 315 315 315 315 317 319 320 323 329 329 330 330 329 327 327 327 327 328 328 327 327 325
308 308 303 302 303 306 307 308 307 306 307 307 306 309 312 314 314 313 312 312 311 312 312 313 313 313 314 314 314 314 314 314 315 318 322 327 330 329 330 329 328 327 326 327 327 327 326 325 323
308 308 306 304 306 308 306 309 308 304 303 307 308 309 312 314 314 314 313 312 312 312 312 312 312 312 312 313 313 313 313 313 314 315 317 320 321 325 327 329 329 327 326 326 327 325 324 323 321
309 305 305 303 300 302 306 305 303 305 306 306 307 311 312 315 315 314 313 313 313 314 313 312 312 312 312 312 312 312 312 312 312 312 312 315 319 322 325 326 328 328 326 326 325 324 322 319 316
308 305 307 300 305 305 304 304 304 307 308 306 305 308 311 315 316 315 314 313 313 314 314 312 312 312 312 312 312 312 311 310 310 310 311 312 313 320 324 324 326 326 327 324 324 322 319 312 308
309 308 304 303 302 304 307 305 303 304 306 307 305 309 311 315 315 315 314 313 312 313 314 314 311 311 312 311 310 310 310 310 310 311 312 313 313 317 324 325 325 325 323 322 320 317 311 304 302
308 308 304 303 303 301 303 306 304 304 305 306 307 309 312 315 314 313 313 313 313 313 313 313 312 312 311 310 310 310 310 311 314 314 314 316 317 319 325 324 321 320 320 319 313 308 302 301 302

GFSSGP_850_thetae_063.txt.gz
Theta_e
322 321 322 322 324 322 323 322 318 321 321 319 320 322 324 324 333 336 334 337 331 331 336 344 342 340 339 340 340 340 341 340 343 339 339 339 338 337 336 332 327 324 325 325 333 332 330 329 327
322 322 322 322 324 323 322 320 321 321 320 320 320 320 327 331 335 335 337 337 334 332 339 343 342 339 338 339 340 340 338 339 339 339 336 336 335 332 327 321 316 317 326 325 332 336 333 329 329
321 322 322 324 321 323 322 318 320 318 320 319 320 322 324 330 335 336 336 334 336 333 334 344 342 338 339 340 339 339 340 339 338 335 328 326 327 322 317 311 314 319 326 324 332 334 336 330 330
322 322 320 324 324 320 319 319 316 318 319 320 320 321 326 333 335 336 337 336 337 333 335 341 339 337 340 341 339 339 338 338 337 336 329 322 320 313 310 311 331 326 319 324 331 336 335 330 330
321 321 323 323 323 320 317 317 317 319 319 320 319 321 322 333 335 336 337 337 337 336 337 339 340 340 340 339 339 340 339 338 337 334 324 320 314 311 311 312 331 329 327 333 335 333 329 331 329
321 319 323 325 323 321 319 320 319 319 318 319 319 320 325 334 336 335 337 337 338 337 336 338 341 338 339 337 337 338 339 338 338 331 326 320 312 311 311 311 315 324 327 334 333 331 331 330 323
320 321 322 320 322 321 319 319 318 319 318 318 320 323 326 333 336 336 337 338 338 337 334 336 336 336 331 331 341 339 339 337 338 332 325 320 312 312 311 311 315 321 326 329 330 329 328 321 314
319 319 320 319 320 321 317 318 318 318 318 319 320 321 323 330 336 337 338 338 338 338 335 334 334 328 327 322 323 328 327 329 334 333 321 320 313 312 312 311 313 318 321 323 322 317 314 315 318
317 320 320 320 319 319 316 316 317 318 318 319 319 320 323 328 335 338 339 339 339 338 337 335 334 330 326 321 320 320 318 317 318 325 316 317 315 314 313 313 313 315 318 316 314 315 318 319 320
317 319 319 317 317 317 317 318 320 320 318 319 319 320 322 324 335 337 338 335 337 338 337 335 334 331 326 322 318 318 317 316 316 316 316 315 317 317 314 315 315 315 315 315 316 318 319 320 321
316 318 316 318 317 319 319 319 320 320 321 320 319 325 330 330 341 339 340 339 337 339 338 337 335 332 331 329 321 320 320 318 316 316 316 315 318 320 319 315 315 316 316 317 318 319 320 322 322
317 316 316 317 319 320 319 319 319 320 320 320 321 321 326 334 341 340 338 339 336 338 338 338 336 335 337 338 333 326 322 321 318 316 317 317 318 322 326 321 317 316 316 318 319 320 321 323 324
317 317 317 318 318 318 318 318 319 319 319 320 320 320 321 324 337 339 338 339 339 338 338 338 339 339 339 339 338 335 329 325 322 318 317 319 321 323 325 328 324 317 318 319 320 321 322 323 323
317 318 317 317 317 318 317 316 317 318 318 318 319 319 320 320 321 331 337 339 339 338 338 337 338 339 340 339 338 337 334 330 327 324 321 319 320 321 324 326 328 321 318 319 321 322 323 324 324
316 317 317 317 316 317 317 317 316 317 317 318 319 319 319 319 320 322 324 331 335 338 338 338 338 338 339 339 335 337 336 334 333 330 327 324 321 320 321 324 327 326 323 320 321 323 325 325 325
318 317 320 318 316 316 317 316 315 316 317 317 317 317 316 317 318 321 322 321 320 324 333 337 338 338 338 335 334 334 334 335 335 335 332 330 328 325 321 322 326 326 325 321 321 323 325 326 326
318 319 318 319 316 317 317 317 315 315 315 316 316 316 316 316 316 316 318 319 320 319 320 325 335 337 338 336 335 333 333 334 335 335 335 334 332 332 329 323 322 327 328 326 324 324 326 326 326
319 317 317 318 315 315 316 316 314 315 313 313 314 315 316 316 316 315 316 317 318 317 317 319 321 328 336 336 335 334 335 333 335 334 335 334 334 334 333 330 322 325 329 328 325 326 326 326 326
315 315 316 314 312 312 312 312 311 311 310 310 312 314 315 316 316 316 317 317 316 316 317 317 318 320 324 326 328 328 331 332 332 332 332 332 333 333 332 331 326 322 327 327 324 326 327 327 326
315 315 315 312 310 312 310 311 311 311 311 311 311 312 312 312 313 314 315 316 316 315 316 317 317 317 318 321 322 322 325 330 330 331 331 330 331 332 332 331 331 327 326 327 326 325 327 327 326
315 316 313 314 310 308 308 311 309 308 307 307 307 308 308 309 309 310 311 312 313 314 315 315 316 317 317 317 319 320 322 324 323 323 327 329 329 330 331 331 331 331 329 329 328 326 327 327 326
319 313 312 311 313 317 308 316 311 307 306 305 307 310 311 311 310 310 311 311 312 312 312 313 315 315 317 317 317 317 319 320 320 321 321 325 326 330 331 331 330 329 329 330 329 327 327 328 327
315 312 310 309 309 310 310 313 311 306 306 306 306 310 312 312 312 311 311 312 312 312 312 312 312 313 315 316 316 316 317 317 318 319 320 320 322 326 331 331 329 328 329 328 329 329 327 327 327
308 308 306 305 306 310 307 309 308 308 307 307 307 310 312 313 313 312 312 311 312 312 312 312 312 312 312 313 314 314 315 316 317 318 319 319 321 322 328 331 331 330 327 327 327 328 328 327 327
308 310 309 308 310 311 306 308 308 306 306 307 308 309 312 314 314 313 313 312 312 311 312 312 312 312 312 312 313 313 314 315 316 316 317 319 320 322 322 328 329 329 329 328 326 327 328 327 326
308 311 310 308 310 308 306 311 308 304 303 307 307 309 312 315 315 315 314 313 313 313 313 311 311 312 312 312 312 312 312 313 313 314 315 317 319 320 323 324 325 327 328 328 327 326 327 327 326
309 310 304 303 301 306 307 306 304 305 306 306 307 309 311 315 315 315 315 314 314 314 314 314 313 312 312 312 312 311 311 311 312 312 312 312 313 315 318 322 324 327 327 328 327 327 326 325 323
308 305 309 303 306 310 305 304 307 306 307 307 306 307 310 314 315 314 314 314 312 312 313 314 314 314 312 312 312 312 311 311 311 310 310 310 310 311 313 315 320 324 326 327 327 326 324 323 321
309 308 304 304 304 307 308 306 302 306 307 306 306 307 311 313 314 313 312 312 313 313 313 313 313 313 311 311 311 311 310 310 310 311 311 311 311 311 313 315 317 324 323 324 324 324 323 320 316
307 307 304 305 306 303 305 307 303 303 304 304 305 307 311 313 312 312 312 312 312 313 312 311 312 312 311 311 310 310 310 310 310 310 310 311 312 313 316 319 319 322 322 321 321 320 317 312 305

GFSSGP_850_thetae_066.txt.gz
Theta_e
321 321 322 323 326 325 326 325 324 326 325 323 322 324 327 327 333 336 334 339 338 341 343 340 338 333 335 339 337 337 339 340 341 343 340 340 339 338 337 335 331 328 327 330 333 332 328 328 325
322 322 323 324 325 327 326 324 325 324 324 322 322 323 325 332 335 342 341 337 340 345 345 342 338 333 343 338 339 341 341 340 340 341 340 339 338 336 332 326 320 317 323 329 335 335 329 327 328
321 322 324 325 326 326 326 324 323 323 322 322 324 324 327 331 337 342 339 336 343 345 346 346 341 340 342 340 339 341 339 339 339 339 337 333 333 329 323 317 314 320 324 325 336 336 334 329 329
323 323 323 327 327 325 324 323 322 322 322 321 322 325 326 333 337 341 335 338 343 345 346 343 340 337 340 341 341 339 339 339 338 336 327 321 325 321 311 311 321 323 322 331 336 336 335 330 329
323 324 327 328 327 325 324 323 321 323 322 322 321 325 325 336 334 336 337 340 345 345 346 343 341 337 341 342 339 340 339 338 334 334 326 319 315 311 311 317 330 324 329 331 335 335 333 329 329
323 324 327 328 327 325 324 323 322 322 322 322 321 323 326 331 337 337 339 343 344 345 346 345 340 338 340 341 339 340 340 338 338 336 329 318 312 311 311 320 332 330 331 331 334 333 329 330 326
323 325 326 325 325 325 324 323 323 322 322 322 321 324 327 337 336 337 343 345 344 342 343 346 342 340 340 340 339 339 339 337 339 336 330 320 312 312 311 312 321 329 332 334 333 331 330 328 314
319 323 324 324 324 325 323 321 321 322 322 320 320 323 325 336 336 337 338 345 344 338 343 346 344 339 340 337 334 336 338 339 338 337 333 323 313 312 311 312 318 325 329 331 331 328 326 315 317
319 321 321 323 323 322 321 321 320 320 320 319 320 322 326 327 334 338 340 343 340 339 343 343 342 340 339 338 336 337 336 332 337 336 332 324 316 313 312 312 315 319 324 326 324 317 314 317 319
318 319 319 319 320 320 318 320 320 320 319 320 320 322 324 327 329 338 340 341 340 339 338 341 341 340 338 335 334 335 334 330 330 328 326 329 325 323 319 313 314 316 319 318 315 315 318 320 322
318 320 319 319 318 319 319 320 321 321 322 321 321 323 332 327 330 340 342 340 339 338 338 336 336 339 338 335 333 334 334 333 333 332 331 331 326 319 315 315 315 315 315 316 316 318 320 323 325
320 318 318 318 320 320 321 320 321 321 321 321 322 322 325 337 338 343 346 341 337 337 336 337 335 334 336 336 329 328 327 328 330 331 330 329 327 326 326 323 322 319 318 325 326 328 326 321 322
321 319 318 317 319 320 319 321 320 321 321 321 321 320 321 326 337 340 342 342 340 338 337 338 337 335 336 338 336 333 329 324 323 322 323 323 327 328 330 330 324 321 324 325 326 326 323 324 324
319 319 318 318 318 319 319 319 319 319 320 320 320 320 320 321 323 335 340 339 339 337 338 337 338 338 337 338 337 337 335 331 326 324 321 318 324 327 330 330 329 326 318 323 325 326 323 323 323
318 320 319 319 318 318 318 319 319 318 318 318 318 318 319 319 320 321 325 334 340 341 339 337 337 338 339 339 339 338 337 336 332 329 326 322 320 322 326 330 329 328 324 320 322 324 322 323 324
320 319 321 318 318 318 317 317 317 317 317 317 317 317 317 318 318 319 320 321 322 328 337 341 338 337 338 339 339 338 337 336 335 334 332 329 326 323 321 323 328 328 328 325 322 321 322 324 325
319 319 318 319 318 317 318 317 316 316 316 317 317 317 317 317 316 317 318 319 319 320 320 323 331 333 336 337 338 337 336 335 335 335 334 334 333 330 326 325 324 326 329 327 324 322 322 325 325
320 319 318 318 319 318 317 317 317 316 316 317 317 317 317 317 317 316 316 316 317 318 319 319 320 321 325 334 337 337 336 333 334 333 334 335 335 334 332 330 330 326 328 328 327 325 322 324 326
316 318 317 317 315 320 319 319 318 317 317 316 316 316 316 316 316 315 316 316 316 316 317 318 318 318 324 328 330 337 335 329 328 331 334 334 333 332 333 333 332 331 326 326 328 327 325 325 326
317 318 317 315 316 315 316 317 316 316 316 315 315 315 315 314 313 313 315 315 316 316 316 316 317 317 317 329 322 327 334 334 330 331 330 331 329 330 331 332 332 331 329 325 326 328 327 325 326
318 317 317 317 313 313 314 317 317 312 310 309 309 310 310 310 310 310 311 313 314 315 316 316 316 317 317 317 327 328 326 326 326 327 328 330 331 331 331 331 331 331 331 328 323 326 327 325 326
319 316 317 315 317 320 313 319 314 310 311 311 312 313 312 312 311 311 311 311 311 311 312 313 314 315 316 316 321 329 325 323 322 322 324 326 325 328 331 330 331 331 330 330 329 327 327 327 325
318 314 315 315 316 316 315 318 314 311 313 313 313 314 313 313 312 312 311 311 311 311 312 312 312 313 314 314 315 323 328 328 322 322 321 321 321 321 326 328 330 331 331 330 329 328 328 328 326
311 311 311 312 314 320 315 315 313 311 312 313 313 313 314 314 314 313 312 312 312 312 312 312 312 311 312 313 314 315 324 327 328 327 325 319 319 319 321 323 326 329 331 330 329 329 329 328 328
312 317 319 320 319 318 310 313 313 310 310 313 314 314 314 315 315 314 313 313 313 313 312 312 312 312 311 311 312 313 313 319 326 325 327 325 326 321 320 321 323 324 326 329 329 329 328 328 328
314 315 318 317 317 314 310 314 312 308 308 310 310 310 313 315 315 315 315 315 314 314 314 313 312 312 312 312 312 312 312 312 313 314 320 324 324 319 319 322 325 328 328 327 326 328 328 327 327
313 317 309 311 308 313 313 311 309 308 309 310 310 311 314 315 314 314 315 315 315 315 315 315 314 314 313 312 312 311 311 311 312 312 312 313 314 315 315 317 319 322 326 327 327 327 328 327 326
312 309 314 314 316 315 311 311 313 311 311 311 312 312 313 314 314 313 312 313 314 314 314 314 314 314 314 313 312 311 312 311 311 311 311 311 310 310 311 311 312 314 317 322 324 325 326 325 324
311 313 310 311 310 313 311 310 311 312 312 311 310 310 312 314 313 311 311 311 312 313 313 312 312 312 312 312 311 311 311 311 310 310 310 310 311 311 311 311 312 314 319 322 323 323 324 323 322
310 312 311 316 313 310 312 311 308 312 310 308 308 309 312 312 309 310 311 311 311 311 310 311 311 311 312 311 311 311 311 311 310 310 310 310 310 310 311 312 314 316 317 320 319 319 320 319 318

GFSSGP_850_thetae_069.txt.gz
Theta_e
321 323 327 325 327 326 329 328 326 326 326 325 325 326 327 328 330 339 341 344 342 348 342 330 337 338 342 340 340 339 340 341 341 341 340 340 339 338 337 336 334 331 329 335 334 328 326 324 326
323 329 325 325 327 329 328 328 326 325 326 324 325 325 326 329 333 344 345 344 344 347 345 336 335 336 343 339 339 338 340 340 340 340 341 340 339 338 336 328 323 321 325 336 335 330 327 327 326
325 328 325 327 328 327 328 327 326 324 324 324 326 326 329 331 339 343 346 343 344 348 346 343 334 333 341 338 339 341 340 340 339 338 339 340 337 336 327 319 314 317 322 336 337 334 331 329 327
327 325 326 329 328 327 326 327 325 324 324 323 325 327 329 336 339 344 345 344 346 346 347 341 334 342 341 340 339 341 340 339 338 338 337 330 330 324 315 313 315 326 321 333 337 336 334 331 328
325 325 328 328 328 328 327 325 323 324 324 324 323 327 329 340 342 345 344 344 345 346 349 342 339 342 342 340 341 340 339 339 338 337 328 318 320 313 311 321 321 324 327 336 337 335 334 329 328
325 326 329 330 328 327 327 325 323 323 324 324 323 325 331 341 345 346 345 345 346 346 347 343 339 337 341 341 340 339 339 339 338 337 327 316 312 311 312 327 326 332 329 334 335 335 332 329 327
323 326 329 327 327 327 327 325 325 324 323 324 323 325 332 341 345 346 346 346 345 346 346 345 341 337 342 342 340 340 339 337 337 337 332 318 312 312 312 320 331 333 330 330 333 334 329 328 318
320 324 326 326 326 326 326 325 324 324 323 323 322 323 327 343 345 346 346 346 345 345 345 345 344 341 341 340 339 338 337 336 337 337 336 322 313 312 312 313 320 331 332 333 333 332 328 325 314
318 322 325 325 325 325 324 325 324 323 323 323 322 322 331 341 339 339 345 345 346 344 344 344 345 343 342 341 339 337 337 339 337 337 334 323 315 313 312 313 318 327 326 329 331 327 322 314 318
320 321 322 322 324 324 323 323 323 322 321 322 321 322 330 335 335 341 341 345 345 342 345 344 342 341 340 339 339 337 338 337 335 335 330 329 329 323 319 314 315 318 323 326 323 317 315 318 321
320 320 320 319 320 321 321 320 321 321 322 320 321 321 328 332 339 343 343 344 347 347 343 343 342 341 339 338 338 337 337 336 335 335 330 333 329 327 320 315 314 315 318 319 316 315 318 323 328
320 319 319 320 320 319 320 319 320 321 321 321 322 324 327 334 335 340 343 343 342 345 345 339 342 341 340 338 336 336 336 335 334 334 335 333 330 329 325 327 320 322 319 326 322 326 327 329 328
321 320 319 319 320 320 319 320 319 321 322 322 323 322 323 329 336 338 340 342 342 342 345 342 339 341 340 339 339 336 334 333 333 333 333 333 331 331 330 327 327 328 328 328 329 330 329 329 327
321 320 319 319 319 320 320 320 320 321 321 322 321 322 322 323 326 337 339 340 341 341 342 344 342 339 339 341 341 339 336 334 333 332 332 332 331 331 331 332 330 328 327 328 329 329 329 328 327
320 321 320 319 319 319 319 320 320 320 320 321 321 320 320 321 322 324 335 340 340 341 341 342 340 339 337 339 341 340 338 336 334 332 331 331 330 330 331 333 332 331 329 327 328 328 328 326 325
320 319 321 321 319 318 318 319 319 319 319 319 319 319 319 319 320 321 323 327 334 339 342 342 341 337 336 338 341 341 340 338 336 334 333 332 330 330 331 332 332 332 332 328 327 328 328 325 323
320 322 320 319 318 319 318 317 317 317 318 318 318 318 318 318 318 318 320 322 324 325 331 338 342 341 336 336 339 341 341 340 338 337 335 333 332 331 330 332 331 331 331 331 328 327 327 324 322
321 320 319 318 319 318 319 319 318 317 317 318 318 318 318 318 317 317 317 318 320 322 323 323 328 337 342 341 336 337 339 341 340 338 337 335 334 333 332 332 331 331 331 330 330 328 326 325 323
317 318 318 318 318 319 318 318 318 317 317 317 317 317 318 317 317 317 317 318 318 319 319 321 321 322 331 336 337 331 335 334 335 337 338 337 335 334 334 333 332 332 331 330 331 329 327 324 324
317 317 317 317 317 317 318 318 318 318 317 317 317 316 316 316 316 316 316 315 316 317 317 318 319 320 321 328 333 330 325 328 332 333 332 332 335 333 331 333 333 332 332 331 330 331 329 325 324
320 318 317 317 317 316 316 317 317 317 316 316 314 314 315 315 314 314 313 313 313 314 315 316 317 318 319 319 325 332 331 335 331 327 331 332 332 335 334 331 332 333 332 332 331 329 330 326 326
320 317 317 317 317 316 315 316 317 317 314 312 313 314 314 314 313 313 313 313 312 312 313 315 315 316 317 317 319 324 331 333 332 331 329 330 331 329 330 333 333 332 332 332 331 330 328 326 326
320 317 318 317 318 318 317 318 318 314 314 314 315 315 315 314 314 314 314 314 313 311 312 312 312 313 314 315 316 319 325 329 331 331 332 331 330 325 325 327 328 330 331 331 332 331 329 328 325
313 317 317 317 319 322 319 318 315 314 315 315 315 315 315 315 315 314 315 315 316 312 312 311 311 311 311 312 313 314 318 326 329 329 330 331 332 331 329 323 321 323 327 330 329 327 329 329 326
314 318 322 323 321 321 316 316 316 312 314 314 315 315 316 317 317 316 316 315 315 314 313 313 312 312 311 311 311 312 313 318 325 328 329 329 330 329 331 327 323 323 324 331 330 328 327 328 328
316 317 325 323 322 319 312 317 316 312 311 313 314 315 316 317 317 317 317 316 315 315 315 314 313 313 312 311 311 311 312 313 316 322 326 328 328 329 328 325 322 320 322 326 331 330 329 329 327
315 317 313 314 313 316 314 313 311 309 311 313 313 313 316 317 317 316 316 316 315 315 314 314 314 314 314 313 312 312 312 311 311 312 315 321 323 326 326 324 321 318 322 324 324 328 327 326 325
315 312 316 318 317 317 314 314 315 310 312 312 313 314 315 316 316 315 314 314 314 313 313 313 313 313 313 313 313 312 311 311 311 311 311 312 314 315 313 312 313 313 314 318 324 324 323 321 321
313 315 313 313 314 317 313 313 314 312 313 314 313 312 314 315 315 314 313 313 312 311 312 311 312 312 312 311 311 311 311 311 311 311 311 310 310 311 311 311 311 311 312 313 316 320 319 319 319
312 315 315 318 317 314 316 312 313 313 313 311 312 312 314 315 312 313 313 311 310 309 309 310 311 310 311 311 311 311 311 311 311 311 310 310 310 310 310 311 311 311 312 313 315 316 316 317 317

GFSSGP_850_thetae_072.txt.gz
Theta_e
324 321 325 328 328 326 328 327 326 326 326 326 325 326 325 327 339 345 342 342 343 342 330 330 335 341 339 339 338 340 341 341 340 340 340 339 339 338 336 335 333 328 333 335 328 325 323 323 317
323 322 329 327 327 327 326 325 328 325 325 324 324 325 326 330 342 343 344 343 346 344 333 331 335 340 341 341 339 339 340 340 340 339 340 339 337 337 335 327 321 322 335 337 332 328 328 324 316
322 327 330 326 327 327 327 325 326 326 324 324 326 326 327 337 341 346 347 343 347 348 334 332 334 344 339 340 339 338 340 340 340 338 339 339 337 332 326 317 314 317 328 338 336 332 330 326 317
323 325 326 328 327 327 326 325 326 324 324 324 326 326 333 338 343 345 343 344 347 348 346 335 333 340 341 338 339 340 340 339 337 337 336 332 331 326 315 312 315 317 327 337 337 334 332 328 319
323 325 327 327 328 326 325 325 324 324 324 324 325 326 339 340 343 343 344 345 348 346 348 337 331 339 339 338 340 341 339 338 337 335 320 319 322 313 312 321 322 327 328 337 337 334 333 328 321
326 325 329 330 328 326 326 326 324 323 323 324 324 324 341 342 345 344 344 346 346 348 349 339 338 343 341 340 341 340 338 338 337 333 318 315 312 312 320 325 328 329 336 336 335 333 333 327 321
327 327 328 328 328 327 326 326 323 323 323 324 323 323 341 345 346 345 345 346 346 349 348 341 339 341 342 339 341 338 338 336 336 333 325 315 312 312 315 325 331 329 331 334 333 333 330 327 316
323 323 327 328 328 327 326 326 325 324 323 323 323 322 340 345 346 346 346 345 346 347 344 339 338 337 342 341 339 338 338 336 336 334 330 319 312 312 313 314 324 329 329 330 331 332 327 324 314
321 322 324 325 325 325 324 325 325 325 324 323 323 324 341 345 344 346 346 345 346 344 344 343 342 339 341 340 339 338 338 337 336 335 331 320 313 313 312 313 317 327 325 323 328 328 324 316 316
321 320 321 322 323 324 323 323 323 324 324 323 323 328 335 339 338 343 346 345 344 345 344 342 342 340 340 342 339 337 337 336 337 337 332 321 319 315 313 313 315 317 319 322 324 322 316 315 318
321 322 319 320 321 320 322 322 322 323 322 322 322 323 327 336 341 340 343 346 344 344 345 344 343 342 341 340 340 337 330 334 334 333 331 325 329 327 320 317 314 315 316 320 319 316 315 319 324
321 320 320 320 320 320 320 320 320 321 321 321 321 321 326 331 338 341 339 344 340 340 344 343 342 341 340 339 338 337 338 338 335 336 333 328 330 328 324 317 315 315 315 316 316 315 316 321 328
322 320 319 319 320 320 319 319 318 318 320 322 323 323 326 332 333 337 341 341 343 339 339 343 342 341 340 339 337 336 337 336 334 334 335 334 333 329 325 322 323 319 319 320 323 324 327 327 326
321 322 320 319 319 320 320 319 319 318 319 322 323 322 323 323 330 337 338 341 343 342 341 337 341 341 341 339 339 336 335 334 334 333 333 334 333 330 328 329 327 326 327 326 328 327 330 329 327
320 322 321 319 319 320 320 320 319 319 320 321 322 321 321 322 323 326 338 338 337 341 342 341 335 338 338 339 340 340 337 335 334 332 332 331 331 330 329 331 332 329 327 327 327 328 329 329 327
320 320 323 320 319 319 318 320 319 319 319 320 321 321 321 320 320 321 324 333 339 339 339 340 338 337 336 338 342 340 340 338 336 335 332 331 329 328 328 329 332 333 329 328 327 327 328 328 326
320 322 321 320 319 319 318 319 317 318 319 319 319 319 319 319 319 319 321 323 326 334 340 341 341 339 336 336 338 341 341 340 338 336 335 333 332 330 328 327 329 331 333 330 328 327 327 328 326
318 319 318 318 319 318 318 318 317 317 317 318 318 318 318 318 318 318 317 318 321 324 325 333 340 342 341 338 336 340 340 340 340 337 337 336 334 333 332 331 330 330 331 331 331 328 327 327 326
319 319 317 317 316 319 319 318 317 317 317 317 317 317 318 318 318 318 317 317 317 318 321 323 324 330 338 340 340 337 336 338 339 339 337 337 336 335 334 333 332 332 331 330 331 330 329 327 326
319 318 318 317 317 317 318 318 317 316 316 317 317 317 317 317 317 317 317 317 317 318 318 319 321 321 322 331 336 336 334 332 331 335 337 336 336 334 333 333 333 333 332 331 331 331 330 329 327
317 317 318 317 317 316 316 315 317 316 317 317 317 317 316 315 315 315 315 314 314 315 316 317 317 319 320 320 325 329 332 331 328 323 325 332 336 334 333 331 331 331 332 332 332 331 331 329 328
319 317 318 318 316 317 314 315 316 316 316 316 315 313 313 314 314 313 313 313 313 313 313 315 316 317 317 318 319 321 326 330 326 324 325 324 323 326 331 330 330 332 332 333 331 331 330 329 328
318 318 318 318 316 315 315 314 316 315 315 312 311 313 314 314 314 314 314 314 313 311 311 312 313 315 316 317 318 318 320 324 333 332 332 331 327 324 325 326 329 331 331 332 332 332 332 329 328
314 315 318 318 317 320 315 314 314 313 313 312 313 315 315 314 314 314 315 316 315 313 312 312 312 311 311 312 314 315 317 318 322 328 331 330 328 330 331 331 331 329 332 334 333 332 332 330 329
311 314 320 321 320 316 316 315 314 312 313 313 313 315 316 316 315 315 315 315 315 314 314 314 313 313 312 311 311 311 312 313 318 326 329 329 329 329 330 329 328 330 330 330 331 330 328 329 329
312 317 322 322 318 315 313 315 312 311 313 314 315 316 317 317 317 317 317 316 315 315 315 314 313 313 312 312 312 312 312 312 313 320 324 326 328 329 329 328 327 328 330 329 329 325 325 326 326
315 317 313 314 312 312 311 312 309 310 312 313 314 315 317 317 317 316 315 315 315 315 315 314 314 314 314 313 313 312 312 311 311 312 315 320 323 326 327 327 326 323 326 326 325 323 323 323 324
314 314 315 317 319 319 312 312 311 308 311 312 312 314 317 316 316 315 314 314 314 314 313 312 313 313 313 313 313 313 312 312 312 311 312 313 315 318 319 320 318 315 318 318 318 321 319 320 320
314 315 313 313 313 317 312 311 310 308 310 311 311 314 315 316 315 314 314 314 313 311 311 311 311 311 311 311 311 311 312 311 311 311 311 311 311 311 311 311 311 311 311 311 312 312 315 316 316
312 315 314 312 313 312 312 309 309 308 309 312 312 312 314 315 314 313 314 312 311 310 310 310 310 310 310 310 311 310 310 311 311 311 311 310 310 310 310 310 310 311 311 311 310 311 313 313 313

GFSSGP_850_thetae_075.txt.gz
Theta_e
322 322 321 325 323 321 324 325 322 323 323 323 324 323 323 327 340 339 341 342 343 340 333 334 335 336 337 338 339 338 338 339 340 340 340 338 337 336 334 332 330 335 335 328 321 321 321 314 311
321 323 322 327 324 324 322 320 322 322 323 324 324 324 329 341 340 343 342 343 343 340 334 334 338 337 337 337 337 339 339 339 340 338 336 336 336 335 332 327 324 333 337 332 330 329 323 313 311
324 325 324 322 324 325 323 321 319 322 324 325 325 325 329 339 344 342 342 345 344 341 333 335 338 338 338 338 338 339 339 339 339 338 337 337 336 329 322 316 316 331 337 336 333 331 329 315 313
324 324 323 326 327 323 323 321 321 321 323 325 325 324 337 340 344 345 343 345 346 338 333 335 339 338 340 338 337 339 339 339 337 337 337 337 331 324 314 312 313 324 338 336 334 332 330 318 315
323 323 325 326 324 323 323 323 324 321 322 323 325 327 341 342 339 342 344 346 346 343 334 334 343 340 339 339 339 340 340 338 336 327 319 320 320 313 312 314 315 326 337 336 335 333 328 321 317
324 324 326 324 324 323 323 324 324 321 322 323 323 334 342 344 341 343 344 346 347 344 342 333 338 342 337 338 341 340 337 336 332 316 316 316 313 312 314 316 318 327 336 336 333 331 326 322 317
325 325 326 324 324 324 325 325 321 321 320 322 323 329 342 344 343 344 346 347 346 346 347 333 335 341 339 338 341 339 337 336 331 318 315 313 312 313 319 324 328 333 335 334 331 331 326 322 314
325 323 326 324 326 327 325 325 325 324 321 323 323 330 343 345 344 344 345 346 348 348 348 340 342 341 340 340 340 338 337 332 335 327 324 314 312 313 317 328 326 326 331 332 330 328 323 320 314
324 323 326 327 325 326 325 325 325 325 323 323 328 332 341 345 345 345 346 346 346 346 344 339 338 341 341 340 339 338 337 336 336 333 322 317 313 313 314 315 318 321 322 327 324 324 321 317 316
320 321 323 322 322 323 323 324 324 324 323 322 336 337 341 341 345 345 344 346 344 343 343 337 337 338 341 339 339 337 335 335 334 332 323 319 314 313 313 313 316 318 317 319 321 321 318 315 317
321 320 320 320 320 320 321 323 323 324 321 321 336 335 335 330 340 344 344 345 345 344 343 342 338 337 337 339 339 338 337 333 331 330 327 326 319 318 314 314 314 316 316 318 319 318 315 316 318
320 320 320 319 318 319 318 321 323 324 320 321 322 325 329 329 330 341 345 344 344 345 343 343 343 340 340 340 340 339 333 331 331 329 331 325 322 324 323 320 318 315 315 317 318 317 315 318 321
320 320 320 320 319 319 320 318 318 319 319 322 324 325 334 336 335 333 341 342 342 345 344 344 342 340 340 339 338 337 333 335 335 331 331 332 326 327 327 323 319 316 315 316 316 316 316 319 324
320 320 321 319 319 319 320 318 318 319 318 322 323 325 325 330 332 334 334 333 337 340 344 343 342 340 339 339 338 336 335 337 336 333 333 333 331 330 329 326 323 324 322 322 321 323 325 327 326
318 320 320 319 318 318 319 319 319 318 318 320 320 322 322 323 327 335 337 336 334 339 339 341 342 341 340 338 338 337 335 335 334 333 333 333 333 332 330 327 326 328 326 325 325 326 327 329 329
318 319 321 319 318 318 318 320 319 319 318 319 320 320 321 321 322 323 325 331 337 340 338 337 340 341 340 339 338 339 339 336 335 334 332 332 331 332 330 327 327 329 329 329 326 326 327 328 329
318 321 320 320 318 317 316 318 317 319 319 319 319 320 319 320 320 320 320 323 329 336 338 337 338 334 336 340 339 339 339 339 338 336 334 333 331 330 330 328 328 330 331 331 329 327 326 327 328
317 318 318 318 318 316 317 317 317 317 318 318 319 319 319 319 318 319 318 319 324 325 333 338 340 341 340 337 338 341 340 339 338 338 336 334 333 333 331 330 328 328 328 330 331 330 327 326 327
315 316 317 316 315 317 316 317 317 316 316 317 318 318 318 318 318 317 318 318 318 321 323 326 332 339 340 339 337 337 339 338 337 338 336 335 335 334 333 333 332 331 331 330 330 331 331 329 327
317 316 315 314 316 317 316 317 316 316 315 316 316 317 317 316 316 317 317 317 317 317 318 320 323 323 330 331 337 336 337 337 337 337 336 336 335 334 334 333 332 331 332 332 331 331 331 331 329
318 316 316 317 315 315 314 314 315 316 316 316 316 316 317 316 316 315 315 316 317 317 318 318 319 322 321 323 325 330 333 333 334 332 332 334 334 332 333 334 334 333 333 332 332 331 331 329 330
319 315 317 318 316 318 312 314 311 314 316 313 315 316 317 316 315 314 314 315 315 315 316 316 317 317 319 320 320 321 323 326 327 327 328 326 327 330 330 331 332 333 333 333 332 331 329 328 328
316 316 318 318 319 314 314 312 310 311 315 315 312 315 314 313 314 313 313 314 314 313 313 313 313 315 316 317 318 319 319 322 329 331 332 330 329 329 327 325 325 329 332 331 331 331 331 329 329
313 315 317 317 318 319 313 312 309 312 315 312 310 312 314 314 314 314 314 313 312 312 312 312 312 312 314 316 317 317 318 318 319 320 329 332 332 331 329 326 331 332 330 330 330 329 330 329 329
314 315 319 320 320 314 312 312 311 310 311 311 311 313 314 314 314 314 315 315 314 314 313 313 313 312 311 311 312 314 315 316 316 317 321 327 329 329 329 329 328 328 328 326 327 329 327 326 327
313 315 320 322 315 314 312 314 313 307 310 313 314 315 315 315 315 315 315 315 315 314 314 314 313 313 312 312 312 312 311 311 312 313 315 324 327 328 327 327 328 329 327 326 325 324 324 324 324
315 316 313 313 312 311 311 310 308 308 310 312 314 316 316 317 317 316 316 315 315 315 315 314 314 314 314 313 313 312 311 311 312 312 313 318 323 325 326 327 327 327 324 325 319 322 321 322 322
314 313 316 312 317 316 311 309 310 308 311 311 312 315 316 317 316 315 314 315 315 314 314 313 313 313 313 313 313 313 313 312 313 312 312 313 315 318 320 320 321 323 322 318 314 313 314 314 319
314 316 314 313 314 315 309 309 306 308 310 310 310 315 316 316 315 314 314 314 314 313 312 312 312 312 311 311 312 312 312 312 312 311 311 311 311 312 313 313 312 311 311 310 311 311 311 311 313
314 315 314 311 313 310 308 310 307 305 307 310 311 314 316 316 314 314 314 314 312 311 311 310 310 310 310 310 310 311 311 311 311 311 311 311 311 310 310 310 310 310 310 310 310 310 311 310 311

GFSSGP_850_thetae_078.txt.gz
Theta_e
321 321 322 324 321 319 323 323 320 322 322 323 323 324 326 329 336 332 341 342 342 339 331 331 334 333 338 339 339 338 339 339 339 339 338 337 335 334 332 331 335 332 324 320 321 317 312 311 311
321 326 326 325 322 324 322 319 322 321 322 323 323 329 332 343 341 341 343 343 342 340 332 331 334 335 338 340 337 336 338 340 340 339 337 336 334 333 330 327 336 336 331 330 328 320 311 311 314
321 328 325 323 322 323 323 320 320 322 323 322 324 325 338 342 341 342 342 342 343 339 332 332 335 336 338 337 336 338 338 340 337 336 333 334 332 324 318 318 333 337 335 333 330 326 312 312 315
326 326 324 326 326 324 322 320 321 321 323 324 324 333 340 342 341 340 342 343 343 337 332 337 336 337 336 338 338 338 339 339 337 336 337 331 327 318 313 313 329 337 336 334 332 327 314 314 319
324 323 323 322 324 323 322 322 323 320 321 323 324 333 342 343 344 343 343 344 344 339 332 341 338 338 338 337 338 339 339 337 333 329 325 317 315 312 312 312 321 337 336 334 332 328 317 317 321
324 323 324 324 322 321 322 323 323 322 323 321 329 339 342 342 344 344 345 346 344 335 333 341 339 339 339 337 339 339 339 335 325 318 317 315 313 313 313 313 321 335 336 335 329 325 320 317 319
322 320 322 321 322 322 322 323 324 322 319 321 325 337 343 343 344 344 347 345 346 335 334 342 341 339 339 338 339 338 337 331 321 317 316 313 313 314 314 314 320 333 334 333 326 326 321 315 318
325 319 323 322 323 323 321 323 324 324 321 321 330 339 342 343 343 344 346 347 345 342 334 335 344 340 337 340 340 338 336 331 322 315 313 312 313 314 316 316 322 330 332 331 327 325 321 315 317
324 320 325 324 323 323 323 323 324 325 324 321 325 332 336 343 344 346 347 345 345 347 344 333 333 339 339 339 339 338 336 333 323 319 316 313 313 315 316 319 326 330 331 331 326 324 321 316 316
323 319 322 322 322 322 323 324 324 323 323 324 338 338 343 342 343 345 345 346 348 345 344 339 341 340 339 339 338 337 335 333 327 324 318 316 314 314 316 315 320 325 325 327 325 324 321 315 316
321 321 320 321 323 320 322 322 323 322 322 323 336 341 340 339 339 343 345 345 344 343 341 339 339 341 340 339 338 336 332 329 328 327 325 319 316 314 314 314 314 317 317 319 323 324 320 314 317
320 320 319 320 319 320 321 319 321 321 322 323 328 327 337 337 338 343 343 344 344 342 342 340 337 337 339 337 336 335 336 336 331 328 326 327 322 319 317 316 315 315 316 317 319 320 318 315 318
319 319 320 320 319 320 319 319 318 321 323 324 322 331 335 334 333 337 342 342 344 343 342 341 340 338 337 338 339 338 336 331 329 330 329 331 325 322 325 324 322 318 315 315 317 318 316 315 320
319 319 320 320 319 319 318 319 318 322 323 320 323 333 334 333 335 337 337 340 344 344 342 341 341 341 340 340 339 338 337 332 334 333 330 330 330 327 326 326 324 320 320 317 317 317 318 317 319
317 318 318 319 319 318 318 319 318 318 319 320 321 321 327 333 335 332 332 333 337 342 344 343 341 342 340 340 338 338 337 333 334 334 332 331 331 329 328 328 326 324 324 324 324 323 324 325 326
315 318 319 317 317 318 318 319 318 319 318 318 320 320 321 322 329 334 335 334 334 337 341 344 343 341 339 339 338 338 337 334 335 334 333 332 332 331 330 329 328 326 326 327 327 326 325 325 326
316 316 317 320 317 317 317 318 317 319 319 318 318 319 319 320 321 323 323 324 331 333 336 339 342 341 340 339 338 338 338 337 335 335 334 333 332 331 330 329 328 327 327 328 329 330 328 326 326
318 318 316 318 317 316 316 316 316 317 318 318 318 318 319 319 319 320 320 319 321 329 336 338 338 339 340 340 339 338 338 338 337 337 337 335 333 332 331 330 329 328 327 328 329 331 331 329 327
314 316 318 316 315 317 316 316 316 317 316 315 317 317 318 319 319 319 318 319 319 323 327 331 335 338 338 337 338 340 339 339 338 337 335 335 336 334 333 332 331 330 329 329 329 330 331 331 330
315 315 315 314 315 317 316 317 315 315 315 316 315 317 318 318 317 318 318 318 319 318 321 323 327 332 333 337 336 338 338 338 339 338 337 335 335 334 335 334 333 333 332 331 331 331 331 331 331
316 315 314 315 314 314 316 317 316 315 316 316 316 316 317 317 316 315 317 317 317 318 319 319 321 323 324 327 333 332 334 337 337 337 337 336 334 333 334 333 332 333 333 333 333 332 332 331 331
318 315 316 318 315 317 314 317 313 316 315 315 315 316 316 316 316 315 315 315 316 316 317 317 318 319 320 321 321 323 328 328 327 331 332 332 331 330 330 331 332 333 333 333 333 332 332 332 331
316 316 316 317 319 315 313 314 311 309 314 315 316 315 316 315 315 315 315 314 314 315 315 316 317 317 318 318 318 319 319 321 322 325 326 328 330 329 328 330 330 329 330 330 331 332 330 329 329
314 316 317 318 319 320 313 314 311 309 311 312 315 315 315 313 313 313 314 314 314 314 314 314 314 314 314 315 316 316 317 318 320 321 321 322 322 327 331 330 328 326 322 327 328 331 330 327 328
313 315 316 319 320 315 311 313 314 308 309 309 311 312 313 313 313 314 314 314 313 312 312 312 312 312 311 312 313 315 315 316 317 317 318 318 320 325 326 329 328 326 328 328 327 326 326 326 325
315 311 308 314 316 313 311 314 313 308 307 309 312 312 313 314 314 314 314 315 314 313 313 313 313 312 312 311 311 311 311 312 313 314 314 314 317 326 328 329 328 327 326 327 326 324 324 323 323
315 317 312 310 311 306 310 310 307 309 309 310 311 313 313 314 314 314 315 315 314 314 314 314 313 313 313 312 312 311 311 311 311 311 311 312 315 321 326 327 326 326 326 324 324 324 321 318 320
314 312 316 315 318 314 310 310 311 311 310 311 311 313 314 315 316 316 316 315 315 315 315 314 314 313 313 313 313 313 313 312 312 312 312 312 313 316 319 322 323 324 324 323 321 321 314 312 313
315 316 314 312 310 311 309 309 305 308 310 311 311 314 316 316 316 315 315 314 314 314 313 312 312 312 312 312 312 312 312 312 312 312 312 312 312 312 313 315 316 316 315 314 313 311 311 311 311
312 314 312 306 314 304 304 309 305 304 308 310 312 315 316 316 315 314 314 313 313 312 311 311 311 310 310 310 310 310 311 311 311 311 311 311 311 311 311 311 310 310 310 310 310 310 310 310 310

GFSSGP_850_thetae_081.txt.gz
Theta_e
322 321 325 326 321 319 322 321 320 321 320 321 322 322 322 330 334 335 340 334 339 331 333 336 334 333 336 337 340 339 337 337 337 336 336 335 333 333 332 333 329 320 318 318 315 312 311 312 312
321 321 326 324 317 322 320 319 321 320 321 322 328 333 337 340 340 340 339 341 340 331 331 334 332 332 336 338 338 337 337 338 338 337 336 333 331 329 329 337 335 331 328 325 315 310 310 311 314
323 325 326 320 319 321 321 319 320 321 323 320 321 329 339 340 340 340 342 342 342 331 330 334 332 333 338 338 337 337 339 341 340 338 334 332 326 321 321 335 337 334 333 329 320 311 311 314 316
324 326 325 325 322 321 321 319 320 321 324 322 324 335 341 342 339 338 341 342 343 335 330 339 333 335 339 337 336 338 341 340 339 336 332 325 322 316 315 329 337 336 333 331 325 313 313 315 316
324 324 325 324 323 322 322 322 322 321 321 323 321 335 342 342 341 340 340 343 342 336 332 337 336 336 338 335 337 340 339 339 338 338 327 318 317 313 312 321 335 335 334 331 328 316 314 316 319
323 322 325 324 322 322 321 322 322 322 322 324 324 338 341 342 343 343 342 343 342 334 332 338 337 336 336 337 337 340 339 338 335 330 318 315 313 313 312 315 334 334 334 332 326 319 315 317 320
320 319 321 323 321 321 321 322 323 323 322 322 322 337 342 342 345 344 344 345 343 336 335 339 337 337 337 336 338 338 337 334 331 325 319 314 314 314 313 314 330 333 333 330 326 320 315 318 322
324 317 321 319 322 323 321 322 323 323 323 324 322 336 342 341 345 346 346 345 341 337 338 340 339 339 338 337 339 338 338 335 320 316 316 313 314 315 314 314 327 332 331 330 325 322 318 317 321
323 320 324 322 320 321 322 322 322 323 324 324 324 329 340 341 343 346 346 345 340 336 337 341 339 339 339 338 339 338 336 331 320 315 315 314 314 316 316 317 327 331 331 329 325 323 321 314 320
321 322 321 319 320 321 323 323 322 323 322 324 324 337 341 342 342 344 346 344 342 339 335 340 343 340 337 339 340 338 336 333 324 319 317 314 315 315 317 318 322 329 329 330 327 325 323 317 316
322 320 319 321 321 322 323 323 323 323 322 323 322 330 339 341 342 344 345 344 342 342 342 336 335 339 338 338 338 337 334 331 328 326 321 318 315 314 315 316 316 320 320 320 322 322 321 317 315
321 319 319 319 321 322 321 320 322 323 323 324 323 322 328 341 342 344 344 344 344 342 343 341 336 340 339 338 338 336 334 331 329 327 328 323 320 315 315 315 314 316 317 318 319 321 320 316 315
320 319 320 319 320 321 320 319 320 321 322 323 323 322 324 336 336 337 338 341 341 342 341 338 339 341 340 338 337 335 334 335 334 330 329 327 326 321 320 319 319 318 317 316 317 319 319 317 315
319 319 319 320 319 319 318 318 319 319 323 323 322 321 327 331 332 333 336 338 340 341 340 340 337 337 339 338 335 337 337 336 332 330 330 328 328 324 323 325 324 322 319 316 315 316 317 316 315
317 318 319 318 318 317 318 318 318 319 322 322 323 321 329 332 331 330 332 336 337 341 342 340 340 338 337 338 338 338 337 336 333 333 331 330 330 329 328 327 326 325 323 323 322 321 320 321 321
316 317 320 317 317 318 317 319 317 320 321 321 322 321 321 330 332 330 333 334 336 340 342 342 341 341 340 339 339 338 337 337 333 334 334 332 331 331 330 329 328 327 325 326 325 325 325 324 324
314 315 317 318 316 316 315 317 316 319 321 320 319 321 319 321 332 333 334 335 334 334 339 341 343 342 341 340 339 338 337 337 335 334 334 333 333 332 331 330 329 329 328 326 327 328 329 329 327
314 314 316 317 317 315 316 316 316 318 318 319 318 320 319 319 321 327 329 325 326 330 336 339 341 342 341 340 339 338 337 337 337 335 335 335 335 333 332 331 330 330 329 328 328 328 329 330 330
314 314 316 315 315 317 316 316 316 315 316 316 318 320 318 319 319 318 319 321 322 326 329 335 338 339 341 340 339 338 338 337 337 336 335 335 336 335 334 332 331 331 330 330 329 329 329 329 330
315 315 316 314 314 315 316 316 315 315 316 316 316 317 318 319 318 319 319 318 319 322 324 327 334 337 338 339 339 339 339 338 338 338 337 336 335 334 334 333 333 333 333 332 331 330 329 329 330
314 315 313 315 313 314 315 316 316 316 315 316 316 316 316 316 318 318 318 318 318 318 321 322 325 328 332 332 334 335 336 338 338 339 338 335 333 334 334 334 334 334 334 334 333 332 331 331 331
317 313 314 316 313 315 313 315 312 316 316 314 316 316 317 315 316 315 316 316 317 317 319 319 322 324 325 324 325 330 335 335 334 335 335 334 334 332 333 332 332 333 334 334 334 332 332 331 330
317 316 316 316 314 314 313 314 312 308 314 315 314 316 316 317 315 315 315 315 315 316 317 317 317 318 320 320 321 321 322 322 324 326 328 330 333 333 334 333 331 328 329 330 329 330 332 329 328
314 316 317 317 316 316 312 314 313 310 311 312 313 315 316 317 315 314 314 314 315 315 315 315 315 316 316 316 316 317 318 318 319 320 322 324 325 325 326 328 328 329 329 327 325 327 327 327 328
315 315 317 319 319 316 310 313 316 310 307 308 309 312 315 316 314 314 314 314 314 314 314 314 314 313 314 314 314 313 314 315 316 316 318 319 319 320 321 323 328 325 327 326 324 325 326 325 323
314 311 308 313 317 315 310 314 313 308 308 310 309 310 312 313 313 313 314 314 314 313 313 312 312 312 311 311 311 311 312 312 313 314 315 315 316 316 316 318 324 328 327 326 325 325 324 324 323
315 311 309 308 306 305 309 308 307 306 307 308 308 310 311 312 313 314 314 314 314 313 313 313 313 313 312 312 312 311 311 311 311 311 311 311 312 313 316 322 328 328 328 326 324 323 322 322 322
312 311 313 315 307 312 310 308 311 309 309 308 308 310 312 313 314 315 314 314 314 314 314 314 314 313 313 313 313 313 313 312 312 311 311 311 312 313 316 321 324 326 326 324 324 322 321 319 319
314 315 313 310 309 310 309 309 304 306 307 308 308 311 312 313 314 314 315 314 314 314 314 314 313 313 313 313 312 312 312 312 312 312 312 312 312 312 314 316 319 320 321 321 321 321 319 315 311
312 313 312 306 314 308 301 308 305 303 304 309 310 312 313 314 315 315 315 315 314 314 313 312 312 311 311 311 311 310 310 311 311 311 311 311 311 311 312 312 313 313 312 311 310 309 309 310 310

GFSSGP_850_thetae_084.txt.gz
Theta_e
324 321 323 326 318 317 319 319 320 321 319 320 320 320 320 328 334 335 339 332 331 332 337 338 339 335 337 338 338 339 339 337 335 334 333 331 332 329 331 327 317 317 316 315 314 314 314 314 313
323 321 324 323 316 319 318 319 320 320 321 321 325 330 336 337 339 339 338 332 331 332 337 338 339 334 336 337 338 339 337 337 336 335 335 331 332 331 335 333 329 324 320 313 310 310 311 312 313
325 321 325 318 315 318 318 318 319 321 321 319 320 329 337 339 340 339 337 339 332 331 337 340 335 335 337 338 338 336 336 337 338 335 331 328 327 325 336 335 333 332 325 316 311 311 311 314 316
325 323 324 322 320 319 318 318 320 321 323 324 321 326 340 341 339 338 339 340 334 332 336 340 335 339 337 337 336 337 339 340 338 335 328 322 318 319 329 336 335 333 330 320 312 312 313 315 318
324 324 325 324 322 320 320 321 321 321 321 323 320 326 340 341 340 340 340 341 334 332 341 341 340 341 338 337 335 339 340 339 335 334 327 320 318 314 318 336 335 333 330 324 315 314 315 318 321
324 322 325 326 324 323 321 322 322 321 321 323 322 330 339 342 342 341 340 342 340 331 340 341 340 341 339 336 335 340 339 340 339 339 321 318 315 313 313 332 333 332 330 326 318 315 317 319 321
321 320 321 323 323 322 321 322 321 321 321 323 323 333 338 346 344 342 342 342 342 335 335 342 339 339 337 335 337 339 338 336 335 332 325 317 314 313 312 326 332 331 330 324 320 316 316 319 321
323 317 320 318 322 321 321 322 322 322 322 323 323 324 325 336 348 343 343 343 341 336 335 341 339 338 336 338 338 340 337 334 331 324 319 316 314 314 313 319 330 331 330 325 323 320 315 318 321
322 322 325 321 319 320 321 321 321 322 322 323 323 325 329 335 347 345 344 344 344 337 336 340 338 338 337 337 337 338 337 336 330 316 316 314 315 315 314 318 332 331 330 328 325 322 318 316 319
321 323 321 319 317 318 320 321 322 322 322 322 322 327 338 341 345 346 345 345 343 339 339 340 337 338 338 337 338 338 337 334 327 317 314 314 315 316 316 317 326 330 329 327 324 323 320 316 316
321 319 318 320 320 321 322 323 322 322 322 322 323 323 325 336 343 340 342 343 342 339 338 340 338 338 338 338 338 338 337 334 328 322 320 314 315 316 318 318 320 323 326 325 325 323 322 319 315
321 320 319 319 321 322 321 322 323 322 322 323 323 324 323 322 330 338 339 342 342 337 336 337 340 339 338 337 338 339 337 332 329 327 326 320 317 315 316 317 316 318 320 319 319 321 322 320 315
319 319 320 319 321 321 320 319 321 322 323 322 323 323 324 322 323 336 336 338 341 341 342 340 338 340 339 337 337 335 334 332 330 331 329 328 325 323 315 315 315 315 316 316 316 318 320 320 316
316 318 319 320 319 320 319 318 320 320 321 322 323 323 323 321 327 334 335 336 338 339 341 341 339 334 338 338 338 335 333 333 335 332 330 328 327 328 322 322 323 323 320 319 316 316 317 318 317
317 316 317 318 318 317 317 317 318 319 321 322 322 323 323 321 327 331 332 332 335 335 338 338 337 339 340 339 338 336 335 336 336 332 331 331 329 329 326 325 326 326 323 322 321 319 320 319 320
316 316 316 318 316 317 317 318 315 319 319 321 322 323 323 321 324 331 332 332 332 334 338 340 339 336 336 337 338 337 338 337 336 333 333 332 330 330 330 329 327 328 327 324 325 324 324 324 324
315 319 317 317 316 316 315 317 314 319 320 320 323 323 322 321 319 331 329 331 331 333 333 336 340 339 338 337 338 338 338 338 337 334 333 334 333 332 331 331 330 329 329 328 326 327 327 328 328
315 316 317 316 316 315 315 315 313 321 321 321 322 322 322 319 319 329 331 332 333 333 335 336 336 339 339 340 339 339 339 338 337 336 334 334 333 333 333 331 330 330 330 330 329 328 328 328 329
311 314 315 314 314 316 314 316 314 316 321 321 320 320 321 318 320 320 327 330 328 329 329 334 338 339 340 340 340 340 339 338 337 337 336 335 334 335 335 333 332 331 330 330 330 330 329 329 329
311 315 315 314 314 316 314 315 314 312 315 317 320 319 319 320 320 318 318 322 325 324 326 331 337 338 339 340 340 339 338 338 337 337 336 336 335 334 333 333 333 333 333 332 332 331 331 331 330
312 314 313 314 313 313 313 315 315 314 314 316 316 318 319 319 319 320 318 318 318 320 322 326 332 336 337 339 338 339 338 338 337 337 337 335 333 333 333 333 334 334 334 334 333 333 332 332 331
315 312 313 313 313 317 313 316 310 314 314 312 315 314 316 318 319 320 317 317 318 318 318 320 324 331 335 335 336 335 335 334 334 335 335 336 336 334 334 335 335 335 334 332 332 332 332 332 330
316 313 314 313 312 312 312 314 311 309 313 316 315 315 316 316 316 315 316 316 316 316 316 318 320 323 326 329 332 333 330 330 333 335 334 331 331 333 333 332 331 330 329 330 328 329 331 331 331
314 315 315 314 313 312 311 313 311 310 310 310 312 315 315 317 317 316 314 314 315 315 316 317 317 318 320 323 325 322 321 321 321 322 323 325 326 327 329 330 329 329 329 328 327 328 327 326 327
316 313 319 320 319 314 309 312 314 309 307 307 308 312 314 315 316 316 314 313 314 314 314 314 315 315 315 315 315 315 315 315 316 316 317 317 318 320 321 322 323 324 328 328 325 327 326 325 324
316 311 307 311 314 313 309 313 313 308 309 311 312 311 311 312 314 315 315 314 313 314 314 314 314 314 313 313 313 312 312 312 312 312 314 315 316 317 317 318 318 320 329 328 326 327 325 326 325
314 314 307 306 304 306 310 308 307 306 305 306 308 309 311 311 312 313 313 314 314 314 313 313 312 312 312 312 312 311 311 311 311 311 311 312 312 312 313 313 314 316 320 330 327 326 325 322 322
312 310 311 310 308 312 310 308 310 309 308 307 307 308 309 310 311 312 313 314 314 314 313 313 313 312 312 312 312 312 312 312 312 311 311 311 311 312 312 315 319 323 327 326 325 323 323 322 321
314 312 312 309 306 309 309 310 303 306 305 304 306 308 310 310 312 314 314 314 314 313 313 313 313 313 313 313 313 313 313 313 312 312 312 312 312 312 312 314 318 323 323 322 322 322 321 319 318
311 312 311 308 310 306 301 309 305 303 302 304 308 309 311 312 314 314 314 314 314 314 314 313 313 313 312 312 311 311 311 311 311 311 311 312 312 312 312 312 313 314 316 317 317 317 315 312 310

GFSSGP_850_thetae_087.txt.gz
Theta_e
327 323 321 325 322 320 320 321 321 321 319 319 321 318 322 326 336 340 337 330 333 335 339 341 339 338 337 338 338 338 337 337 334 332 330 329 326 329 318 317 317 316 316 315 315 315 315 314 313
324 322 323 322 321 322 321 319 322 321 321 320 321 327 333 334 337 337 338 332 333 332 337 341 338 337 337 338 338 338 339 336 334 332 330 331 329 332 330 323 321 317 312 310 310 311 311 312 312
324 321 324 322 319 321 320 319 320 321 321 322 321 328 335 338 339 339 336 331 333 333 337 339 336 336 338 338 338 338 336 338 339 337 331 332 328 335 333 331 328 322 312 310 311 311 313 314 316
325 323 324 323 320 319 319 320 321 322 322 322 319 325 338 340 341 339 334 332 333 333 337 343 336 339 337 340 342 338 337 339 339 334 330 325 322 335 335 333 331 327 316 312 312 313 315 317 321
325 324 327 325 322 320 319 320 321 322 321 322 323 327 338 341 341 341 336 336 337 334 338 342 336 339 337 340 339 339 341 340 336 329 325 318 316 324 336 334 332 328 321 314 314 316 318 320 322
323 323 327 327 325 322 321 321 321 321 321 323 322 324 338 342 343 344 339 335 337 335 339 340 339 340 338 337 336 339 340 339 339 336 326 321 315 315 334 334 332 329 324 317 315 317 318 320 321
323 324 326 325 325 324 324 321 321 321 321 323 324 331 332 342 344 349 343 339 335 337 341 338 340 341 339 337 335 339 339 340 339 335 323 320 315 313 326 333 331 330 326 321 316 316 318 320 322
322 321 323 323 325 325 322 322 322 321 322 322 323 324 325 328 342 344 345 342 337 338 341 340 341 341 339 336 336 339 338 334 334 328 321 318 315 313 318 331 330 331 327 324 320 316 317 319 321
322 323 326 324 323 323 321 322 321 322 322 323 323 329 334 333 341 344 343 344 346 340 341 340 340 341 338 337 337 339 337 333 331 322 318 315 314 314 314 329 331 333 329 325 323 320 316 316 318
321 323 323 320 318 321 320 320 321 322 321 321 322 325 335 339 341 342 343 343 342 341 340 341 340 339 337 337 337 338 337 333 327 317 315 314 316 316 315 320 330 330 329 327 325 323 321 317 316
319 320 319 319 319 320 320 322 322 322 323 322 321 323 325 336 340 338 340 342 342 344 343 342 340 338 338 337 335 336 336 333 326 318 316 314 316 317 317 317 324 325 328 328 326 324 323 320 317
319 319 318 319 320 321 321 321 323 322 322 322 322 323 324 325 326 330 339 344 343 342 344 344 340 338 338 337 336 336 335 333 329 322 321 317 315 316 318 319 318 322 323 323 322 324 323 322 320
318 319 319 319 320 321 321 321 322 322 321 322 322 323 324 323 322 324 336 339 339 341 339 342 341 339 339 338 337 337 337 334 329 327 327 324 319 318 315 317 317 316 317 318 318 318 320 321 320
316 317 319 319 318 320 319 318 320 321 321 322 322 322 323 323 322 326 333 336 335 339 338 337 337 339 338 338 337 338 336 334 332 332 333 329 328 327 325 317 317 318 319 318 318 316 316 318 319
316 316 316 318 318 317 317 319 319 320 320 321 321 323 322 323 322 327 334 334 334 336 337 338 340 339 341 339 337 337 335 334 334 334 332 329 328 328 328 322 323 325 325 320 321 318 318 319 319
317 315 319 316 317 318 317 323 316 319 319 320 321 322 322 323 322 324 331 332 333 335 335 336 335 337 337 337 338 338 336 335 336 336 332 332 330 329 329 327 326 326 327 324 323 324 323 324 324
316 318 316 318 316 316 317 318 316 318 319 319 320 322 322 322 322 319 329 330 331 331 333 334 336 337 336 339 339 338 337 337 337 336 333 333 332 331 331 331 330 329 328 328 326 326 326 327 327
314 317 316 317 318 316 315 315 314 316 319 319 319 321 322 323 322 319 324 331 331 330 330 332 332 337 337 336 336 337 338 338 338 337 335 333 333 333 332 332 331 331 330 329 329 328 328 328 328
313 315 316 315 314 317 317 316 315 317 319 318 320 322 322 322 321 320 319 330 330 330 330 330 331 331 332 336 338 337 338 338 338 337 336 335 334 334 333 334 332 331 331 330 330 330 330 330 329
313 315 316 314 314 317 316 317 315 314 319 319 320 321 322 322 322 320 319 323 329 329 326 324 324 326 322 332 334 337 338 338 337 337 337 336 335 334 334 334 334 333 333 332 331 331 331 331 331
313 314 313 315 314 312 315 318 316 314 314 318 320 320 321 322 322 321 320 321 319 320 324 322 324 325 328 330 335 336 338 338 336 338 337 336 333 333 334 333 333 333 333 333 333 333 333 332 332
313 312 313 315 317 319 312 318 313 315 315 313 316 318 319 319 322 320 320 320 319 318 318 320 321 326 329 330 334 336 336 336 337 336 335 336 336 335 335 335 334 333 334 333 333 332 331 332 332
315 312 313 312 313 313 313 318 314 309 316 316 313 314 317 318 318 319 319 318 318 318 317 317 319 322 326 331 332 333 336 335 333 333 333 335 334 334 333 332 332 331 331 330 329 329 329 329 331
307 314 314 314 312 316 312 316 314 312 312 315 316 316 317 316 316 317 319 318 316 316 316 316 317 319 322 327 331 331 331 332 330 326 325 327 332 331 329 328 328 329 329 329 331 330 327 327 329
307 315 318 317 317 314 308 313 315 310 309 309 310 313 316 316 317 317 318 318 317 315 315 315 316 318 321 324 326 326 326 323 320 318 318 318 318 319 320 323 326 326 325 325 327 328 327 326 326
315 311 312 314 315 314 310 315 314 309 309 310 309 311 310 313 314 315 317 317 317 315 314 315 315 315 315 315 315 315 315 315 315 314 314 314 314 315 316 318 319 320 321 323 326 329 326 327 326
315 311 306 307 304 312 312 309 308 307 307 306 307 308 310 310 311 313 314 314 314 314 314 313 313 313 313 314 314 313 312 312 311 311 311 311 312 313 314 314 315 316 316 317 327 329 327 324 325
312 310 313 308 310 314 310 309 312 310 309 306 306 308 310 310 311 311 313 313 313 313 313 313 313 313 312 312 312 312 311 311 311 311 311 311 311 311 311 311 312 313 317 322 325 329 325 325 323
314 315 310 309 309 312 312 311 305 307 306 304 303 306 309 310 310 310 311 312 313 313 313 313 313 312 312 312 312 312 312 312 312 312 312 312 312 312 312 312 313 319 322 323 322 324 322 320 321
311 312 310 310 312 302 305 312 305 304 303 303 304 309 309 310 310 311 313 313 313 313 313 313 313 313 313 313 313 313 312 312 312 312 312 312 312 312 312 312 313 315 317 319 320 320 320 321 320

GFSSGP_850_thetae_090.txt.gz
Theta_e
329 324 321 325 324 323 324 323 324 324 323 323 323 323 326 326 340 344 340 341 343 346 346 337 335 336 338 338 338 337 336 336 333 329 327 326 322 317 317 317 317 317 317 316 316 315 314 312 311
329 323 323 325 324 324 324 322 324 324 324 323 322 323 328 330 340 341 343 339 344 346 347 341 336 336 337 338 338 337 337 336 333 329 329 328 329 319 318 317 313 311 311 311 312 312 312 313 315
327 324 324 324 323 325 324 323 323 324 323 324 324 327 332 337 343 342 344 339 345 346 349 343 339 336 337 338 338 338 338 335 334 331 333 329 332 330 329 323 316 311 310 311 311 313 314 315 320
327 324 324 325 325 324 323 322 323 324 324 324 323 330 340 343 344 344 343 343 344 345 348 343 341 338 339 339 339 339 338 339 338 334 332 326 337 333 331 327 319 312 311 312 314 315 317 322 327
325 325 326 325 325 323 322 323 323 325 325 325 325 333 341 344 341 342 343 344 344 345 346 342 340 339 339 342 342 338 338 340 338 334 327 323 337 337 332 329 323 314 313 314 316 318 320 322 324
325 325 327 327 325 323 322 324 323 323 323 324 326 333 342 345 347 344 341 346 348 345 347 341 339 339 340 341 340 338 340 339 338 335 321 318 326 337 334 331 326 319 314 316 317 320 321 323 324
325 326 327 325 325 324 323 323 324 324 323 324 328 334 339 343 343 343 347 348 346 345 348 342 338 340 340 340 337 339 340 338 336 336 323 320 317 333 335 333 330 325 318 315 318 319 321 322 323
323 326 326 325 325 326 324 323 323 323 324 323 324 330 331 334 343 343 343 345 342 344 347 346 343 342 340 338 336 339 338 338 334 332 327 319 316 321 337 335 333 328 324 319 316 317 319 320 322
322 326 328 325 325 325 324 325 323 323 324 324 329 330 336 332 342 342 344 341 345 344 346 345 345 342 342 341 337 339 338 333 333 329 320 316 314 313 330 336 336 333 327 324 321 318 316 318 320
321 325 325 324 324 324 324 324 325 324 324 324 325 327 336 339 342 343 343 342 340 344 346 343 344 344 341 342 339 339 337 334 329 319 317 316 316 315 322 330 331 334 329 325 324 323 321 316 319
319 320 322 322 322 322 323 323 323 324 325 324 324 326 334 339 341 343 342 343 343 342 341 342 340 343 341 339 339 340 338 336 331 319 315 314 317 316 315 322 332 332 329 328 327 324 325 322 319
318 318 318 321 321 322 323 322 323 323 323 323 323 325 329 337 335 340 342 343 342 341 339 340 340 340 341 339 340 339 338 336 331 321 318 314 316 317 320 327 330 331 330 331 330 330 327 323 321
317 317 319 319 320 322 322 323 323 323 323 323 324 324 326 328 328 327 336 339 340 341 339 340 341 339 339 339 340 339 338 336 334 327 323 319 316 316 321 329 330 330 330 330 326 322 325 324 323
314 315 318 318 320 322 322 322 322 322 323 323 324 325 325 324 323 324 328 338 339 341 340 341 340 342 338 338 339 339 338 337 333 330 328 327 323 320 318 318 319 319 316 319 320 321 317 319 320
314 315 318 319 318 320 322 323 323 322 322 323 323 324 324 324 323 323 329 336 338 337 338 341 339 342 339 339 339 338 338 337 335 332 333 332 328 327 327 323 318 319 322 323 320 320 317 317 318
315 315 318 319 319 319 320 323 322 321 322 323 323 323 324 324 323 323 330 334 335 338 336 337 339 338 340 340 338 338 337 336 335 335 335 331 329 328 328 328 322 324 326 325 322 323 323 323 323
315 316 315 318 319 320 321 319 320 321 321 322 322 323 323 324 323 323 328 333 334 333 334 336 338 336 337 340 340 337 338 337 336 336 336 333 332 330 329 330 329 327 327 327 327 325 325 326 326
315 315 315 318 320 320 320 320 319 319 321 321 320 321 322 324 324 323 327 330 330 331 332 333 334 335 337 336 336 337 338 337 336 336 336 333 333 333 332 331 331 331 330 329 329 328 328 327 327
313 314 314 316 318 320 319 319 319 318 319 320 320 321 322 323 324 323 327 329 331 332 330 332 331 335 337 336 335 336 337 337 337 337 337 336 333 333 333 333 332 331 331 330 330 330 330 329 329
314 313 316 314 318 319 319 319 319 319 319 319 319 319 320 322 324 323 323 324 331 331 330 330 330 330 331 332 333 335 335 335 335 337 337 337 336 335 334 334 334 334 333 332 331 331 331 330 331
314 313 315 317 318 318 319 319 318 318 318 318 319 320 320 322 323 322 321 321 321 327 331 329 326 325 323 325 325 328 330 331 332 334 335 335 334 334 335 334 334 334 334 333 333 333 332 332 332
315 313 315 316 317 318 318 317 318 318 319 319 318 320 321 323 323 323 320 320 320 319 318 324 324 325 324 326 323 326 329 328 327 330 335 336 336 335 335 335 335 334 334 333 333 333 332 332 332
315 314 314 316 317 317 319 320 318 316 319 319 318 319 319 321 321 321 321 320 320 320 322 320 318 324 324 322 320 326 327 326 329 329 330 333 333 334 333 333 333 334 333 333 333 332 331 330 330
308 313 315 316 317 319 316 318 316 316 317 318 318 318 318 318 318 319 319 319 319 319 319 321 320 317 321 323 322 325 325 328 325 325 329 330 328 330 333 333 331 329 330 329 329 330 330 331 331
307 315 318 318 318 316 313 318 316 315 315 315 317 317 318 318 318 318 318 319 321 319 318 316 318 319 319 320 322 321 323 324 325 330 328 322 321 321 322 323 323 325 328 328 330 330 330 330 329
310 314 316 314 315 313 313 317 314 315 315 315 313 313 313 317 318 318 318 318 318 319 318 317 316 315 316 317 322 326 327 326 324 321 318 316 316 315 315 316 317 318 319 322 325 326 328 329 329
314 317 311 314 312 314 314 314 314 313 314 312 312 312 312 312 313 316 317 316 317 317 319 317 316 315 315 316 316 316 316 315 315 314 313 313 312 312 312 313 315 317 318 319 321 323 328 330 329
308 312 317 317 318 315 315 314 312 314 314 312 312 312 313 312 311 311 313 314 315 315 315 314 314 313 313 313 313 313 313 313 312 311 311 311 311 311 311 311 312 312 313 313 314 316 323 327 327
313 316 314 315 316 316 316 315 312 311 311 311 310 309 310 311 311 311 312 312 312 313 313 313 312 313 313 313 312 312 312 311 311 311 311 311 311 311 311 311 311 311 312 316 321 322 323 324 323
312 315 314 318 316 311 315 315 309 311 310 310 311 311 311 311 311 312 311 311 312 312 312 313 313 313 312 312 312 312 312 312 312 313 313 313 313 312 312 312 312 313 314 318 320 321 322 322 322

GFSSGP_850_thetae_093.txt.gz
Theta_e
324 329 326 326 326 325 326 325 325 325 326 326 326 327 332 332 342 347 343 342 347 346 341 334 335 337 338 337 337 336 336 334 330 326 325 317 317 318 317 317 318 318 317 316 316 314 311 311 313
328 331 325 325 327 326 326 325 325 325 325 324 325 325 328 336 343 345 344 344 347 346 343 341 336 337 337 337 337 336 336 334 330 328 328 318 316 316 315 314 314 314 313 313 312 312 314 315 317
330 330 325 327 327 327 326 326 324 325 325 324 324 326 329 339 343 345 345 345 347 346 344 343 338 337 338 338 337 337 337 335 333 331 333 329 325 322 318 311 310 310 311 312 313 314 317 324 326
329 328 327 326 327 326 327 326 323 325 325 325 324 326 340 345 345 346 344 345 346 346 343 341 342 340 338 338 338 338 337 336 334 335 332 335 331 328 323 313 311 311 312 314 315 317 322 327 328
328 327 327 328 327 326 326 324 323 326 325 325 325 331 341 345 346 345 344 345 345 347 345 341 341 341 340 338 338 339 338 337 337 334 330 339 335 330 326 318 312 313 315 316 317 320 323 325 326
326 326 328 329 327 326 325 324 324 325 326 326 326 331 345 344 346 346 344 344 344 347 346 342 341 339 340 341 340 338 339 338 336 332 325 337 338 333 329 323 315 314 316 318 319 320 322 323 323
326 327 328 326 326 326 324 324 324 324 326 326 329 332 343 344 344 344 345 345 345 346 344 344 341 340 340 342 340 338 340 337 335 321 319 325 337 334 332 327 320 315 316 318 319 320 321 322 321
324 327 327 326 326 325 324 324 324 324 325 324 328 335 339 346 343 345 345 343 344 343 347 345 344 340 341 342 339 341 339 335 333 326 320 317 326 337 334 330 326 321 317 316 318 319 320 320 320
322 326 328 326 325 325 324 324 323 324 325 325 329 333 338 340 342 344 343 343 343 344 346 344 345 345 344 341 338 339 339 338 332 329 323 317 316 331 335 333 330 327 323 320 317 316 318 319 320
321 325 326 324 324 324 324 324 324 324 325 326 327 336 338 341 345 342 344 342 343 342 344 343 346 346 343 340 339 339 339 335 334 329 320 326 329 326 337 332 332 332 326 323 322 320 318 317 324
319 323 324 323 323 323 324 325 325 325 325 325 326 334 340 342 344 342 342 343 342 341 341 343 345 346 343 342 340 338 338 338 337 334 330 330 331 328 334 334 335 334 329 326 324 323 323 326 325
320 318 319 321 322 323 324 323 325 325 326 325 325 328 335 338 342 342 342 344 342 342 342 342 344 343 344 342 342 338 338 338 336 332 328 330 331 325 330 335 334 334 336 337 333 334 333 327 323
317 318 317 318 321 323 323 324 324 324 324 324 324 326 330 333 336 342 341 342 342 341 342 343 342 343 343 342 341 339 339 337 336 333 328 327 330 331 330 333 335 335 335 335 334 333 333 332 331
315 316 317 318 321 321 323 323 322 323 323 324 324 325 326 329 330 332 338 341 341 341 341 341 341 343 342 341 341 339 338 338 338 336 333 328 328 331 333 334 334 334 334 333 332 331 330 330 330
314 315 316 318 318 321 321 322 323 322 323 324 324 324 326 326 326 330 329 332 339 340 340 340 340 338 342 341 341 341 339 338 338 336 335 332 331 329 329 331 332 331 331 330 330 330 325 327 326
313 315 316 316 318 318 320 321 320 321 322 323 323 323 325 326 325 325 326 334 341 341 341 340 340 340 340 341 342 341 339 339 338 338 337 335 334 331 329 329 327 328 329 328 329 329 329 327 328
314 321 315 315 318 318 321 320 319 320 322 323 322 323 324 325 325 324 325 330 337 340 341 341 340 339 339 339 340 340 339 339 339 338 337 337 335 334 331 331 331 327 328 327 327 328 329 330 329
318 318 315 314 319 319 319 320 319 321 321 321 321 322 323 324 325 324 326 325 333 339 339 338 339 338 337 339 340 339 338 339 338 337 337 337 336 335 332 333 334 332 329 327 328 329 328 326 329
315 315 314 313 317 318 319 319 319 320 320 321 320 321 321 323 324 324 323 326 328 332 338 340 336 335 335 337 337 340 338 338 338 337 338 338 338 336 335 334 335 334 332 331 332 330 329 329 329
313 316 315 313 318 318 319 319 319 319 320 320 320 320 320 321 323 325 323 325 327 329 331 333 337 334 335 337 336 336 335 337 337 335 336 337 336 335 334 334 334 335 334 332 332 331 331 330 330
313 316 316 314 318 318 318 319 319 319 319 319 319 319 319 320 322 324 323 322 329 329 331 330 333 336 332 331 331 335 334 334 335 335 335 335 335 334 336 335 334 334 334 334 334 333 332 332 331
315 315 315 315 318 317 317 320 318 318 318 318 319 318 319 320 321 324 323 322 325 330 331 331 330 331 329 328 328 327 328 328 328 327 327 328 332 332 332 331 333 334 334 334 334 333 333 333 333
315 314 314 316 316 316 318 317 317 317 318 319 319 318 318 320 322 323 323 322 324 323 327 327 326 325 323 323 324 323 324 325 325 325 326 327 324 325 329 328 328 330 334 334 334 334 333 333 332
309 315 316 316 317 320 317 316 315 318 318 319 318 318 318 319 322 324 322 320 320 319 318 320 320 321 325 327 321 322 322 324 324 325 328 322 321 322 329 329 327 328 330 332 332 332 332 333 332
309 316 320 318 319 316 315 317 317 316 316 317 319 318 318 319 321 322 323 320 319 320 318 319 319 320 318 319 323 322 323 322 321 321 321 322 324 325 319 320 324 328 331 330 329 330 331 331 331
311 314 318 318 318 316 314 316 316 315 315 315 315 317 318 319 319 320 320 321 319 319 319 319 317 316 317 319 320 320 323 323 321 321 324 325 325 323 320 318 318 318 319 321 326 331 332 332 330
313 314 314 316 314 316 315 313 314 315 314 314 315 315 315 316 318 319 319 319 320 319 318 319 320 317 315 316 317 320 320 320 320 322 320 322 317 315 314 313 313 314 315 317 319 323 328 331 330
309 309 316 318 316 316 315 313 315 314 315 315 315 315 315 315 314 315 317 319 318 317 316 317 320 320 317 315 315 316 319 320 318 316 314 313 313 312 311 311 311 312 312 313 315 316 319 326 326
312 315 316 316 318 316 316 314 314 314 313 313 313 312 313 314 314 314 313 316 316 316 316 315 318 321 318 315 314 313 313 313 312 312 311 311 311 311 311 311 311 311 311 312 313 316 316 320 323
313 314 315 319 318 316 318 315 313 313 313 313 314 314 313 313 314 313 313 314 315 314 314 313 314 313 313 313 313 312 312 312 312 312 312 312 312 312 312 312 312 312 313 313 314 316 321 323 322

GFSSGP_850_thetae_096.txt.gz
Theta_e
321 325 326 326 329 324 325 323 323 323 326 326 326 326 330 344 346 347 343 345 349 342 337 335 336 337 338 337 335 335 334 329 325 324 317 316 317 326 338 336 328 319 316 316 313 311 311 313 314
321 332 330 326 328 326 324 323 322 324 326 325 325 325 331 344 340 343 343 347 347 338 334 334 336 337 337 336 336 335 333 329 326 324 316 316 317 317 317 317 316 315 314 312 312 313 315 318 320
322 330 328 326 327 327 325 324 323 324 325 325 325 325 333 344 345 345 344 348 346 340 334 334 336 337 337 337 336 336 334 328 326 329 321 319 318 313 311 311 311 311 311 312 315 320 322 326 328
323 330 329 327 327 326 325 324 323 325 325 324 324 333 345 347 345 346 345 347 345 343 341 335 337 337 337 337 337 336 334 332 328 333 330 328 323 314 310 310 311 312 313 315 320 324 326 328 330
325 328 328 329 326 326 325 325 325 324 324 324 325 335 346 343 346 345 346 347 345 344 344 339 339 339 338 337 338 337 335 333 333 338 335 331 327 319 311 312 313 315 316 318 322 323 324 327 328
326 326 328 328 328 325 325 325 325 325 325 325 324 337 345 341 346 344 345 346 347 343 344 341 341 339 338 338 339 338 337 336 333 332 339 333 329 323 314 313 314 316 318 319 320 321 321 322 323
325 326 328 326 326 325 325 324 323 324 325 325 327 328 344 343 346 344 345 345 347 344 342 341 341 340 340 340 339 337 337 338 335 326 337 337 330 327 321 315 315 316 318 319 320 320 320 320 320
323 325 327 326 326 325 325 324 323 324 325 325 330 337 344 343 344 345 344 346 349 346 342 340 340 340 341 341 338 339 338 336 332 321 326 337 334 332 326 322 317 316 317 318 319 320 320 320 320
321 326 327 327 326 324 324 323 324 324 324 327 333 338 344 342 343 342 345 346 346 344 342 339 341 340 341 340 338 340 338 334 328 325 321 320 334 334 331 329 324 319 317 316 317 318 319 319 319
321 323 325 325 324 323 324 324 324 325 325 327 336 338 341 342 343 344 343 345 343 343 343 342 342 341 341 341 338 339 338 335 331 327 321 319 318 331 331 326 325 323 322 320 319 317 316 318 320
319 322 322 324 324 324 325 325 324 324 324 327 334 338 342 342 342 342 340 340 345 343 344 342 342 342 342 340 338 338 338 334 334 327 325 330 329 326 341 330 326 324 322 322 322 322 321 321 325
319 318 319 322 322 324 323 324 325 324 325 326 330 337 342 342 342 341 341 341 344 341 342 342 344 342 342 339 339 337 338 337 337 334 329 331 330 329 331 331 327 325 325 324 324 331 330 325 321
317 317 317 319 319 321 323 324 324 325 325 325 328 335 338 339 338 340 341 341 341 339 340 341 345 343 342 340 339 337 338 338 336 333 328 328 330 324 328 332 332 329 331 330 330 334 333 329 328
316 315 317 317 319 321 323 324 324 324 324 325 327 329 333 335 333 341 340 340 343 341 341 341 341 343 341 342 339 337 337 337 337 335 327 327 330 331 330 332 334 334 335 334 334 332 328 330 328
314 315 316 316 319 321 321 323 324 323 323 324 325 325 327 330 332 335 338 338 340 339 340 340 341 342 343 340 339 338 337 337 337 336 332 326 328 331 332 333 334 333 333 331 329 330 329 325 326
314 314 318 316 319 320 320 323 322 322 323 324 324 324 325 327 327 330 330 332 338 340 340 341 339 340 341 340 339 339 338 338 337 336 335 331 329 327 327 329 331 328 330 327 327 325 323 322 324
313 317 317 316 317 318 320 320 319 320 320 323 323 323 325 326 325 325 331 333 335 340 340 339 339 338 338 340 339 338 338 337 337 337 337 336 334 333 330 328 329 327 327 326 326 325 325 326 327
313 314 314 315 314 318 317 317 318 318 320 321 322 322 323 325 325 325 324 335 339 340 338 338 339 340 339 339 339 339 338 338 337 338 336 336 336 333 332 332 332 331 328 326 325 326 326 326 327
313 314 314 314 315 315 318 318 318 318 319 320 321 322 322 323 324 325 324 325 338 339 340 337 338 338 339 339 338 337 339 338 337 337 336 335 336 336 333 331 334 334 332 330 329 329 328 328 327
312 316 314 315 315 316 318 319 317 317 320 320 320 320 321 321 323 324 324 324 336 336 336 336 334 337 336 335 335 338 338 338 337 337 337 336 336 336 336 334 334 336 335 333 332 332 330 329 329
311 313 316 316 316 317 317 318 318 317 319 320 320 320 320 320 322 323 324 324 333 336 337 336 335 335 334 334 335 335 335 337 337 336 334 334 335 335 333 334 333 333 334 334 333 333 332 331 331
313 312 312 316 317 321 318 320 319 318 318 317 319 319 319 320 320 322 324 323 331 335 334 333 335 336 333 332 333 332 333 333 333 334 334 333 332 333 333 332 331 331 331 331 332 332 332 332 332
313 312 315 316 317 316 318 318 317 317 316 316 317 319 319 319 319 321 323 323 325 332 332 330 331 336 335 332 330 329 328 328 328 328 327 328 327 326 325 327 328 327 325 325 326 329 330 331 333
310 314 316 316 317 318 317 315 312 314 316 315 316 317 318 318 319 321 323 323 323 325 330 330 329 330 331 328 327 326 327 327 325 325 325 325 325 326 324 324 326 327 324 323 323 324 327 328 331
310 314 318 319 318 319 316 316 313 314 315 315 316 317 318 318 319 321 323 322 322 324 321 325 327 330 326 326 325 322 322 323 323 324 323 323 325 324 324 324 323 322 319 320 320 321 327 331 332
311 313 317 315 314 313 315 319 313 313 314 315 315 318 318 318 319 322 322 321 321 322 319 320 320 320 320 322 323 323 322 323 322 321 323 322 322 320 320 319 317 317 320 319 317 325 331 332 330
312 314 312 316 314 314 312 312 312 312 312 314 315 315 315 318 319 321 321 322 321 321 321 319 318 318 316 317 318 323 326 325 324 324 325 326 325 324 322 325 323 318 315 315 314 316 320 326 326
309 308 316 316 318 320 313 311 313 313 312 312 313 314 314 315 317 318 319 320 320 320 319 317 317 318 318 316 316 317 318 320 321 320 320 320 320 317 315 313 312 312 311 311 312 313 315 319 324
309 310 314 316 316 315 313 312 312 311 312 311 311 313 314 315 315 315 317 318 319 318 318 316 316 317 318 318 318 317 315 316 318 318 316 314 313 312 312 311 311 311 311 311 311 312 312 315 317
311 311 314 317 317 315 316 312 310 310 311 312 314 313 313 313 314 314 313 315 317 317 317 316 315 316 317 318 319 319 317 314 313 312 312 312 311 311 311 312 312 312 312 312 312 313 317 320 320

GFSSGP_850_thetae_099.txt.gz
Theta_e
321 325 325 329 327 323 323 319 320 321 322 325 326 341 343 343 344 345 347 346 345 339 337 336 336 337 337 335 334 332 326 323 320 315 317 339 342 341 341 339 330 317 315 312 310 312 313 315 331
320 324 330 328 326 324 320 320 320 320 323 325 326 338 342 343 343 344 347 349 347 338 335 335 336 337 336 335 334 331 325 324 316 316 315 318 333 337 333 322 315 314 312 311 313 315 318 329 333
318 324 329 324 323 326 322 320 321 322 324 324 324 340 344 342 343 345 345 349 345 337 335 335 336 336 335 335 335 331 325 326 316 315 315 315 315 316 315 313 312 311 312 314 318 321 327 332 332
318 324 329 325 326 324 322 320 322 322 324 324 335 345 345 342 343 345 347 347 341 335 334 336 336 336 336 336 337 332 326 329 325 321 318 313 311 310 310 311 311 313 315 321 324 326 329 332 329
322 324 330 327 325 322 321 323 324 322 323 323 324 343 344 345 344 347 347 346 335 334 335 336 336 337 336 338 336 333 330 330 331 327 323 316 311 311 311 312 314 315 323 323 325 326 328 327 326
323 324 327 328 326 322 321 323 324 323 323 324 328 343 342 345 344 347 346 346 336 337 335 337 339 340 337 337 335 334 331 333 338 333 327 320 313 312 313 315 316 317 320 321 322 323 324 325 323
321 325 328 325 325 324 323 324 322 322 323 325 328 340 343 345 344 346 347 345 339 343 337 338 339 338 337 338 337 336 335 331 336 337 331 323 317 314 314 316 317 318 319 320 320 320 320 319 320
320 325 327 324 325 325 324 324 324 324 324 328 333 340 344 345 344 346 346 346 343 342 339 341 339 339 338 338 337 337 336 333 327 337 336 328 322 317 315 316 317 318 319 319 319 319 319 320 320
318 323 327 325 324 324 323 323 324 324 326 332 338 341 339 344 344 344 346 345 342 339 338 340 340 339 340 339 337 338 336 331 324 328 335 332 328 324 320 316 316 317 318 318 319 319 319 319 319
319 322 321 322 322 323 324 323 324 326 331 337 339 341 341 344 344 345 347 346 345 343 340 339 339 340 340 339 337 337 334 323 320 319 320 329 331 328 325 321 319 317 317 317 317 317 318 318 319
317 320 320 320 320 323 324 324 324 325 326 336 340 342 342 342 343 346 347 347 344 342 340 340 339 340 340 339 339 338 334 328 327 323 317 318 323 330 326 321 321 320 320 320 320 319 319 320 321
317 317 318 320 323 323 323 324 325 324 324 330 334 336 342 343 342 342 345 344 344 342 339 340 339 341 341 339 337 338 335 331 329 323 327 324 322 324 328 326 322 321 321 322 322 323 325 322 320
315 316 317 317 320 320 323 324 324 324 324 331 335 332 341 342 342 340 343 343 342 343 340 340 341 341 341 339 337 336 336 335 335 330 330 329 329 326 324 324 326 325 324 323 325 327 327 328 324
315 314 315 317 319 319 323 324 324 324 324 329 331 329 332 341 341 340 340 342 343 341 341 341 342 342 339 338 338 336 337 337 336 334 327 329 328 324 323 326 330 330 329 331 331 329 329 329 325
313 314 315 318 319 321 322 324 325 324 324 324 329 329 331 332 338 338 340 341 342 340 340 340 343 343 341 339 338 337 337 336 337 335 330 324 328 329 330 330 333 332 332 332 332 332 328 325 324
314 314 317 316 318 319 321 322 322 323 323 323 324 330 331 330 328 335 338 339 339 338 338 340 341 343 343 341 339 337 336 337 336 336 335 326 325 330 331 331 333 334 333 334 332 329 327 326 324
312 317 315 317 317 321 320 321 320 322 322 322 323 323 331 329 327 328 334 338 336 338 338 340 340 339 341 340 339 338 337 337 336 336 335 332 327 325 326 329 330 330 329 327 327 325 325 324 324
313 314 314 316 316 320 319 319 318 322 321 321 320 322 327 326 325 327 327 328 336 338 337 337 339 340 341 342 339 338 337 337 337 336 336 336 334 331 330 329 328 328 328 327 326 326 326 325 326
311 312 313 313 314 319 320 319 317 319 320 320 320 322 322 326 325 325 324 326 334 337 340 340 339 339 339 340 340 338 337 337 337 336 336 336 335 335 334 331 329 330 330 327 327 327 327 328 327
311 313 312 312 313 314 316 318 317 315 316 318 319 321 321 323 325 325 324 325 333 335 337 337 336 338 339 338 338 338 338 338 336 336 336 336 335 335 335 333 332 332 333 333 332 330 330 330 329
310 314 313 313 315 315 315 317 318 317 316 319 319 320 321 321 321 324 324 324 325 335 335 333 331 335 335 338 337 337 337 336 337 337 337 337 335 334 335 335 333 334 335 334 333 333 332 332 331
314 312 312 316 316 318 316 319 317 317 316 316 318 319 320 320 320 322 324 324 324 325 335 335 334 331 333 334 334 334 334 335 335 338 336 335 333 333 334 334 332 332 333 332 331 330 332 332 331
313 312 315 314 316 315 318 319 316 316 317 316 315 319 319 319 319 321 323 324 325 325 329 334 335 334 335 334 334 334 334 333 334 334 332 331 330 330 330 328 332 330 329 328 327 326 326 326 327
310 315 316 315 317 315 317 317 311 317 317 315 314 318 319 319 318 319 322 324 324 330 330 334 337 336 335 333 332 333 330 330 328 328 326 326 325 326 326 325 325 328 328 326 324 324 324 323 324
310 314 317 318 319 315 316 315 312 312 314 314 313 316 319 318 318 318 322 323 323 326 330 331 332 333 333 331 331 329 328 327 327 327 326 326 326 326 326 326 325 325 323 323 321 321 322 320 319
311 312 312 318 317 312 315 315 313 310 311 314 315 317 317 318 318 318 320 322 323 323 324 329 328 331 331 330 325 324 323 323 323 322 322 322 322 323 324 324 323 324 324 326 325 321 318 319 318
312 312 312 315 314 310 314 311 309 310 311 311 313 315 316 317 318 318 320 323 323 323 323 325 327 328 328 326 325 324 322 322 322 322 322 322 320 321 322 321 320 318 318 319 319 320 320 318 318
310 308 314 312 316 316 310 311 309 311 311 311 311 313 314 316 317 319 321 322 322 321 321 320 320 322 320 320 320 320 320 321 322 323 323 322 323 325 325 324 324 323 322 315 312 312 312 312 313
307 308 313 314 311 314 311 309 309 310 309 310 310 312 314 315 316 318 321 321 321 321 320 320 319 318 318 317 316 316 319 321 322 323 322 321 321 320 319 317 313 312 311 311 311 311 311 311 311
308 310 314 310 315 308 305 309 309 309 309 311 312 312 313 314 314 315 315 318 320 319 319 318 317 317 317 316 315 316 316 317 317 316 314 314 312 312 311 311 311 311 311 312 312 312 312 312 312

GFSSGP_850_thetae_102.txt.gz
Theta_e
318 319 324 327 326 322 323 322 320 321 322 325 325 337 337 341 339 341 346 345 343 339 337 338 337 337 335 332 330 324 321 318 325 342 342 342 342 341 341 337 328 315 313 310 311 314 321 328 328
318 318 323 328 325 323 320 319 318 320 320 330 341 341 340 343 344 346 347 345 342 338 341 338 337 337 334 332 328 323 321 316 317 339 341 341 341 340 339 327 315 312 310 312 314 323 332 332 331
316 320 325 323 322 324 319 318 319 319 321 322 334 341 342 343 345 344 345 345 341 338 342 342 337 336 333 333 327 323 319 316 315 318 339 340 340 338 321 314 312 311 313 316 320 331 332 332 330
319 319 324 326 326 323 319 317 319 320 322 323 338 344 342 343 346 342 347 345 339 339 339 341 337 334 334 333 326 324 317 315 315 315 316 318 318 314 312 311 312 314 318 321 328 331 332 331 327
319 321 326 327 325 322 319 321 322 321 322 323 339 343 344 343 344 344 348 346 338 336 339 340 336 335 335 334 326 325 324 320 318 314 311 311 311 311 311 312 316 320 322 324 327 330 327 326 325
320 322 329 328 325 323 319 322 323 322 323 322 342 342 344 344 342 345 346 345 337 335 338 337 338 337 337 334 330 328 329 327 323 317 311 310 311 312 313 315 319 321 322 323 324 325 324 324 324
317 322 325 327 325 323 321 322 323 322 322 324 340 339 344 345 343 340 344 342 336 334 336 336 339 339 336 334 332 330 335 334 328 322 313 312 313 314 315 317 319 319 320 320 322 322 321 320 323
317 318 324 325 326 324 321 322 323 323 322 329 337 339 344 344 345 343 342 337 334 335 336 339 339 338 337 335 334 331 335 338 336 326 317 313 314 315 317 318 318 319 319 319 319 319 319 320 321
315 320 320 324 325 323 323 323 322 322 325 331 336 341 343 343 344 343 342 338 334 336 338 339 338 337 338 337 336 335 332 334 337 332 323 317 315 315 316 318 318 319 319 319 319 319 319 320 321
315 317 319 319 321 322 324 324 323 330 335 339 340 342 343 344 343 343 343 339 341 338 339 338 338 337 338 338 338 336 329 327 333 332 328 323 318 316 316 317 318 318 319 319 319 319 319 319 320
314 315 316 320 319 321 324 324 324 330 332 338 341 342 343 344 344 344 344 336 343 341 341 339 339 339 338 337 336 332 323 322 321 326 330 326 324 321 318 317 317 317 317 317 317 317 318 319 319
313 316 315 319 321 323 324 324 325 325 324 334 334 338 342 342 344 345 344 343 342 340 339 340 339 340 339 336 335 334 323 325 321 319 319 325 327 324 322 320 319 319 319 319 319 319 320 320 321
313 314 315 317 318 321 322 324 325 324 324 332 334 337 339 341 342 344 345 343 343 341 338 339 339 339 339 338 338 336 329 328 321 320 320 320 320 323 323 325 323 322 321 322 322 324 327 325 322
313 314 314 315 318 319 320 324 324 324 324 330 333 333 337 339 339 342 343 344 342 341 338 340 339 339 340 339 337 336 332 332 329 325 325 326 325 325 323 322 325 325 325 324 327 329 328 327 326
311 315 314 315 318 319 318 324 325 324 324 324 328 331 334 336 338 341 343 344 343 340 339 339 339 339 340 337 336 336 333 333 334 334 328 324 325 324 321 323 327 330 330 330 329 329 328 328 327
314 314 316 317 318 319 318 321 323 323 324 322 323 328 330 336 336 338 340 342 340 340 339 339 339 340 339 338 336 336 336 335 333 335 333 326 323 325 326 327 328 331 330 331 331 330 329 327 326
313 316 315 317 318 318 317 320 320 322 324 322 322 324 326 331 334 336 339 341 339 339 339 340 340 341 341 339 338 336 336 336 335 336 335 333 325 324 326 328 329 331 332 332 331 331 328 326 325
312 314 313 316 318 319 317 318 318 322 322 321 321 322 322 327 330 334 338 338 337 339 339 339 339 340 341 340 338 337 335 336 336 335 336 334 331 326 326 329 331 331 332 331 329 326 326 326 325
309 312 314 313 316 319 319 318 321 322 321 320 320 320 321 323 325 328 335 337 337 337 337 338 339 339 339 338 339 338 336 337 337 336 336 335 334 334 332 330 328 328 328 328 327 326 326 326 326
310 311 313 313 314 318 318 318 318 321 320 319 319 319 320 322 325 326 326 330 337 337 336 337 337 338 337 336 338 339 338 337 336 335 336 335 335 334 334 334 333 330 329 330 330 329 328 327 328
310 311 312 314 315 314 316 318 318 317 318 318 318 318 319 320 324 326 325 325 329 333 336 338 337 338 338 337 338 337 338 337 336 335 335 335 336 335 334 336 334 333 331 328 329 330 330 331 331
310 311 312 312 315 318 315 318 316 315 316 315 317 318 319 318 321 325 324 325 327 326 329 334 334 335 338 338 337 336 335 336 336 336 336 336 336 336 335 334 334 332 332 328 330 328 329 330 329
312 313 312 313 314 315 318 317 315 314 316 315 315 316 317 318 318 319 324 324 324 325 325 329 333 332 333 335 336 334 335 335 335 336 335 334 335 335 333 333 334 333 331 331 331 329 329 328 327
310 314 315 315 315 314 317 317 314 316 315 315 314 315 318 319 318 319 320 324 324 325 326 328 329 332 334 333 333 334 334 333 334 333 334 336 334 331 330 330 329 330 330 329 327 326 325 325 324
310 314 317 318 318 313 315 319 316 312 314 315 314 316 317 319 318 318 320 324 325 325 325 326 326 331 330 332 332 333 333 333 333 331 330 329 327 327 327 327 328 328 327 327 326 325 323 322 323
311 311 315 318 313 316 316 317 313 310 310 315 315 316 318 318 318 318 318 322 325 326 325 324 326 328 329 330 331 332 332 331 328 327 326 326 325 325 325 326 325 325 325 325 325 325 325 324 324
311 312 312 312 310 311 314 311 308 309 309 309 313 315 317 318 318 318 318 318 322 324 324 325 324 325 326 327 330 331 329 327 327 326 324 322 322 321 320 321 321 321 321 320 318 319 319 319 319
309 309 310 309 315 313 311 309 310 311 311 310 310 312 315 316 317 317 317 318 320 322 323 323 324 326 326 328 329 327 323 322 322 322 322 322 322 321 320 321 323 323 321 320 321 323 319 315 312
309 310 312 313 308 310 309 308 307 307 309 310 309 312 313 315 316 316 317 318 321 322 322 322 323 323 327 328 327 325 325 323 322 322 322 322 323 322 323 324 324 323 322 317 313 311 311 311 311
307 309 312 305 312 304 301 309 307 305 308 309 311 312 312 313 315 317 317 318 322 322 321 320 319 319 319 320 319 319 320 320 321 323 322 318 318 316 314 314 313 312 311 311 311 311 311 312 312

GFSSGP_850_thetae_105.txt.gz
Theta_e
321 319 320 325 326 321 322 324 320 320 321 323 324 332 335 336 336 337 344 343 342 339 337 338 338 336 333 330 325 320 322 341 342 342 340 339 340 341 340 333 324 314 310 311 320 322 327 330 330
318 318 319 326 327 324 323 318 320 322 320 324 327 339 340 342 341 345 345 343 342 338 337 338 338 335 332 329 323 320 321 340 342 342 342 342 341 340 337 328 314 310 311 314 318 325 330 332 328
317 319 323 326 323 325 319 317 318 319 322 326 335 340 340 342 344 345 344 343 341 337 337 338 340 334 331 328 322 320 317 338 341 341 341 341 340 338 332 314 310 311 313 318 329 332 330 327 322
317 318 321 328 326 323 316 315 318 318 319 320 331 343 341 343 345 343 342 344 340 337 337 339 337 333 332 326 321 317 315 323 339 340 340 339 338 331 314 311 312 314 317 327 330 327 325 324 320
318 319 323 325 325 323 319 319 318 318 319 321 337 342 343 346 345 344 342 343 339 340 339 339 337 333 331 325 321 314 315 314 319 335 338 335 322 313 311 312 315 318 323 327 327 322 323 322 319
318 318 323 326 325 322 319 321 321 320 321 325 339 342 343 344 345 346 344 342 339 341 341 339 337 333 332 324 323 316 315 314 313 314 315 313 311 311 313 317 320 321 324 326 323 322 321 322 320
315 316 317 322 322 323 321 321 319 320 321 320 336 338 343 345 346 347 344 341 339 340 340 338 338 336 332 324 326 323 321 318 311 310 310 310 311 313 316 319 320 322 323 323 322 321 321 321 321
313 315 317 318 324 323 321 322 322 322 321 324 337 338 343 346 346 347 345 341 339 340 340 337 338 337 333 333 328 332 327 322 314 311 311 312 314 315 318 319 319 320 320 321 321 320 320 322 321
312 316 316 316 320 323 322 321 322 322 324 330 337 337 342 343 346 344 344 341 339 340 337 338 338 337 334 333 331 336 334 328 319 313 313 314 316 317 318 318 319 319 319 320 319 319 320 321 322
311 315 316 315 315 321 322 323 322 323 327 333 336 338 342 344 343 341 334 335 339 339 337 339 338 336 335 333 332 335 337 334 323 316 314 315 316 317 318 318 319 319 319 319 319 319 319 321 323
311 313 313 314 317 320 321 323 324 326 327 333 338 339 340 338 343 339 335 331 336 338 338 339 338 337 336 335 336 331 333 335 329 321 317 315 316 317 318 318 318 319 319 319 319 319 319 319 322
311 311 311 313 317 319 320 322 324 326 324 327 336 331 337 338 343 342 337 332 328 337 339 339 337 338 337 337 336 333 327 330 331 326 322 319 317 316 317 317 317 317 317 317 317 317 318 320 321
310 310 311 313 315 319 318 322 324 324 324 328 335 334 336 338 341 346 342 335 333 335 339 338 337 338 337 337 335 329 324 322 323 326 327 324 321 320 319 318 318 319 319 319 319 319 321 321 321
309 311 311 312 316 315 316 320 324 324 324 328 334 335 334 337 339 344 345 341 339 334 337 338 338 337 337 336 332 329 322 323 321 319 320 323 325 324 322 322 322 323 322 322 322 325 327 328 325
308 311 313 313 315 316 314 317 326 324 324 327 330 333 334 334 338 341 339 333 332 330 338 340 339 338 338 337 336 333 325 325 320 319 319 321 321 323 324 325 324 326 326 325 325 328 327 327 326
310 312 314 313 315 316 312 316 320 323 324 322 325 329 332 334 335 337 336 338 340 340 337 340 339 339 338 338 337 336 330 328 325 323 323 323 325 324 322 321 325 329 329 329 330 330 329 328 326
311 311 314 315 316 318 315 314 316 322 324 322 322 324 328 332 334 335 336 336 338 341 339 338 338 339 339 338 336 335 332 331 329 331 331 329 324 323 324 325 327 329 331 331 330 330 330 329 328
312 313 312 315 318 317 316 316 316 318 323 322 321 322 324 328 333 333 334 334 336 340 338 337 338 338 339 338 336 335 335 334 333 333 334 333 332 327 324 326 328 329 330 331 331 331 330 328 327
308 311 312 313 317 318 316 316 315 315 315 321 320 320 321 325 328 332 334 333 335 336 337 337 337 339 340 338 337 337 336 336 336 336 335 335 334 332 329 325 326 328 330 331 331 329 328 327 326
308 311 312 313 314 318 317 317 317 316 315 319 319 318 320 322 326 329 332 335 332 334 336 337 338 337 337 338 338 337 337 336 336 335 335 335 335 333 334 333 333 330 329 329 329 328 327 327 327
309 311 311 314 316 316 318 319 319 318 317 317 318 317 319 320 321 325 328 333 334 335 337 337 337 336 337 336 336 336 336 336 336 336 336 335 335 334 334 333 334 333 332 330 330 331 331 329 329
310 310 312 313 317 319 316 320 318 317 318 318 317 317 320 320 320 320 323 329 333 332 334 335 336 337 336 335 335 335 335 335 328 335 335 335 335 335 335 335 334 335 332 331 330 331 331 328 328
312 311 311 312 316 317 317 316 315 316 318 317 316 317 320 320 320 320 321 326 325 329 333 333 334 336 336 335 336 335 335 335 333 334 336 336 335 335 336 336 334 333 333 332 330 329 331 328 327
308 313 313 314 315 313 316 315 314 316 315 314 315 317 319 320 319 319 319 324 324 326 327 329 331 333 334 335 336 335 335 334 334 336 337 335 334 334 333 333 332 330 330 328 330 330 325 326 327
307 313 316 316 315 313 316 317 313 313 313 313 313 314 318 318 316 316 317 320 324 325 325 326 327 329 331 331 333 333 335 334 333 333 332 332 331 330 330 329 328 327 327 328 329 328 327 326 326
310 312 306 315 314 316 316 316 314 311 310 312 314 314 314 315 316 317 318 319 321 324 326 325 325 326 328 329 329 329 331 332 332 332 331 329 328 327 326 325 325 326 326 326 326 327 326 325 324
310 312 311 308 308 312 314 311 308 308 309 309 313 315 315 316 317 317 318 318 321 323 325 324 324 325 325 327 328 329 329 330 330 330 328 327 326 325 323 322 324 325 322 322 322 321 320 319 321
310 309 314 304 307 315 313 309 309 308 308 309 310 312 315 316 317 317 318 318 318 322 324 325 324 324 324 324 325 325 328 330 330 328 326 326 324 322 321 321 320 320 322 323 322 320 321 322 319
308 307 312 312 306 310 311 309 307 307 306 308 307 311 313 314 315 317 317 317 317 319 323 324 325 325 323 326 326 328 330 329 325 324 324 323 321 321 321 322 322 322 322 323 322 319 314 312 311
307 308 310 308 311 305 301 310 305 305 307 309 310 311 312 313 314 315 315 316 317 319 323 324 323 322 323 323 325 328 327 324 323 322 322 322 322 323 322 318 316 314 313 312 311 311 311 311 312

GFSSGP_850_thetae_108.txt.gz
Theta_e
318 319 320 321 325 325 325 323 320 318 319 323 324 328 332 336 335 334 340 341 341 342 339 340 339 336 331 325 323 319 335 331 330 334 335 334 337 340 338 331 320 315 327 335 334 329 329 330 324
318 320 319 323 327 326 324 319 322 319 320 322 323 332 338 335 337 342 344 342 342 341 339 341 338 334 329 325 320 332 340 340 337 337 336 337 340 340 333 324 313 310 316 321 330 329 327 324 318
319 319 319 324 326 325 322 317 319 320 321 325 325 330 338 340 343 344 343 342 342 339 338 341 337 333 328 324 319 334 341 342 341 341 341 341 340 337 331 314 310 311 315 324 332 329 322 317 315
319 319 318 323 327 322 320 314 316 317 319 321 330 331 331 340 343 345 344 342 341 337 339 340 335 332 328 322 319 330 340 341 342 341 342 340 339 334 315 310 311 314 323 332 327 322 318 317 315
319 318 316 319 322 322 320 317 316 316 317 319 332 329 330 336 344 345 344 342 338 337 339 339 335 331 328 321 319 321 338 341 340 341 339 337 336 317 311 311 314 320 325 323 321 320 318 317 316
317 317 319 315 317 321 319 319 320 317 317 323 338 332 332 331 343 346 345 342 338 337 340 340 335 330 327 320 316 315 329 339 339 339 337 336 318 311 312 314 318 323 323 320 319 320 319 319 319
313 317 317 315 315 316 318 321 318 319 318 321 331 337 339 336 335 345 344 341 338 338 339 339 336 331 325 320 314 314 315 323 332 334 329 316 311 312 315 318 321 322 321 320 320 320 320 321 322
312 314 317 314 314 317 319 319 321 321 319 321 335 336 342 344 334 345 343 340 339 339 339 338 337 332 325 322 316 315 313 313 314 314 311 311 312 316 318 320 321 322 321 321 320 321 321 321 322
311 313 314 315 315 315 319 321 322 322 321 322 334 337 338 344 343 344 342 341 341 339 339 338 336 335 327 325 325 320 316 311 310 310 311 312 315 318 319 320 320 322 322 322 321 321 322 322 322
310 311 312 312 313 313 316 320 321 323 322 323 334 336 341 344 346 343 342 342 340 340 338 337 336 335 332 328 333 327 321 313 311 312 313 314 317 318 318 319 320 320 321 321 320 320 321 322 323
309 310 310 311 313 315 315 320 321 322 325 324 334 336 343 345 343 339 341 340 340 340 337 337 337 336 334 331 335 335 329 318 312 313 315 316 317 318 318 319 319 320 320 319 319 319 320 321 322
309 309 309 311 312 313 316 319 320 320 322 323 327 334 342 345 345 343 343 339 338 339 337 338 337 336 333 331 335 336 334 324 316 313 315 316 317 318 318 319 319 319 319 319 319 319 319 320 321
309 308 309 310 310 311 315 318 319 318 319 323 324 332 334 343 340 342 341 339 337 330 332 339 337 336 335 333 332 334 336 330 322 317 315 316 317 317 318 318 319 319 318 317 317 317 319 321 322
308 309 309 310 311 312 315 315 316 317 318 321 325 330 331 334 336 339 338 338 335 329 327 337 337 336 336 335 335 333 330 333 331 324 320 319 317 316 317 317 317 317 318 319 319 319 321 324 323
308 308 309 310 310 311 315 316 315 315 317 322 326 329 330 334 335 338 334 333 331 330 328 336 338 336 336 336 336 332 327 327 329 329 327 323 322 321 321 320 320 322 322 322 323 324 327 328 327
307 308 311 311 310 309 313 316 313 315 318 320 325 331 331 333 334 337 334 332 329 329 327 327 338 336 336 336 335 331 322 322 321 321 320 323 324 323 323 324 325 326 326 326 325 327 328 328 327
307 311 311 312 310 311 314 316 313 313 314 320 320 325 332 333 334 334 337 335 327 326 332 336 334 337 336 337 335 333 326 327 322 320 319 322 323 324 324 321 322 327 329 329 330 330 329 329 328
306 310 311 313 311 312 314 315 315 312 311 315 320 320 323 331 333 334 335 336 334 337 336 330 335 336 338 337 336 336 334 329 326 325 326 325 325 324 324 325 326 327 328 330 329 329 330 329 327
307 307 309 312 315 315 316 315 314 314 310 313 318 319 319 323 327 332 333 334 335 335 335 336 336 337 338 338 337 337 335 333 333 333 333 333 331 329 326 325 326 327 327 328 329 331 329 328 327
308 308 312 312 313 316 316 316 316 312 312 313 317 317 318 320 321 330 333 333 333 335 337 338 339 338 339 338 337 335 335 334 336 334 335 335 334 333 332 331 329 328 328 329 330 330 329 328 328
309 310 312 314 317 317 317 319 318 315 315 316 315 316 317 320 321 324 331 332 332 333 334 336 337 336 337 336 337 336 335 335 336 335 335 333 333 335 333 334 333 333 333 331 330 330 329 328 329
308 309 313 316 316 320 314 320 319 317 317 317 317 316 317 319 320 321 324 331 331 329 333 331 333 335 336 336 336 333 332 334 334 333 333 331 332 333 334 334 334 333 333 333 331 331 331 328 327
311 311 312 313 313 318 316 315 317 317 318 317 315 315 317 320 320 320 321 326 332 332 331 331 332 336 336 335 334 328 327 332 331 331 329 331 333 334 334 335 335 334 333 332 331 329 327 327 328
307 312 313 313 313 313 316 314 315 318 317 316 315 316 318 319 320 320 320 321 328 331 330 328 332 331 335 335 335 334 333 333 332 331 331 332 329 334 334 333 330 327 325 331 331 329 329 329 328
306 307 311 310 310 315 313 315 313 315 314 315 315 315 317 319 319 320 319 321 323 328 332 331 332 332 332 333 332 333 332 332 332 332 332 332 332 331 331 331 330 330 328 327 327 327 327 328 326
309 307 307 314 316 316 315 316 313 310 312 314 315 315 317 319 319 318 318 318 321 324 325 327 327 328 329 330 330 329 329 330 331 332 331 331 330 330 328 327 326 323 325 326 325 324 326 326 325
311 312 310 309 308 308 312 310 308 307 307 308 311 313 315 318 316 318 317 318 319 320 324 325 325 326 326 327 327 327 327 330 329 330 330 328 327 326 326 324 322 323 324 322 321 321 323 322 320
310 310 310 307 311 316 313 309 309 308 307 306 309 312 313 315 315 316 316 317 319 321 323 325 323 325 325 326 326 326 328 328 329 330 329 327 326 325 323 321 321 320 320 320 322 323 322 321 322
310 310 311 309 307 312 312 310 307 306 305 307 307 309 311 313 314 315 316 317 317 319 323 324 324 323 323 324 323 325 325 326 328 329 327 326 325 323 321 321 321 321 322 321 320 319 316 313 311
307 308 310 306 311 304 304 311 305 304 307 308 309 310 310 311 314 315 315 316 317 317 320 324 324 324 324 323 324 323 326 328 328 328 325 324 323 321 321 321 321 317 314 312 311 311 311 311 311

GFSSGP_850_thetae_111.txt.gz
Theta_e
319 314 318 322 326 327 327 325 321 320 320 323 326 332 336 335 335 339 334 338 341 340 339 341 337 336 335 330 327 324 319 327 329 331 335 336 338 339 337 329 326 336 336 333 332 331 324 322 331
319 317 318 323 329 327 324 323 322 322 319 321 325 333 335 333 335 339 342 341 342 339 340 342 337 336 332 326 322 320 319 327 329 333 335 338 338 339 332 321 323 331 334 331 329 328 323 317 321
320 319 319 323 326 328 325 322 322 320 320 320 324 333 334 339 340 338 342 341 343 339 340 340 338 335 329 323 320 335 329 329 334 335 336 338 339 335 326 313 324 328 331 328 324 318 316 314 313
319 319 317 321 324 325 325 320 317 319 319 319 323 327 330 330 336 340 342 343 343 339 339 340 337 332 326 321 328 340 340 337 337 337 339 340 338 332 314 310 314 329 328 325 319 316 315 314 314
318 318 318 317 318 322 322 321 318 317 318 318 320 327 331 331 333 335 341 344 342 339 339 340 336 331 326 320 336 341 341 340 340 341 340 339 335 322 311 312 318 327 324 320 318 317 316 316 316
316 317 318 318 316 315 319 320 319 320 319 317 325 330 329 335 330 337 343 343 343 339 340 339 335 329 325 319 333 339 341 341 341 340 339 337 330 312 311 314 323 324 321 319 318 317 317 318 318
313 317 317 316 315 314 317 319 320 321 320 320 321 334 332 332 332 334 343 345 343 340 340 339 334 329 324 319 325 337 340 340 339 339 336 333 314 311 313 318 323 323 321 319 319 319 320 320 320
312 313 314 316 316 316 314 315 319 320 321 321 323 329 335 331 336 332 342 344 344 340 340 339 333 329 323 320 318 332 339 339 338 335 334 317 311 313 316 321 322 321 320 320 320 320 322 322 322
311 312 312 313 315 315 314 314 318 319 320 321 322 325 333 331 334 332 341 343 342 340 340 339 333 328 322 315 315 320 334 337 331 332 319 311 312 316 318 321 321 321 321 321 321 321 321 322 323
310 311 310 310 311 313 313 314 317 318 321 323 323 323 329 340 332 332 335 342 342 340 340 338 334 328 321 315 315 314 317 323 319 314 311 312 315 318 319 321 321 322 322 321 320 321 321 323 323
309 310 308 309 309 312 314 315 315 320 322 322 323 323 331 336 336 333 337 341 340 339 339 338 335 329 323 320 319 315 311 311 311 311 312 315 318 319 320 321 322 321 321 321 320 320 321 321 322
309 309 309 307 308 311 313 314 316 318 319 318 322 320 323 341 341 335 334 341 340 339 339 337 335 332 326 332 324 319 312 311 311 311 313 318 319 320 320 321 321 320 320 320 319 319 319 320 321
307 308 308 308 309 309 311 312 313 317 318 318 316 317 321 323 338 341 336 334 340 339 338 337 336 333 329 334 333 326 318 312 312 314 315 318 319 319 319 319 320 319 319 319 319 319 319 319 321
307 307 307 308 309 310 310 311 313 317 318 318 317 318 320 322 332 340 335 331 327 336 337 337 336 335 333 330 335 332 324 316 313 315 316 317 318 318 319 319 319 319 319 318 318 318 319 321 322
306 307 306 307 308 309 311 312 312 314 315 317 317 318 319 323 331 339 335 331 328 329 335 338 336 336 334 331 333 336 334 326 318 314 315 316 317 318 318 318 318 317 317 317 319 319 321 325 327
305 305 307 308 308 310 311 312 314 315 315 316 316 315 319 324 329 335 339 335 336 333 330 337 336 335 335 334 333 331 332 332 329 323 319 317 316 317 317 317 318 319 321 321 322 323 326 327 327
304 305 307 307 310 310 311 311 314 313 316 316 314 311 319 325 329 331 334 338 334 334 336 336 329 331 336 335 335 334 331 328 330 330 329 324 323 323 322 323 325 325 326 326 326 326 328 328 328
301 306 307 306 311 310 311 311 314 315 316 314 310 309 315 322 330 331 332 335 334 334 332 331 324 326 335 336 336 335 329 323 323 323 323 325 326 324 325 325 326 326 329 329 329 329 330 330 329
304 306 306 306 307 311 311 310 313 314 312 309 309 311 313 318 327 331 332 335 334 334 334 331 329 338 337 335 336 334 330 322 326 323 320 320 323 325 326 325 324 327 328 329 331 331 331 330 328
304 308 308 308 309 311 312 312 314 312 310 310 311 313 314 316 322 331 332 334 334 332 332 329 333 338 338 337 336 334 334 327 327 323 325 327 327 326 325 326 327 328 328 329 330 331 331 330 328
305 308 309 312 313 313 314 316 317 313 312 312 313 314 314 316 321 329 332 332 332 334 331 332 337 339 338 336 336 336 336 335 332 331 332 333 332 332 331 330 328 327 328 329 330 330 330 329 328
309 309 311 314 316 318 314 320 318 316 314 314 315 313 315 317 321 326 332 333 332 329 332 336 337 338 336 337 335 336 336 335 333 333 333 334 333 332 333 331 329 329 329 329 330 330 329 328 326
311 306 312 315 317 316 317 317 318 316 316 316 316 315 316 317 320 324 330 332 332 331 330 334 334 329 331 336 335 335 334 332 333 334 333 332 331 330 332 332 332 332 332 326 326 330 326 326 326
307 311 312 313 314 317 316 315 317 318 316 316 315 315 317 318 319 319 324 330 331 331 331 331 333 328 326 327 334 334 332 329 331 332 330 328 327 330 331 331 333 332 330 327 325 327 330 329 328
308 306 310 314 314 317 315 316 314 314 315 316 315 315 317 318 318 317 320 325 327 331 331 330 330 330 329 329 327 327 328 328 328 331 327 327 327 329 329 331 330 330 329 329 328 328 328 327 328
309 307 311 313 315 317 314 316 311 307 307 313 314 314 315 318 318 316 315 318 324 330 330 330 329 330 328 327 327 332 330 327 328 329 328 331 330 330 330 331 331 329 326 325 325 324 323 325 325
311 310 311 310 308 314 312 309 308 308 307 307 310 315 315 316 317 316 316 316 320 327 327 325 326 328 328 328 328 327 326 325 327 329 330 331 330 330 329 328 325 323 324 323 321 321 321 322 322
309 310 311 309 312 317 311 310 311 308 308 307 310 312 316 318 318 317 315 316 318 320 327 328 327 327 327 328 327 328 328 328 329 329 328 328 327 326 325 323 321 321 320 320 321 322 322 322 322
309 311 310 309 307 314 314 314 307 306 306 308 308 308 315 316 315 317 316 316 317 322 325 327 325 326 325 326 326 325 326 326 327 328 328 326 326 325 323 321 321 320 320 320 318 317 315 313 311
307 308 309 309 312 304 310 313 305 305 307 308 308 309 310 314 314 315 316 315 317 320 324 326 325 325 323 324 324 324 324 326 327 328 327 326 325 324 321 321 321 321 317 314 313 313 312 311 311

GFSSGP_850_thetae_114.txt.gz
Theta_e
321 320 321 326 329 327 327 326 325 325 324 326 327 330 334 336 339 344 336 344 345 344 345 340 335 332 332 331 330 328 326 328 335 333 338 336 338 341 338 331 336 334 332 327 332 332 335 334 332
322 321 320 324 327 326 325 325 326 325 323 323 324 327 333 335 338 344 341 342 345 345 348 342 336 333 332 330 328 327 326 325 330 332 336 338 340 340 333 332 329 336 335 333 323 321 329 328 327
321 321 318 320 323 325 323 324 324 323 323 323 324 326 329 332 340 344 340 341 346 346 346 344 336 335 334 329 326 322 320 324 328 332 336 339 340 336 324 329 333 332 330 330 323 317 318 318 315
320 320 318 321 318 319 320 322 323 323 322 322 322 325 329 338 340 345 337 341 346 346 346 343 337 336 333 326 321 320 327 331 332 336 337 339 339 330 317 332 334 332 327 323 317 315 314 314 314
319 318 319 318 315 315 317 319 322 322 322 322 321 323 325 334 333 332 338 342 346 346 347 344 337 335 330 323 323 327 332 333 336 336 339 338 334 321 316 333 331 328 324 317 315 314 314 315 316
316 315 318 318 316 315 315 316 322 322 321 321 321 321 323 336 333 332 337 344 344 346 346 343 338 333 326 321 337 338 335 335 336 338 340 338 331 312 313 331 329 325 319 317 316 315 316 317 318
314 316 315 315 314 314 315 314 320 321 322 323 321 322 323 335 342 334 328 339 344 345 344 342 338 330 324 331 340 341 339 338 339 341 340 336 322 311 315 330 327 322 318 318 317 317 318 319 319
313 313 314 314 314 314 314 314 314 318 323 322 322 324 324 334 343 335 328 330 343 343 343 341 340 329 325 335 340 341 341 341 340 340 339 332 312 312 324 329 325 321 319 319 319 320 320 320 320
310 313 312 311 311 312 313 314 314 315 318 322 323 325 325 326 340 341 331 328 342 344 342 340 339 336 334 333 339 341 341 340 339 339 335 318 311 316 329 332 324 321 321 320 321 322 321 322 321
310 311 310 310 310 311 311 314 315 316 315 318 322 322 324 328 336 341 339 328 337 343 342 340 339 336 334 335 337 341 341 339 338 336 330 321 325 331 335 332 327 322 322 321 321 321 322 323 323
309 311 309 309 308 309 310 312 313 315 316 317 319 322 325 325 337 341 342 335 336 341 342 340 339 337 334 332 336 339 341 340 336 334 328 329 331 331 332 336 335 324 323 322 322 322 323 323 327
308 307 308 308 308 308 310 310 311 314 315 316 317 320 323 323 324 333 341 341 340 339 340 339 337 337 332 330 330 334 339 338 333 331 329 328 331 332 332 336 334 326 329 323 321 323 322 322 323
307 307 306 306 308 308 308 309 311 312 314 316 317 318 321 321 322 324 333 338 332 329 340 338 335 335 332 330 329 329 330 330 329 328 328 326 325 330 331 331 331 330 326 321 320 321 320 322 323
306 306 307 307 308 308 309 310 309 310 313 317 318 318 318 319 320 319 323 335 333 332 339 338 335 333 335 331 330 327 327 328 328 327 329 323 328 330 330 329 328 325 321 320 320 320 320 320 324
306 306 306 306 307 309 309 311 311 308 311 314 317 318 317 318 318 320 322 331 334 336 337 337 335 333 334 332 330 328 321 323 326 324 327 329 329 326 322 321 321 321 320 319 319 319 321 326 325
305 305 307 305 308 308 309 312 310 309 310 312 315 318 317 318 317 321 324 324 335 334 330 337 336 334 334 327 332 323 316 314 319 322 323 324 323 320 320 320 319 319 319 318 317 319 323 330 329
304 306 305 305 307 309 310 311 311 312 311 311 315 317 316 317 316 319 325 325 329 328 327 336 336 336 335 330 332 334 329 320 315 317 318 318 318 319 319 319 319 317 318 320 322 323 328 329 329
304 305 306 306 307 310 311 311 312 314 315 316 317 317 315 315 316 319 328 325 331 328 331 337 336 337 336 333 332 334 336 333 327 319 316 316 317 317 317 317 319 321 325 326 326 326 329 330 330
304 305 306 305 306 308 311 312 312 315 316 316 317 315 314 315 315 318 327 326 329 329 333 337 338 337 337 334 334 333 332 331 333 331 329 324 322 322 323 325 328 329 329 329 330 331 331 330 329
305 305 306 306 308 309 311 313 312 313 315 315 315 314 314 315 315 317 325 330 323 332 333 331 336 338 336 336 335 335 335 332 327 328 328 327 327 328 327 327 327 327 328 330 330 331 331 330 328
306 307 307 308 310 310 313 313 313 314 313 313 314 314 314 314 316 317 323 331 326 331 333 335 336 335 337 337 334 335 335 331 324 324 323 323 321 323 326 327 328 327 328 329 329 330 331 330 328
308 308 310 312 311 316 313 316 314 313 314 315 315 316 316 316 316 318 321 332 331 332 335 336 337 339 337 337 336 334 335 332 322 325 322 322 326 327 327 327 328 328 328 329 329 330 330 329 328
311 307 309 313 313 316 315 319 316 315 317 316 316 317 317 316 316 318 320 331 329 332 332 335 335 335 339 334 336 335 336 333 330 328 326 330 331 331 330 329 329 329 329 329 329 328 325 325 327
307 310 312 312 314 320 317 318 320 319 317 318 316 316 316 318 317 318 324 334 331 331 326 330 333 336 335 336 335 335 335 335 334 331 331 333 332 331 331 331 331 330 330 329 327 326 324 325 327
308 313 316 318 320 320 318 315 313 312 315 316 317 315 317 317 318 317 322 330 332 330 327 326 327 327 327 331 333 333 334 332 330 331 330 332 332 330 328 328 330 331 330 325 328 327 327 329 329
309 312 316 317 320 320 316 317 312 310 309 311 316 314 315 316 316 315 321 328 330 330 330 328 328 327 326 326 327 328 329 330 330 329 329 329 330 327 327 327 329 327 329 329 329 328 328 327 327
311 314 312 315 312 317 316 313 313 311 312 311 315 313 315 317 314 314 318 326 328 331 331 331 330 329 329 328 328 327 327 327 328 326 326 325 328 327 327 325 327 330 330 328 325 325 323 324 324
311 310 316 315 318 320 315 317 314 312 311 311 315 313 315 316 313 314 317 319 328 328 328 325 328 330 329 329 328 324 324 326 326 327 324 326 323 324 326 329 329 328 325 324 322 320 321 322 322
312 313 313 312 312 318 318 317 309 311 311 311 313 314 314 315 314 313 314 320 321 327 326 325 327 328 328 327 326 326 325 325 324 325 328 324 327 327 328 329 324 322 321 320 320 321 321 321 320
310 312 312 317 315 312 316 315 309 310 311 311 310 312 313 314 315 314 314 315 324 325 326 326 326 326 326 326 327 327 326 327 327 327 327 327 327 326 325 322 321 320 320 320 318 316 313 312 311

GFSSGP_850_thetae_117.txt.gz
Theta_e
311 321 320 325 328 325 325 325 325 327 327 326 328 332 333 335 337 347 343 346 345 347 343 330 331 334 338 339 339 339 339 339 337 337 341 339 339 338 334 333 333 333 327 325 337 338 337 332 325
322 321 319 320 323 325 324 322 325 325 326 326 325 328 330 334 336 343 344 345 346 347 345 337 332 332 335 337 338 337 337 336 336 336 340 337 339 337 334 335 332 327 330 333 336 335 336 328 323
321 321 319 318 323 325 322 323 323 324 325 325 324 325 328 331 334 341 343 342 346 347 345 347 334 333 332 333 331 329 329 331 333 333 338 337 340 338 334 330 336 336 328 322 331 329 326 323 318
319 319 318 319 317 319 320 320 320 324 325 324 324 325 325 327 331 340 336 341 345 346 344 345 336 332 331 330 329 328 327 328 331 333 337 339 341 335 331 335 335 334 330 319 321 321 317 315 315
317 318 320 317 316 316 317 317 318 321 324 324 323 324 324 327 343 345 334 334 345 345 344 344 337 334 334 331 328 326 326 327 331 335 337 339 340 329 329 334 330 330 326 317 315 314 314 315 315
316 315 317 317 317 316 316 314 315 318 320 322 322 323 323 324 341 344 337 338 344 345 344 344 341 335 334 329 323 322 329 331 333 336 338 340 333 328 332 334 331 325 318 315 314 314 315 317 318
315 316 316 314 314 315 315 315 315 315 318 321 321 323 322 323 337 344 341 331 338 344 344 345 341 336 334 326 322 331 333 332 336 337 339 338 326 321 332 332 328 322 317 315 315 316 317 319 319
313 314 314 314 314 314 314 314 314 315 316 318 320 322 323 322 332 342 344 331 328 340 343 344 341 337 333 326 332 335 334 336 338 339 340 335 317 320 333 329 329 320 317 316 316 318 319 319 319
311 314 314 313 312 313 312 313 313 314 314 315 318 320 323 325 328 337 340 340 329 336 342 343 341 339 338 333 339 337 336 337 338 339 340 329 314 327 334 332 326 320 318 319 320 320 320 320 320
311 312 312 311 312 311 311 311 311 313 315 314 315 318 322 324 327 332 339 339 332 328 337 343 340 337 338 337 340 340 339 339 340 339 338 323 324 333 336 332 325 321 320 321 322 322 322 321 320
311 312 311 311 310 310 310 310 311 313 315 315 315 315 319 323 326 330 336 339 332 327 330 338 340 336 338 338 339 341 341 340 339 338 333 328 329 334 334 333 327 324 323 322 323 322 325 332 331
310 309 309 309 309 309 310 309 310 310 312 312 314 316 316 319 323 326 330 337 335 328 326 333 339 336 335 337 338 341 341 339 337 336 330 328 331 333 335 331 327 325 325 324 323 326 331 330 330
308 308 307 307 307 307 307 308 309 309 310 311 312 315 317 318 320 325 322 323 328 331 328 326 338 336 333 336 336 338 339 337 336 335 328 329 332 334 334 334 335 331 332 330 330 330 330 329 329
307 307 307 306 307 307 308 308 308 309 309 310 311 313 315 318 318 322 321 321 325 332 330 330 336 335 333 332 337 336 337 335 334 332 329 331 333 334 333 333 335 333 333 331 329 328 328 328 328
305 306 306 306 306 306 306 308 309 308 309 309 310 312 314 318 318 319 320 320 322 325 335 335 336 335 332 331 331 333 336 336 331 330 330 332 333 333 333 333 334 333 332 329 327 327 326 328 329
306 306 307 306 306 305 306 309 310 309 309 309 309 313 315 317 318 318 319 320 319 325 335 332 334 333 333 331 329 329 330 329 329 329 331 333 333 333 333 333 332 331 329 327 326 325 326 330 332
305 306 304 304 305 306 307 311 310 309 310 310 310 310 313 316 317 316 319 318 318 323 333 333 334 333 334 332 331 329 328 329 328 329 331 332 332 332 331 330 329 328 326 326 325 325 329 332 331
305 305 305 304 305 307 309 310 310 310 311 311 310 311 313 315 317 317 318 317 320 325 329 332 328 334 335 333 331 329 327 327 328 329 329 330 330 329 329 328 327 326 325 326 325 330 331 333 332
305 305 305 305 305 305 306 308 311 312 313 313 313 314 315 318 316 317 317 318 321 326 325 333 333 336 334 333 336 331 329 327 326 325 326 326 327 326 325 326 328 326 326 329 327 327 327 329 328
304 304 304 305 306 306 308 309 310 312 314 315 315 315 317 317 317 317 318 319 326 326 324 329 328 336 335 333 334 335 332 331 327 323 324 320 324 322 322 328 329 329 331 332 330 330 330 330 328
305 305 306 306 307 309 311 312 310 312 313 314 315 316 317 317 317 317 318 319 328 326 325 326 331 337 336 335 337 336 335 334 332 331 330 328 328 326 323 332 331 330 329 331 329 329 329 330 332
308 307 308 308 309 312 311 316 314 312 313 315 314 315 316 316 317 317 317 319 329 326 326 328 327 336 336 336 334 334 334 333 332 332 332 332 330 330 329 330 326 326 325 328 328 328 329 330 333
308 308 310 311 312 312 314 315 316 314 315 315 315 317 317 318 317 318 319 321 330 325 326 327 330 332 336 336 335 335 335 333 330 328 328 326 325 323 323 325 327 327 328 328 329 329 330 330 330
308 310 311 310 313 316 316 315 317 316 316 316 317 317 318 319 319 318 319 322 330 325 325 330 330 332 334 333 334 335 336 335 331 328 331 327 324 322 327 328 327 328 328 328 329 329 327 326 329
310 313 319 319 317 319 317 317 316 312 312 316 316 315 317 317 318 319 321 326 332 327 324 327 329 335 331 327 334 335 335 335 334 326 326 326 326 328 329 329 329 329 330 330 329 325 323 327 326
309 313 317 319 321 319 315 318 316 312 313 314 313 314 317 315 314 315 322 331 330 329 325 324 323 326 330 331 330 333 334 334 334 332 329 330 332 332 331 329 329 329 327 325 324 324 326 327 328
312 316 313 315 316 318 318 316 314 313 316 313 312 315 315 313 313 317 321 329 330 329 328 327 326 326 326 326 325 326 329 329 329 330 329 328 329 329 327 327 327 326 323 323 325 327 328 330 328
312 312 317 318 321 321 319 316 313 314 315 313 313 315 315 314 313 319 325 330 331 329 329 327 327 326 325 326 325 326 325 323 324 324 325 328 327 328 328 327 327 325 323 323 326 329 326 325 323
314 314 313 314 313 320 319 316 313 314 312 315 313 314 314 313 313 315 324 330 330 330 330 329 329 330 329 329 328 325 324 325 324 324 324 328 327 326 325 323 324 324 323 325 327 325 321 321 321
311 314 313 320 317 317 315 315 313 314 313 313 313 314 314 313 313 314 321 327 328 325 325 326 328 328 328 327 328 327 326 325 324 327 325 324 324 324 322 322 324 325 326 325 325 321 321 321 320